ECMWFNIL_250_spd_000.txt.gz
Wind_Speed
84 85 84 84 85 86 86 86 87 87 87 88 89 89 90 92 93 95 96 97 99 100 101 103 104 105 106 106 106 106 106 106 106 105 104 104 105 106 107 108 109 111
86 86 86 86 85 86 86 86 87 87 87 88 88 89 90 91 93 95 96 98 99 101 102 103 104 105 106 106 106 106 106 106 106 105 105 105 106 106 107 108 109 111
86 87 87 87 87 87 87 87 88 88 88 88 89 89 90 91 92 94 96 97 99 101 102 103 104 104 105 106 106 106 106 106 106 106 106 106 107 106 107 108 108 110
88 89 90 90 90 90 90 90 89 88 88 88 89 90 90 92 93 94 95 96 98 100 101 102 102 103 104 106 107 107 107 107 107 106 106 106 106 106 106 106 106 107
90 91 92 92 92 93 93 92 91 90 90 90 90 92 92 93 94 95 95 96 98 99 100 101 102 103 104 106 107 107 107 107 106 106 106 106 106 105 104 104 103 103
92 93 94 95 94 95 95 95 94 93 92 92 93 94 95 95 95 95 96 97 98 98 99 100 101 102 104 105 105 106 106 105 105 105 105 104 104 103 102 101 100 99
94 95 96 96 96 96 96 97 97 96 96 96 96 97 98 98 98 98 99 99 99 99 99 99 100 101 102 103 104 104 104 104 104 103 103 102 101 100 98 97 96 96
94 96 97 97 97 97 98 99 99 100 100 100 99 100 101 101 101 102 102 102 103 103 102 102 101 102 102 103 104 104 104 103 102 101 100 100 99 97 95 95 94 94
95 96 98 98 98 99 99 100 101 102 102 101 101 101 102 102 103 104 104 105 105 106 105 105 104 104 105 104 104 104 103 102 101 99 99 98 97 94 93 92 92 94
96 98 99 100 100 100 100 101 102 103 103 103 102 103 103 104 104 105 106 106 107 107 108 108 108 108 107 106 104 103 101 100 99 97 97 96 94 92 91 91 93 95
99 100 100 101 102 102 102 102 103 104 104 104 104 104 105 106 106 107 107 108 108 109 109 110 110 110 108 107 104 102 100 99 97 96 94 93 91 90 91 92 94 97
101 101 101 102 102 103 103 103 104 104 105 105 105 106 106 107 108 108 109 109 110 110 110 111 110 109 108 105 103 100 99 97 96 94 93 91 90 90 92 94 95 97
103 102 102 102 103 103 104 104 105 105 105 105 106 106 107 108 109 110 110 111 110 109 109 109 108 107 106 103 101 99 97 95 94 92 90 89 89 91 93 94 94 95
103 103 103 103 103 103 104 105 106 106 106 107 107 108 109 110 111 112 112 111 110 108 107 106 105 104 103 101 98 96 94 93 91 90 89 89 90 91 92 92 93 94
103 103 103 104 104 104 105 106 106 107 107 108 109 109 110 111 112 112 112 110 108 106 105 104 103 102 100 98 96 94 93 91 90 90 89 90 90 90 90 91 91 92
103 104 104 104 105 105 106 106 107 108 108 109 109 110 110 111 111 111 110 109 107 106 105 104 102 101 99 97 95 94 93 92 91 90 88 88 87 87 88 89 90 90
104 104 104 104 105 106 106 107 108 109 109 109 109 109 109 108 108 108 107 106 105 104 103 102 101 99 98 97 96 94 92 90 88 86 84 85 85 86 87 88 89 89
106 106 105 105 105 106 107 108 109 110 110 110 109 107 106 106 106 105 104 102 101 99 99 98 98 97 95 95 93 91 88 85 83 81 81 82 84 85 87 88 88 88
108 108 107 107 107 108 109 110 111 112 111 110 107 105 104 103 103 102 101 99 97 97 97 97 96 95 94 93 90 88 86 83 81 80 81 82 84 86 88 89 88 88
111 110 109 109 109 110 111 112 113 112 110 107 104 102 102 102 102 101 99 98 97 98 98 98 97 96 95 93 90 89 86 84 82 82 82 83 85 88 89 89 89 88
114 113 113 113 113 113 114 113 111 109 106 103 102 102 101 101 101 101 100 99 98 99 100 100 99 98 97 95 93 91 88 85 84 84 84 86 88 90 91 90 89 87
118 117 117 117 117 117 115 113 110 107 105 103 103 103 102 101 101 101 101 100 100 100 101 101 101 100 100 98 96 93 89 87 87 86 87 89 91 92 92 91 89 87
119 119 119 119 118 116 113 110 107 105 103 102 102 102 102 102 101 101 101 102 102 101 102 102 101 101 101 101 99 96 91 89 89 89 90 91 93 93 92 91 89 87
119 118 118 116 114 111 108 106 104 103 101 101 101 101 100 100 100 101 101 102 102 102 102 102 102 102 102 102 101 98 94 91 91 90 91 92 92 92 91 90 88 86
116 115 113 111 108 106 105 104 102 101 100 99 99 99 99 99 99 99 100 100 101 101 102 102 102 102 102 102 101 99 96 93 92 90 90 91 91 91 90 88 86 84
112 110 107 105 104 103 103 102 101 100 99 98 98 98 97 97 97 98 98 99 99 100 100 101 102 102 102 102 101 99 96 93 91 90 90 90 90 89 88 86 84 82

ECMWFNIL_250_spd_003.txt.gz
Wind_Speed
77 78 78 79 81 84 87 89 90 90 91 91 91 92 93 93 94 93 93 93 94 93 93 93 93 94 94 94 95 95 96 97 97 99 100 101 102 102 103 104 105 107
79 80 81 82 83 85 88 90 92 93 93 93 93 93 93 94 94 95 95 95 95 95 95 95 95 96 96 96 97 97 98 99 100 101 102 104 105 105 106 107 108 109
82 82 83 85 87 88 89 91 93 94 95 94 93 93 93 93 93 93 94 94 95 95 95 96 96 97 97 98 98 99 100 101 101 103 104 105 106 106 107 108 109 110
85 84 84 87 89 90 92 93 95 97 98 97 95 93 92 92 92 92 93 94 95 96 96 97 97 98 99 99 100 100 101 102 102 103 104 105 106 106 107 108 109 110
89 88 88 89 90 92 93 94 96 98 100 101 98 95 94 94 94 94 94 96 97 97 97 98 99 100 100 101 101 102 103 103 104 104 105 105 106 107 107 108 109 111
92 92 92 92 93 94 95 96 97 98 101 102 101 99 97 97 96 96 97 98 99 99 99 99 100 100 101 101 102 103 103 104 104 105 105 106 107 107 108 109 110 111
92 94 95 96 96 96 97 98 99 100 102 103 102 101 100 100 99 99 99 100 101 100 100 99 99 99 99 99 100 101 103 104 105 106 107 107 108 109 110 110 111 111
94 95 97 98 98 99 99 100 100 102 104 104 103 102 101 101 102 102 102 102 102 101 100 99 98 98 98 98 99 101 103 104 106 107 108 109 110 112 112 112 111 110
95 96 97 98 100 101 101 102 102 104 106 105 103 102 101 102 103 104 104 103 102 101 101 100 98 98 98 98 100 101 103 105 106 107 109 110 112 113 113 113 111 108
98 98 97 98 100 101 101 101 102 104 105 105 104 102 101 102 103 103 103 102 101 100 100 99 98 98 98 99 100 102 104 105 106 107 109 111 112 113 113 112 109 106
99 100 100 101 102 102 101 100 102 104 105 105 105 103 101 101 102 103 102 100 99 99 98 98 98 98 99 100 101 102 103 105 106 108 110 111 112 113 112 110 107 103
100 100 100 102 103 103 102 101 102 103 105 107 106 104 102 102 102 101 100 99 98 98 98 97 98 98 99 100 101 102 103 105 107 109 110 112 112 111 109 107 104 102
102 100 100 102 104 104 104 103 102 103 105 106 105 103 103 102 101 100 100 99 98 98 98 98 98 99 100 100 101 102 104 106 108 109 109 109 109 108 106 103 101 100
102 100 100 103 104 104 104 103 103 103 104 103 102 102 102 102 101 100 99 98 98 99 99 99 99 100 100 100 101 103 104 106 106 106 106 106 105 104 102 101 100 99
100 100 101 102 102 102 102 102 103 104 104 102 101 101 102 102 101 101 100 99 99 99 100 100 100 101 101 101 102 103 104 104 103 101 101 102 101 100 99 98 98 97
100 100 100 100 100 101 102 103 104 105 104 102 102 102 103 103 103 102 101 101 101 102 102 102 102 102 102 102 102 102 102 100 99 98 98 98 98 98 97 96 96 96
100 101 101 101 101 102 103 104 105 105 104 103 104 105 106 105 105 104 104 104 104 105 105 105 104 103 102 102 101 99 97 96 95 95 96 96 95 95 95 95 95 95
101 102 104 104 104 104 105 105 106 105 105 105 106 107 108 108 108 108 108 108 109 109 108 107 105 104 102 100 98 95 94 93 94 94 94 94 94 94 94 95 95 95
103 105 107 107 107 107 107 107 107 107 106 107 109 110 111 112 113 113 114 114 114 113 112 110 107 104 101 98 95 94 93 94 94 94 94 94 94 94 94 95 95 95
108 109 110 110 110 110 111 111 111 109 109 110 111 113 115 117 118 119 119 120 120 119 116 111 106 102 99 97 95 94 94 94 94 95 95 95 95 95 95 96 96 95
112 113 113 114 115 117 117 116 114 113 112 113 115 117 119 120 122 123 123 124 123 120 114 109 104 100 97 95 95 95 94 94 95 95 95 95 95 95 96 97 97 96
116 116 118 119 121 121 120 118 117 116 116 117 119 120 121 122 124 125 125 123 120 114 109 104 100 98 96 95 95 95 95 94 95 95 95 95 95 96 96 96 96 95
118 120 122 123 124 123 121 120 119 119 120 121 122 122 122 123 124 123 121 117 113 108 103 100 97 96 95 95 95 95 95 94 94 94 94 95 95 95 95 95 95 93
121 122 124 124 124 124 123 123 123 123 124 123 122 122 123 123 122 119 115 111 107 103 100 97 96 95 95 94 94 94 95 94 94 94 94 94 94 94 95 94 93 91
122 123 124 125 126 126 125 125 124 124 123 122 122 123 122 119 116 113 109 106 103 100 98 97 96 95 95 94 94 95 95 94 95 94 94 94 94 95 94 93 91 90
123 123 124 126 127 126 125 124 123 122 122 121 121 120 117 113 110 108 106 104 101 99 99 98 97 96 96 95 95 96 95 95 95 95 94 95 95 95 94 92 91 90

ECMWFNIL_250_spd_006.txt.gz
Wind_Speed
71 72 72 73 74 74 74 75 76 78 79 81 83 85 86 87 86 84 82 81 83 83 84 85 86 88 89 89 89 90 91 93 95 96 97 97 98 99 99 98 98 98
76 75 74 74 74 75 76 78 79 80 81 83 85 87 89 89 89 88 87 86 86 87 87 88 89 90 90 90 91 92 92 94 97 99 100 100 101 102 101 101 100 100
78 78 78 78 77 78 80 81 82 83 84 84 86 89 90 91 92 91 91 91 91 90 91 91 91 91 91 92 93 94 95 96 97 99 101 102 103 103 104 103 103 102
81 82 84 84 84 85 86 86 86 87 87 87 89 90 92 93 93 93 94 95 96 95 95 96 95 95 95 95 96 97 98 99 99 101 102 104 105 105 104 104 103 102
86 87 88 88 88 89 89 89 90 90 91 91 91 92 93 94 95 95 96 97 99 100 100 100 100 99 99 99 99 100 100 101 102 103 105 106 106 106 105 104 103 102
90 90 91 91 91 92 92 92 94 94 93 93 93 94 95 96 97 98 99 99 101 102 103 103 102 101 101 101 101 101 101 102 102 104 106 107 107 106 105 104 103 102
93 94 94 94 94 94 95 96 98 97 96 96 97 96 96 98 100 101 101 101 102 103 104 105 104 102 101 102 103 104 104 104 104 105 107 108 108 107 106 104 103 102
96 97 97 97 97 97 98 100 101 100 99 100 100 99 99 100 101 103 103 103 104 105 106 107 106 105 104 104 105 106 107 106 106 106 107 108 108 107 105 104 102 101
99 100 101 100 100 100 102 103 103 102 103 103 104 104 104 104 104 105 106 107 107 107 108 108 108 107 106 105 106 107 107 107 107 107 107 107 107 106 104 103 102 101
101 102 104 104 105 106 106 106 105 106 107 108 109 110 110 108 107 107 108 109 110 109 109 109 110 109 108 106 107 108 108 107 107 106 106 106 105 104 103 102 101 100
102 103 105 107 109 110 109 109 109 110 111 112 113 114 114 112 110 109 110 111 111 111 110 111 112 111 110 108 108 108 108 107 106 105 104 105 104 103 102 101 101 101
103 105 106 109 110 111 111 112 112 113 114 115 116 116 116 114 113 112 112 113 113 113 113 113 113 112 110 108 106 105 104 103 102 102 103 104 103 103 102 102 102 102
105 106 108 110 111 112 113 114 114 115 115 116 116 116 116 115 114 113 113 114 114 114 114 114 114 112 109 106 103 100 99 98 99 100 101 102 102 102 103 103 103 103
104 106 106 108 109 110 112 114 115 116 116 116 117 116 116 116 115 114 113 114 114 114 114 113 112 109 106 103 101 98 97 97 98 98 99 99 100 101 102 103 103 103
100 99 99 99 100 102 104 108 111 114 115 116 117 116 115 114 113 113 113 114 114 113 111 110 108 106 103 101 99 98 98 99 99 98 98 99 100 101 101 102 102 102
98 97 97 96 95 95 96 98 101 104 107 110 111 111 110 110 110 110 110 110 110 109 108 107 106 104 102 100 99 99 100 100 100 100 100 100 100 101 101 101 101 101
99 98 98 97 96 95 95 95 95 96 98 101 103 105 106 107 107 107 108 109 109 108 107 106 104 102 100 99 99 100 100 101 101 101 100 100 100 100 99 100 100 100
102 100 99 99 100 100 101 102 101 101 101 103 104 106 107 107 107 108 108 109 108 108 106 105 102 100 99 99 100 100 101 101 101 100 100 99 98 98 98 98 98 97
110 109 108 108 108 108 108 109 109 111 112 113 113 112 111 110 110 110 109 109 109 108 106 103 102 100 100 101 102 102 102 102 101 100 99 98 98 98 97 96 95 93
119 119 118 118 118 116 115 114 114 117 118 119 118 116 115 114 113 112 112 112 112 110 107 106 106 106 106 106 105 105 104 103 102 101 99 98 98 97 96 95 93 91
124 124 125 125 124 123 121 120 120 120 120 120 119 118 118 118 118 118 118 119 117 115 113 113 112 111 110 109 107 106 105 104 103 101 100 99 98 97 95 94 93 92
126 126 125 125 123 122 120 119 119 118 117 117 117 118 119 120 121 121 122 122 120 117 117 116 114 113 111 109 107 105 104 105 104 102 100 99 98 97 96 95 94 94
122 120 119 118 116 113 112 112 111 111 112 113 114 116 117 118 119 120 120 119 118 116 116 115 114 112 110 108 106 105 105 105 104 102 101 99 99 98 98 98 97 96
115 113 111 110 109 107 107 107 107 108 110 111 112 113 114 115 115 116 116 116 116 115 114 113 112 110 109 107 106 106 105 105 103 102 101 100 100 100 100 100 99 98
110 109 107 106 105 105 105 106 106 107 108 110 111 111 111 112 112 112 113 113 113 112 112 111 110 109 108 107 106 105 105 104 102 101 101 101 101 102 101 101 100 99
107 107 105 105 104 104 104 105 105 106 107 108 109 109 109 110 110 110 111 111 110 110 109 109 108 107 106 106 105 104 104 103 103 103 103 103 103 102 102 101 100 99

ECMWFNIL_250_spd_009.txt.gz
Wind_Speed
72 72 73 73 73 73 72 71 71 71 71 70 71 72 75 77 78 79 79 79 79 78 78 79 79 79 80 81 81 82 83 84 85 87 89 90 91 92 92 93 93 94
74 74 75 75 75 75 75 74 73 73 74 74 74 76 78 80 80 81 82 82 83 83 84 85 85 85 86 86 86 86 86 87 87 88 90 91 93 94 95 96 96 97
76 75 75 76 76 76 76 76 76 76 76 77 79 80 81 82 83 84 85 86 87 88 89 89 90 90 91 91 91 91 91 91 90 91 92 93 94 95 97 99 100 101
78 78 77 77 78 78 78 78 79 79 80 81 83 84 84 85 87 88 89 90 91 92 92 93 94 95 95 94 95 95 96 96 95 95 95 96 97 98 99 100 101 103
84 84 84 84 84 84 83 83 84 85 85 85 87 88 88 89 90 92 94 95 95 96 96 97 98 99 99 98 98 99 100 100 99 99 99 100 101 102 102 102 102 103
91 91 91 91 90 89 89 89 90 90 90 90 91 91 92 93 95 96 97 98 98 99 99 99 100 102 103 103 103 104 104 104 103 103 103 104 105 105 105 105 106 106
96 96 96 95 94 94 93 94 95 96 95 96 96 96 98 99 100 101 102 101 101 101 101 102 103 104 105 106 107 107 108 108 108 107 107 108 108 108 109 109 110 110
101 100 99 99 99 98 98 99 100 102 102 102 102 103 103 104 105 105 105 105 104 104 105 105 106 108 108 108 109 110 111 112 112 112 112 112 112 112 112 113 113 113
106 105 104 104 104 104 104 105 106 107 107 107 108 108 109 109 110 110 110 110 109 109 109 109 110 111 111 111 112 113 113 114 115 115 115 116 116 116 116 116 116 115
109 110 110 110 110 109 108 109 109 110 111 112 113 114 114 114 114 115 115 114 114 113 113 113 113 113 113 113 114 115 115 116 116 117 117 117 118 118 119 119 118 119
111 113 114 115 115 114 113 112 112 112 113 114 116 117 117 117 118 119 119 118 117 117 116 116 116 116 116 116 116 117 117 118 118 118 118 118 118 119 119 120 120 121
111 112 114 115 117 117 116 116 115 114 114 115 117 118 118 119 119 120 120 120 119 119 118 118 117 117 117 116 117 117 117 118 118 117 117 117 117 117 118 119 120 121
110 111 113 114 116 117 117 117 116 115 116 117 118 119 119 119 120 120 120 120 119 118 118 117 116 115 114 113 113 113 113 113 112 112 113 113 114 115 115 116 117 119
111 112 112 113 114 115 116 117 117 117 118 120 121 121 121 121 121 121 121 121 119 117 116 114 112 109 107 105 105 105 104 103 103 104 105 107 109 110 111 111 112 113
111 113 113 114 114 115 116 117 118 119 120 121 122 122 121 121 121 122 122 120 118 115 113 111 109 106 103 102 102 102 102 101 102 103 104 104 105 106 107 109 110 111
108 111 113 114 114 115 116 116 118 119 120 120 120 120 120 120 120 119 118 116 115 113 112 111 110 108 107 107 107 107 107 107 108 109 109 109 108 109 110 110 109 109
105 107 109 112 113 114 115 116 118 119 120 119 118 117 116 116 115 115 113 113 112 112 111 110 110 111 111 112 113 114 114 115 116 116 115 114 113 112 110 109 107 105
101 103 105 108 110 112 113 115 116 117 117 115 113 112 111 110 109 109 108 108 108 108 108 109 110 113 115 117 119 120 119 119 119 118 117 114 111 109 106 104 102 101
98 99 102 104 105 106 107 107 108 109 109 109 108 108 107 106 105 104 104 104 104 105 108 110 113 116 119 121 121 121 120 118 117 115 112 109 106 104 102 100 99 98
100 100 100 100 100 101 101 102 102 104 105 106 105 104 103 103 103 103 103 103 105 108 111 115 117 119 120 120 119 118 117 115 113 110 108 105 104 102 101 100 100 99
104 103 102 101 101 101 102 103 103 104 105 105 103 102 101 102 103 104 105 107 109 113 116 118 118 118 118 117 116 114 113 111 109 107 106 105 105 104 103 102 101 100
111 110 109 108 108 108 109 109 109 108 108 107 105 104 104 105 107 108 109 111 113 115 116 116 115 114 113 113 112 111 109 107 107 107 107 107 105 104 103 102 101 99
116 116 116 116 116 116 116 116 115 115 114 112 111 111 111 112 113 113 113 113 113 113 113 112 111 111 110 109 109 108 106 106 107 108 108 106 105 104 103 102 100 99
119 119 119 120 121 122 122 121 121 120 119 119 118 117 117 116 116 115 114 112 110 110 109 109 109 108 107 107 107 106 106 108 109 109 108 106 105 104 103 102 100 101
117 117 119 120 122 124 125 124 123 122 122 122 122 121 119 118 117 115 112 109 108 107 107 107 107 106 106 106 106 106 107 109 110 110 108 106 105 105 104 103 102 103
113 114 115 117 120 122 123 123 122 121 122 123 122 121 119 117 115 113 111 109 108 107 106 105 105 104 105 105 106 107 107 109 110 110 108 107 106 105 104 104 104 104

ECMWFNIL_250_spd_012.txt.gz
Wind_Speed
76 75 74 74 74 74 74 75 75 75 75 75 76 77 78 78 79 79 80 79 79 79 79 79 80 80 79 79 79 79 79 80 79 79 79 78 78 78 79 79 80 82
79 78 77 77 77 77 77 76 76 75 76 76 77 77 78 79 80 81 81 81 81 81 82 82 83 83 83 82 82 82 83 84 84 84 83 82 82 82 82 83 84 86
87 85 84 83 82 81 80 79 78 78 78 79 79 80 80 81 82 83 83 84 84 84 84 85 85 85 85 85 85 85 86 87 88 88 88 87 86 86 87 88 90 91
94 93 92 91 89 87 84 83 82 83 83 83 83 83 83 84 85 86 87 87 87 86 86 85 85 86 86 87 88 88 89 90 91 92 92 92 91 91 92 93 94 96
99 98 96 95 94 92 91 89 89 89 89 89 89 88 87 86 87 88 89 90 89 88 87 87 88 89 90 90 91 92 93 94 95 96 97 96 96 97 97 98 99 100
104 103 102 101 100 98 97 97 97 96 95 95 96 95 93 92 92 92 92 93 93 92 92 93 94 95 96 97 97 97 98 99 100 101 101 101 101 102 103 104 104 105
108 107 106 106 105 104 104 103 103 103 103 103 102 101 100 99 98 97 97 97 97 97 98 98 99 99 101 101 102 102 103 104 105 105 106 106 106 106 107 108 109 109
113 111 110 109 108 108 108 108 107 107 108 109 108 107 106 104 103 103 103 102 102 102 102 103 103 104 105 105 105 106 107 108 109 110 111 111 111 111 112 113 113 113
117 116 114 113 112 113 113 113 112 112 112 112 112 112 111 110 110 109 109 108 106 106 107 107 108 109 110 110 110 110 111 112 113 114 115 116 116 116 117 117 117 117
118 119 118 117 116 117 119 120 119 118 117 116 115 115 115 115 115 115 113 112 112 112 112 112 113 114 114 115 115 115 115 116 116 117 117 118 119 120 120 121 121 121
118 119 120 121 120 121 123 124 124 123 122 120 120 119 120 120 120 118 117 116 115 116 116 116 116 116 116 117 118 118 119 119 120 120 120 120 121 122 123 123 124 124
114 116 119 121 123 124 125 126 127 127 126 125 124 124 124 124 124 123 121 121 120 121 120 120 119 119 119 119 120 121 122 123 123 124 123 123 124 124 124 124 125 125
112 114 116 119 122 124 125 127 129 129 129 128 127 127 127 127 126 126 125 124 124 123 123 123 123 123 123 123 124 124 125 125 125 126 126 125 125 126 125 125 125 125
111 113 115 116 118 120 122 124 127 128 128 127 126 127 128 128 128 127 126 125 124 124 124 124 125 125 126 126 126 126 126 126 126 126 125 125 125 125 125 125 125 125
108 110 112 113 114 114 115 117 120 123 124 124 124 124 124 125 125 125 124 123 123 123 123 124 125 125 127 127 127 127 126 126 125 125 125 125 125 125 125 126 126 125
104 106 107 109 110 109 109 110 112 115 118 120 122 122 121 121 120 120 120 120 120 121 122 123 124 125 126 127 128 127 127 126 125 124 123 123 123 124 124 125 125 125
102 103 104 105 106 107 106 106 107 109 111 114 117 119 119 119 118 117 117 118 118 119 120 122 123 124 125 126 127 127 126 126 125 124 123 122 122 123 124 124 124 123
100 101 103 104 105 106 105 105 105 105 106 108 111 114 116 116 115 115 114 115 116 117 119 121 123 124 125 126 126 127 127 126 125 124 123 122 123 123 124 124 123 122
100 101 102 104 106 106 106 104 103 103 104 105 107 109 111 111 111 110 110 110 111 114 116 118 121 123 125 126 127 127 128 127 125 124 123 122 122 121 121 121 120 119
103 103 103 105 106 107 107 104 103 102 103 104 105 106 107 107 107 107 107 107 108 110 111 112 114 116 118 120 121 121 121 120 119 118 116 116 115 115 115 115 115 115
105 106 106 107 108 108 108 106 104 103 104 104 104 104 104 104 105 106 107 107 108 109 111 111 111 111 112 113 113 112 112 112 110 109 108 108 109 110 111 112 113 115
107 108 109 110 110 110 108 107 106 105 106 106 106 105 105 104 105 106 107 108 110 112 113 114 113 112 112 111 110 110 109 108 107 106 106 107 108 110 112 114 115 117
108 110 111 112 113 112 110 108 106 106 107 107 108 108 108 107 107 108 108 109 111 113 115 116 115 114 112 111 110 110 110 109 108 109 109 110 111 113 116 118 119 119
108 110 112 114 114 113 111 109 107 107 106 107 108 109 110 110 110 110 110 111 112 113 114 115 115 114 113 112 113 113 112 111 112 113 113 113 115 118 121 122 122 120
107 109 111 113 113 112 111 109 108 107 106 106 107 108 109 110 110 110 111 112 114 114 115 116 116 115 115 115 116 115 114 114 116 116 116 117 120 124 125 124 121 120
106 107 109 111 112 111 110 108 108 108 107 107 107 107 108 109 109 110 111 113 114 115 116 117 117 117 118 118 119 119 118 118 119 119 120 121 124 126 125 122 120 120

ECMWFNIL_250_spd_015.txt.gz
Wind_Speed
85 84 84 85 85 85 84 83 81 80 79 78 76 76 75 74 73 72 73 74 74 74 75 76 76 77 77 77 77 76 76 76 77 78 78 79 79 79 78 78 78 78
89 88 88 88 89 89 88 87 85 83 82 82 82 82 81 80 79 77 77 77 77 78 79 79 80 81 81 81 80 79 79 79 80 80 80 80 80 80 80 80 80 80
94 93 92 91 91 90 89 88 88 86 85 85 85 85 85 85 85 84 84 83 83 83 84 85 85 85 85 85 84 83 82 83 83 83 82 82 82 83 83 83 84 84
98 98 97 95 94 93 91 90 89 89 89 88 88 88 88 89 89 88 89 89 89 89 89 90 90 90 90 89 88 87 86 86 86 86 86 85 85 85 85 86 86 87
102 102 100 99 98 98 97 95 95 94 94 93 93 93 93 93 93 92 92 93 93 94 95 95 95 95 94 94 93 92 91 91 91 90 90 89 88 87 87 88 89 90
105 105 105 104 104 103 102 102 101 101 101 100 99 99 98 98 98 98 97 97 97 98 98 99 100 99 99 98 98 97 96 96 96 95 95 94 93 92 91 91 92 94
107 108 109 110 110 109 108 107 107 107 108 107 106 105 104 103 103 103 103 103 103 103 103 103 104 104 104 104 103 102 102 101 101 100 100 99 99 98 98 98 97 98
110 111 112 113 113 113 112 112 113 114 115 115 115 115 113 111 110 108 108 108 108 108 108 108 108 109 109 109 109 108 107 106 106 105 105 104 104 104 104 104 103 103
114 115 116 117 117 118 119 119 120 121 122 122 123 123 123 122 120 118 116 115 114 114 113 113 113 114 114 114 113 112 111 111 110 109 109 108 108 108 108 108 107 107
118 118 118 119 120 122 123 124 124 124 123 123 124 125 127 128 127 126 125 124 123 122 120 119 119 119 119 119 118 117 116 115 114 114 113 112 112 112 112 111 111 111
120 120 120 120 121 122 123 124 124 124 123 123 124 124 125 127 129 129 130 129 129 128 128 128 127 126 125 124 123 121 120 119 119 118 117 116 115 115 115 115 115 115
118 120 120 121 121 121 122 122 122 123 123 123 123 123 123 124 125 127 128 129 129 130 130 131 131 130 128 127 127 125 124 122 121 121 120 119 119 119 119 119 118 119
116 118 119 120 121 121 121 120 121 122 122 123 122 121 120 121 121 122 124 124 125 126 127 128 129 128 126 126 127 127 127 125 124 124 124 123 122 122 122 122 122 122
115 115 117 118 120 120 120 119 119 120 121 121 120 118 117 117 118 119 120 120 121 121 122 123 124 124 124 123 124 126 128 128 128 128 127 127 127 126 126 125 125 125
115 114 114 115 116 117 117 117 116 117 117 118 117 116 116 115 115 116 116 116 116 117 119 120 121 121 121 121 122 124 126 128 129 129 129 129 129 129 128 128 127 127
113 113 113 112 112 113 113 114 113 114 114 114 114 113 113 113 113 113 113 113 113 114 116 117 118 118 119 119 120 121 123 125 127 128 128 129 129 129 128 127 126 126
110 111 111 111 110 109 109 110 110 111 111 112 112 112 111 110 110 110 110 111 111 112 114 115 116 117 117 118 119 119 120 122 123 124 125 126 127 127 126 125 124 122
108 109 109 110 109 108 107 108 108 109 109 110 111 111 110 110 109 109 109 109 110 111 112 113 114 115 116 117 117 117 118 120 121 121 122 122 122 121 120 120 119 118
106 107 108 109 108 108 107 107 107 108 109 109 110 110 111 110 110 110 109 109 109 109 110 111 112 114 115 117 117 117 117 118 119 120 120 120 118 117 116 116 116 116
106 106 107 108 108 108 107 107 107 107 108 109 110 110 111 111 111 111 111 110 110 110 111 111 111 112 114 115 116 117 117 118 119 120 119 118 117 116 115 114 115 116
106 106 106 107 108 108 108 108 107 107 108 109 110 111 111 112 112 112 112 113 113 113 113 113 113 113 114 115 116 116 117 117 118 118 118 117 115 112 110 110 111 113
106 106 106 106 107 108 109 109 108 107 108 109 110 111 112 112 113 113 113 114 115 116 115 115 115 116 116 117 118 118 118 117 116 116 116 115 113 110 107 106 108 111
105 106 106 107 107 107 108 109 109 109 109 108 109 110 111 112 113 114 114 114 115 116 117 117 117 118 118 119 120 120 119 118 117 117 116 115 114 112 109 108 109 111
103 105 106 107 107 108 108 108 109 110 110 110 109 109 110 111 112 113 113 114 114 115 116 117 118 119 120 120 120 120 119 118 118 118 118 117 116 114 112 111 112 113
103 104 105 106 107 108 109 109 109 110 111 111 110 110 110 110 110 111 112 113 114 114 114 114 115 116 117 118 119 118 117 117 118 118 118 118 117 116 114 114 113 114
103 104 105 106 106 107 108 110 111 111 112 112 111 111 111 110 110 110 111 111 113 113 113 112 112 113 114 114 115 115 114 115 116 117 117 117 116 115 114 114 114 115

ECMWFNIL_250_spd_021.txt.gz
Wind_Speed
99 99 99 99 98 98 98 97 97 97 96 96 95 95 94 93 93 92 91 89 88 87 86 86 85 86 86 87 87 86 86 85 85 85 85 84 84 84 84 84 84 84
104 104 104 104 104 103 103 103 102 102 102 101 100 100 100 99 98 97 96 95 94 93 92 91 90 90 90 90 91 91 90 89 89 89 89 88 88 89 88 89 89 88
106 107 108 109 109 108 108 108 108 107 106 106 105 104 104 103 103 103 102 101 100 99 99 98 97 96 95 95 94 94 94 93 92 93 93 92 92 92 92 93 93 93
111 111 111 112 112 112 112 112 113 112 112 111 111 110 109 108 108 107 106 105 105 104 104 103 103 102 102 101 100 99 98 97 97 97 96 96 96 96 96 97 97 97
118 117 116 115 115 116 116 117 117 117 117 117 116 116 115 114 113 113 112 111 110 109 108 108 107 107 106 106 106 105 104 103 102 101 101 100 100 100 100 101 101 101
123 123 122 121 120 119 120 121 121 121 121 121 121 121 120 119 118 118 117 117 116 115 114 113 112 112 111 110 110 110 109 108 107 106 105 105 105 105 104 104 104 104
127 127 127 126 125 124 123 124 125 125 125 124 124 124 124 124 123 122 122 121 120 119 119 118 117 117 116 115 115 114 114 113 112 111 110 109 109 109 109 108 108 107
131 131 130 130 129 128 127 127 127 128 128 128 128 128 127 127 127 126 126 125 125 124 123 123 122 122 121 120 119 119 118 117 117 116 114 113 113 112 112 113 112 111
134 134 133 133 132 132 131 131 131 131 131 131 131 131 131 131 131 130 130 129 129 128 127 127 126 126 125 124 124 123 122 121 121 120 118 118 117 116 116 116 115 115
137 136 135 135 134 134 133 133 133 133 134 134 134 134 134 134 134 134 134 133 132 131 131 130 130 129 129 128 127 127 126 125 125 124 122 121 120 120 120 119 119 118
138 138 137 136 136 135 135 135 135 135 136 136 137 137 137 137 137 137 137 137 136 135 135 134 134 133 133 132 132 131 130 130 128 127 127 126 124 124 123 123 123 122
137 137 137 136 136 135 135 134 134 135 135 136 137 138 139 139 139 139 140 140 140 140 139 139 138 137 137 136 136 136 136 135 134 133 132 131 130 129 128 128 127 127
133 133 134 134 134 133 133 132 132 132 133 134 135 136 137 137 138 139 139 140 141 141 141 141 141 140 140 140 140 141 141 140 140 140 139 139 139 138 137 136 134 133
128 128 129 129 129 129 129 129 129 129 129 130 130 132 133 133 134 135 136 136 137 138 139 139 139 139 139 140 140 141 142 142 142 142 142 141 141 140 139 138 136 136
124 125 125 125 125 125 125 125 125 126 126 126 127 128 129 130 130 131 132 132 133 134 135 135 135 135 135 135 136 136 137 137 137 137 136 136 135 134 133 132 131 132
122 123 123 123 123 123 123 123 123 123 123 124 125 125 126 127 128 128 129 129 130 130 131 131 131 132 132 132 131 132 132 132 131 131 130 129 129 128 128 127 126 126
120 121 121 122 122 123 123 123 122 122 122 122 123 123 124 125 125 126 127 127 127 128 128 128 128 129 129 129 128 128 127 127 127 126 126 124 123 123 122 122 122 122
118 119 119 121 122 122 123 123 123 123 122 122 122 122 122 122 123 124 125 125 126 126 126 127 127 127 127 127 127 126 125 124 124 123 123 122 121 120 119 118 118 118
114 116 117 119 121 122 122 122 123 123 123 122 122 122 121 121 121 122 123 124 124 124 125 126 126 127 127 127 126 125 124 123 122 121 121 121 120 119 118 117 116 116
111 112 114 116 118 120 121 121 122 122 122 122 122 122 122 121 120 120 121 122 122 122 122 123 124 126 127 128 127 126 125 123 122 120 120 119 119 119 119 118 117 116
108 110 111 113 115 117 118 119 120 121 122 122 122 122 122 121 121 120 119 120 120 120 120 120 121 123 125 127 127 126 125 123 121 120 119 118 118 118 118 118 118 117
106 107 107 109 111 113 114 116 117 119 120 121 121 121 121 121 121 120 120 119 119 119 119 118 118 120 123 124 125 126 125 123 121 119 118 117 117 117 117 118 118 118
103 104 104 105 107 109 111 112 114 115 116 118 119 119 119 120 120 120 120 120 120 120 119 118 117 119 121 122 122 123 124 123 121 118 117 116 116 116 117 117 117 117
101 102 102 103 105 107 108 109 111 112 113 115 116 116 116 117 118 119 119 119 120 120 120 119 118 118 120 121 121 121 121 121 120 119 117 115 115 116 116 116 116 116
98 99 100 101 103 105 107 107 108 109 111 113 114 114 114 115 116 116 116 117 117 118 119 119 119 118 119 121 122 122 121 119 118 118 116 115 115 116 116 116 115 115
96 97 98 99 100 101 103 104 105 106 108 110 112 113 113 114 115 115 115 114 115 115 116 117 117 117 118 120 121 122 122 120 117 116 115 115 116 116 116 115 114 114

ECMWFNIL_250_spd_024.txt.gz
Wind_Speed
97 97 97 98 98 98 98 99 99 99 99 99 100 100 100 100 100 100 99 99 98 98 98 98 98 98 98 98 97 96 96 95 95 94 94 94 94 93 92 90 88 87
102 102 102 102 103 103 103 103 103 103 104 104 104 105 105 105 105 105 104 104 103 103 102 102 102 102 103 103 102 101 100 100 99 99 98 97 97 97 96 95 94 92
107 107 107 107 107 107 107 107 107 108 108 109 109 110 110 110 110 110 110 109 109 108 107 107 107 107 107 107 107 106 105 105 104 104 102 101 100 100 99 99 98 96
113 113 113 113 113 113 113 113 113 113 113 113 114 114 115 115 115 115 115 114 113 113 112 112 112 112 111 111 111 111 110 109 109 109 107 106 105 104 104 103 102 100
118 118 118 118 119 119 119 119 120 120 120 119 119 118 119 119 120 121 121 120 119 118 117 117 116 116 116 115 115 115 115 114 113 112 111 111 110 109 109 108 107 105
122 122 123 123 123 124 124 125 125 126 127 127 126 125 125 124 125 125 126 126 126 125 123 122 121 120 120 119 119 118 118 118 118 117 116 115 114 114 113 113 112 111
127 127 127 127 127 128 128 129 130 130 131 131 132 132 131 131 130 129 130 131 131 131 130 128 127 126 124 123 123 122 122 122 121 121 120 119 119 118 118 117 116 116
132 132 131 131 131 132 132 133 134 134 135 135 135 136 136 136 136 135 135 135 135 135 135 134 133 132 130 128 127 126 126 126 125 124 124 123 123 122 122 121 121 120
135 135 135 135 136 136 136 137 137 138 138 139 139 139 140 140 141 141 140 138 138 137 138 138 138 138 137 135 133 131 130 129 129 129 128 127 127 127 126 126 125 124
139 139 139 139 139 139 140 140 141 142 142 143 143 143 144 144 144 144 143 142 141 140 140 140 141 141 141 141 139 137 135 134 133 133 132 132 132 131 131 130 129 129
141 141 141 141 142 142 142 143 144 145 145 146 146 146 146 146 145 145 144 143 143 142 142 141 142 143 144 144 144 143 141 140 138 137 136 136 136 135 135 135 134 133
141 141 141 142 143 143 144 145 145 146 146 147 147 147 146 146 145 144 143 143 143 143 143 143 143 143 144 145 146 146 145 144 143 142 141 140 139 139 138 138 138 138
138 139 140 141 142 143 143 144 145 145 145 145 145 145 144 143 142 141 140 140 141 141 142 143 143 144 144 145 146 147 147 146 145 145 144 143 142 142 141 141 140 140
135 136 137 138 139 140 141 141 142 142 142 142 141 140 140 139 138 137 137 136 137 138 139 140 141 142 143 144 145 146 146 146 146 146 145 145 144 144 143 143 142 142
131 132 132 133 134 135 136 137 137 138 138 139 138 137 136 135 134 133 133 132 133 133 135 136 137 138 140 141 143 144 144 145 145 145 145 145 145 145 144 144 143 143
126 126 127 127 128 130 131 132 133 134 135 136 136 136 135 134 132 131 130 129 129 129 129 130 131 133 135 137 138 139 141 141 141 141 142 143 143 143 143 143 143 143
121 121 122 123 124 125 127 128 129 131 132 133 134 134 133 132 131 130 129 128 127 127 126 126 126 127 129 131 133 134 136 137 137 137 137 138 138 139 139 140 140 141
116 116 117 117 119 120 121 123 124 126 127 129 130 131 131 130 130 129 129 128 127 126 125 124 124 124 124 126 127 129 130 132 133 133 133 133 133 133 134 134 135 135
110 110 111 111 112 114 114 115 117 118 120 122 123 125 126 127 127 127 128 127 127 127 125 124 123 123 123 123 124 125 126 127 128 128 129 129 129 128 129 129 129 130
108 108 108 108 108 109 109 110 110 112 113 115 116 118 119 121 122 123 124 125 126 126 125 124 123 123 123 123 123 123 124 124 124 124 124 125 125 125 125 125 125 125
106 106 106 106 106 106 106 106 107 108 108 109 111 112 113 115 116 117 119 120 121 122 123 122 122 122 123 123 123 123 124 124 123 121 120 120 121 122 122 122 122 122
102 102 103 103 103 103 103 103 104 105 106 106 108 109 110 111 112 113 114 116 117 118 119 119 119 120 121 122 122 122 123 123 123 121 119 117 117 117 119 120 120 120
98 98 98 98 99 100 100 100 101 102 103 104 105 106 107 108 110 111 111 112 113 114 116 117 116 116 118 119 120 121 121 122 122 121 119 117 115 115 115 116 117 118
95 95 94 94 95 95 96 97 98 99 100 101 102 103 104 105 107 108 109 110 111 112 113 114 114 114 115 117 118 119 120 120 120 119 118 116 114 114 114 115 115 116
92 92 92 91 91 92 92 93 94 96 97 98 99 100 100 101 103 105 106 107 108 109 110 111 112 112 113 115 117 118 119 119 118 117 116 114 113 112 113 114 114 113
90 90 90 90 90 89 89 90 90 92 93 94 96 97 97 98 99 101 103 103 105 107 107 108 109 109 111 113 116 117 118 119 118 115 113 112 112 112 112 112 112 112

ECMWFNIL_250_spd_027.txt.gz
Wind_Speed
110 110 110 110 108 107 105 103 101 100 99 99 98 99 99 99 99 100 101 101 101 100 100 99 99 99 98 98 98 97 97 97 96 95 95 94 94 93 92 91 91 91
114 114 114 114 114 113 112 110 109 107 106 105 104 103 103 103 103 104 105 105 106 106 105 105 104 104 103 103 102 102 102 102 101 100 99 99 98 98 97 96 95 95
117 118 119 119 119 119 118 117 116 115 113 112 110 109 109 109 108 109 109 109 110 110 110 110 109 108 107 107 107 106 106 106 106 105 104 103 103 103 102 101 100 99
119 120 121 123 123 124 124 123 123 122 121 119 118 116 115 114 114 114 114 114 114 114 114 113 113 112 112 111 111 111 111 111 110 110 109 108 108 107 107 106 105 104
123 123 124 125 125 127 127 128 128 128 127 126 125 124 122 121 120 119 119 119 118 119 118 118 118 118 117 117 117 116 116 116 116 115 114 114 113 112 111 110 110 109
127 127 128 128 128 129 129 130 131 131 131 131 130 130 129 128 127 126 125 124 124 124 124 124 124 124 124 123 122 122 121 121 120 120 120 119 119 118 117 116 115 114
130 130 131 132 132 132 132 133 134 134 135 135 135 134 134 134 133 132 131 131 130 130 130 130 130 129 129 129 128 127 127 126 126 125 125 125 125 124 124 123 121 119
131 132 133 134 135 136 136 136 137 137 138 138 139 139 139 138 138 138 138 137 136 136 136 136 136 135 135 135 134 134 133 133 132 131 131 130 130 130 129 129 127 126
130 131 132 134 136 137 138 139 139 140 141 141 142 143 143 143 143 142 143 143 142 142 142 141 141 141 141 141 141 140 139 139 138 137 136 135 135 134 134 133 132 131
129 130 131 132 134 135 137 138 140 141 142 143 144 145 147 148 148 147 147 147 147 148 148 147 147 146 146 146 146 146 145 144 143 142 141 140 139 139 139 138 137 136
126 127 129 130 131 133 134 136 137 139 140 142 143 145 147 149 151 152 152 151 151 151 152 152 152 152 152 151 151 150 150 149 148 148 147 146 145 144 144 143 142 141
123 124 126 127 129 130 131 132 134 135 136 138 140 141 143 146 149 151 153 154 154 154 155 155 156 156 156 156 156 155 155 154 153 153 152 152 151 150 150 149 147 146
120 121 123 124 126 127 128 130 131 132 133 134 136 137 139 141 143 146 149 151 153 155 156 157 158 158 159 159 159 160 159 159 158 158 157 157 156 156 155 154 153 151
119 120 121 122 123 124 126 127 128 129 130 131 133 134 135 137 138 140 142 145 148 151 153 156 158 159 160 161 161 162 162 162 161 161 161 161 160 160 159 159 158 156
117 118 120 121 121 122 123 124 126 127 128 129 130 131 132 132 133 134 136 138 140 143 146 149 152 154 157 159 161 162 163 163 163 163 163 163 162 162 161 160 160 159
114 115 117 118 119 120 121 122 123 124 125 126 127 128 129 129 129 130 131 132 133 135 137 139 142 145 148 151 154 157 158 160 160 161 161 160 160 159 158 158 157 157
109 110 112 114 115 117 118 119 120 121 122 123 124 125 126 127 127 127 128 128 129 129 130 131 133 135 138 141 144 146 149 150 151 152 153 153 152 152 151 151 151 150
104 105 107 108 110 112 113 114 115 117 118 119 120 121 122 123 124 124 125 126 126 126 127 127 128 129 131 134 136 138 139 141 141 142 142 142 142 142 141 141 140 140
101 102 102 104 106 107 108 110 111 112 113 114 115 116 117 118 119 120 121 122 123 124 124 124 125 127 129 131 133 134 135 136 136 135 134 133 133 133 133 132 132 132
99 99 99 100 101 102 104 105 106 107 109 110 111 112 112 113 114 115 117 118 119 120 120 120 121 123 125 127 129 130 132 133 133 132 131 129 129 128 128 127 127 127
97 97 97 98 98 99 99 100 101 102 104 105 106 107 108 109 110 111 112 114 115 117 117 117 117 119 121 123 125 126 127 128 128 127 126 125 124 124 124 123 123 123
94 94 94 95 95 96 96 97 97 98 98 99 100 101 102 104 105 106 107 109 110 112 114 114 114 116 119 121 122 123 124 124 124 123 121 120 119 119 119 119 119 119
91 91 91 91 92 93 93 94 94 94 95 95 95 95 96 98 99 100 101 103 105 107 110 110 110 112 115 118 119 120 121 122 121 120 119 117 115 115 115 116 116 116
88 88 89 89 90 91 91 91 92 92 92 93 92 91 91 92 94 95 96 98 101 103 105 106 106 107 111 114 115 117 118 118 118 117 116 115 114 114 114 113 113 113
87 87 88 88 89 89 90 90 90 91 91 90 90 89 89 90 91 92 92 94 97 99 100 101 102 103 106 109 111 112 114 114 114 113 113 113 113 113 112 112 111 110
88 88 87 88 88 88 89 89 89 89 89 89 89 89 89 90 91 91 91 92 94 96 96 98 98 99 101 104 106 107 109 110 110 109 109 109 110 110 109 109 109 109

ECMWFNIL_250_spd_030.txt.gz
Wind_Speed
118 118 117 117 116 115 115 116 117 118 118 118 117 116 114 113 111 110 110 109 109 108 108 108 108 108 108 107 107 106 106 105 104 103 103 102 102 102 102 101 100 99
122 122 122 122 122 122 121 120 120 121 121 122 122 122 121 120 119 117 116 115 114 114 114 113 113 113 112 111 111 110 109 109 109 108 107 106 106 106 106 105 104 103
123 124 125 126 126 127 127 126 125 125 125 125 125 125 125 125 125 125 124 122 121 120 119 119 118 117 117 117 116 115 114 113 113 112 112 111 111 110 110 109 109 108
120 121 124 126 128 129 130 130 130 130 129 129 129 129 129 129 129 129 129 129 128 127 127 126 125 123 122 121 121 120 119 119 118 118 117 116 116 115 114 114 113 113
116 117 119 122 124 127 129 131 132 133 133 133 132 132 132 133 133 133 133 133 132 132 132 132 132 131 130 129 127 126 125 124 124 123 122 121 121 120 119 118 117 117
113 114 115 117 120 123 126 128 130 132 133 134 135 135 135 135 135 135 136 136 137 137 136 136 136 136 136 136 135 134 133 131 130 129 127 126 126 125 124 123 122 121
111 112 113 115 116 118 121 124 126 129 131 132 134 136 136 137 137 137 138 138 139 140 141 140 140 140 140 140 140 140 139 138 137 136 134 133 131 130 129 128 127 126
110 111 112 113 115 116 118 120 122 124 126 128 130 133 134 136 137 138 139 139 140 141 142 143 144 144 144 143 143 143 143 143 142 141 141 140 138 137 135 133 132 131
110 111 112 113 114 115 116 117 119 120 122 124 126 128 130 132 134 135 137 138 139 140 142 143 144 146 147 147 146 146 146 146 146 146 145 144 143 143 142 140 138 137
110 111 112 113 114 115 115 117 118 119 120 121 122 124 126 127 129 131 132 134 136 137 139 141 143 144 146 148 150 150 150 149 149 149 149 148 147 147 146 146 145 143
109 110 111 112 113 114 115 116 117 118 119 120 121 122 123 125 126 127 128 129 131 133 135 137 139 141 143 145 148 150 152 153 153 153 152 151 151 150 150 150 149 148
108 109 110 111 112 113 114 115 116 117 118 119 120 121 122 123 124 125 126 127 128 129 131 132 134 136 138 140 143 146 149 151 153 155 156 155 154 154 153 153 152 152
105 106 107 108 109 111 112 113 114 116 117 118 119 120 121 123 124 125 126 127 127 128 129 130 131 132 134 136 138 140 142 145 147 150 152 155 157 157 157 156 155 154
101 102 103 104 106 107 108 110 111 113 114 116 117 119 120 121 122 124 125 126 127 127 128 129 129 130 131 133 134 135 136 138 139 141 144 147 150 153 156 158 158 158
98 99 100 101 102 103 105 106 107 109 110 112 114 115 117 118 120 121 122 124 125 126 127 128 128 129 130 131 132 132 133 133 134 134 136 137 139 142 146 150 153 156
95 96 97 98 99 100 102 103 104 105 106 108 109 111 112 114 115 117 118 119 120 122 123 124 126 127 129 130 131 131 131 131 130 130 130 130 131 133 135 138 141 144
95 95 96 97 98 99 100 100 101 103 104 105 106 107 108 109 110 112 113 114 116 116 118 119 121 123 125 127 128 129 129 128 128 127 127 127 127 127 128 130 132 134
94 95 95 96 97 97 98 99 100 101 102 103 104 105 106 107 108 108 109 111 112 112 113 114 116 118 120 122 123 124 125 125 124 124 124 125 125 126 126 126 127 129
93 94 94 94 95 96 96 97 98 99 99 100 101 102 103 104 105 106 107 108 109 110 110 111 112 115 117 118 118 119 120 121 120 119 119 120 121 122 123 124 125 126
92 92 92 93 93 94 94 95 96 96 96 97 97 97 98 99 100 102 103 105 106 107 107 108 110 113 114 115 115 116 116 116 115 114 114 115 116 117 119 120 121 122
91 91 91 91 92 92 93 93 94 94 94 94 95 95 96 96 97 98 99 100 101 102 102 103 106 109 111 112 113 113 113 112 111 111 111 111 112 114 116 117 118 119
91 90 91 91 91 91 92 92 92 92 92 93 93 94 94 95 95 96 97 97 98 98 99 99 101 105 106 106 107 109 110 110 110 110 109 109 110 111 112 113 114 115
90 90 90 91 91 91 91 91 91 92 92 92 92 92 93 94 94 95 95 95 95 96 97 97 99 101 102 101 102 104 105 106 107 108 108 108 108 109 110 110 111 111
89 89 90 90 90 90 90 90 91 91 91 91 91 91 92 93 93 93 93 94 94 95 97 97 97 98 99 99 100 101 101 101 102 103 104 105 105 107 108 109 109 109
88 89 89 89 89 89 89 90 90 90 90 90 90 90 91 91 91 91 91 93 94 95 96 95 95 96 97 97 98 99 98 98 98 98 99 100 101 102 104 105 106 107
88 88 88 88 88 88 88 89 89 89 89 90 90 90 89 89 90 90 90 92 94 95 95 94 94 95 96 96 97 97 96 96 96 96 96 96 97 97 98 100 101 102

ECMWFNIL_250_spd_033.txt.gz
Wind_Speed
112 112 112 113 114 115 116 118 119 120 121 122 123 124 125 125 125 125 126 126 126 126 125 125 124 123 122 122 122 122 122 122 121 121 121 120 119 118 117 116 116 115
113 112 112 113 114 115 116 117 118 119 120 122 123 124 126 127 128 129 130 130 130 130 130 130 129 128 128 127 127 126 126 126 126 125 125 125 124 123 122 121 120 119
113 112 112 112 113 114 114 115 116 117 118 119 121 122 124 125 127 129 131 132 133 134 134 134 133 133 133 132 132 132 131 131 131 130 130 129 129 128 127 126 125 124
112 112 112 112 112 112 113 113 114 115 116 117 118 119 121 123 124 126 128 131 133 135 136 137 137 137 137 137 137 137 136 136 135 135 135 134 134 132 131 131 129 128
111 111 110 110 111 111 111 112 113 113 114 115 116 117 118 120 121 123 125 127 129 131 134 136 138 139 140 141 141 141 141 140 139 139 138 138 138 137 136 135 133 132
110 110 109 109 109 110 110 111 112 113 114 115 116 116 117 118 119 121 122 124 126 128 130 132 135 137 140 142 143 144 145 145 144 143 142 141 141 141 141 139 138 136
111 110 110 110 110 110 110 111 112 112 113 114 115 116 117 117 118 119 120 121 123 125 127 129 131 134 136 139 141 144 146 147 147 147 147 146 145 144 144 144 143 141
111 111 111 111 111 111 111 112 112 112 113 114 114 115 116 117 117 118 119 119 121 122 123 125 127 129 132 134 137 139 142 144 146 148 149 149 149 148 147 147 147 145
112 111 111 111 111 111 111 112 111 112 112 112 113 114 114 115 116 117 117 118 119 120 121 122 124 125 127 128 130 132 135 138 141 143 146 148 149 150 150 150 149 149
112 111 111 111 111 111 110 110 110 110 110 110 111 111 112 113 114 115 116 117 118 119 120 121 122 123 124 124 125 126 128 129 132 135 137 140 144 147 149 150 150 150
109 109 108 108 107 107 106 106 106 106 106 107 107 108 109 110 111 112 113 114 115 117 118 119 121 122 122 122 123 123 124 124 125 127 129 131 133 137 141 144 147 149
105 103 102 102 101 101 101 101 101 101 102 102 103 104 105 106 107 108 110 111 112 113 115 116 118 119 120 121 122 122 123 123 123 123 124 125 126 128 130 134 138 141
99 98 98 97 97 97 97 97 97 98 98 99 100 101 102 103 104 105 106 108 109 110 111 113 114 116 117 118 119 120 121 122 122 122 122 122 123 124 125 126 128 131
96 96 96 95 95 95 95 95 95 96 96 97 98 99 100 100 101 102 104 105 106 107 108 110 111 112 113 115 116 117 118 119 120 120 121 121 122 123 123 124 125 126
95 95 95 94 94 94 94 94 94 95 95 96 97 97 98 99 100 101 102 103 104 106 107 108 109 110 111 112 113 114 115 115 116 117 118 119 119 120 122 123 124 125
94 94 94 94 94 94 94 94 94 94 95 95 96 97 98 98 99 100 101 102 102 104 105 106 107 108 109 110 110 111 112 112 112 113 114 115 116 117 118 120 122 123
93 93 93 93 93 93 93 94 94 94 94 95 95 96 97 97 98 99 99 100 100 101 102 104 105 106 107 107 108 109 109 109 109 109 110 111 112 113 114 116 117 119
93 93 93 93 93 93 93 93 93 93 93 93 94 94 95 95 96 97 97 97 98 99 100 101 102 103 105 105 106 107 107 106 105 105 106 107 109 110 111 111 113 114
92 92 92 92 92 91 91 91 91 91 91 91 91 92 92 93 94 94 95 95 96 96 97 98 99 100 102 103 103 104 104 103 102 102 102 104 105 106 107 108 109 110
91 90 90 89 89 89 89 89 89 89 89 89 89 89 90 91 91 92 92 93 94 94 94 95 97 98 99 100 100 100 100 100 100 100 100 101 102 103 104 104 105 106
89 88 88 88 88 88 88 88 88 89 89 88 88 88 89 89 90 90 91 92 92 92 92 93 94 96 96 96 96 97 97 97 97 97 98 98 99 101 102 102 102 102
88 88 88 88 88 88 89 89 89 89 89 88 88 89 89 89 90 90 90 91 91 91 91 91 93 93 93 93 94 94 94 94 94 94 94 96 97 99 100 100 100 100
89 89 89 89 89 89 89 89 89 88 88 88 88 89 89 89 90 90 90 91 91 92 91 91 91 92 92 92 92 92 91 90 90 91 91 93 95 97 97 98 98 99
89 89 88 88 88 88 88 88 88 88 88 88 88 88 89 89 89 89 90 91 91 91 91 90 90 91 91 91 91 90 88 87 87 88 89 90 92 93 95 95 96 97
89 89 88 88 88 88 88 88 88 88 88 88 88 88 88 89 89 89 90 91 91 91 90 89 89 90 91 90 89 87 86 85 85 85 86 88 89 90 92 93 94 94
89 89 89 89 89 89 89 88 88 87 87 87 87 86 86 87 88 88 88 90 90 90 89 89 88 89 90 89 87 85 84 83 83 83 84 85 86 87 89 90 91 91

ECMWFNIL_250_spd_036.txt.gz
Wind_Speed
105 104 103 102 101 101 102 103 103 104 105 106 107 108 109 110 111 112 113 114 116 117 119 121 123 125 126 128 129 129 130 131 131 131 131 131 131 131 130 130 129 129
106 104 103 102 101 101 102 102 103 104 104 105 106 107 108 109 110 111 113 114 115 116 118 119 121 123 124 126 128 129 131 132 133 134 135 135 135 135 135 134 134 133
105 103 102 101 101 101 101 102 103 103 104 105 106 107 108 109 110 111 112 114 115 117 118 119 120 122 123 125 126 128 130 131 133 135 136 138 138 138 138 139 138 138
104 103 101 101 100 101 101 102 103 103 104 105 106 107 108 109 110 111 113 114 115 117 118 120 121 122 123 124 125 127 128 130 132 134 135 137 139 140 141 141 142 142
104 103 101 101 100 101 101 102 103 104 105 105 106 107 108 109 111 112 113 114 115 117 118 119 120 121 122 123 124 126 127 129 130 132 134 135 137 139 140 141 142 144
104 103 101 101 101 101 101 102 103 103 105 105 106 107 108 109 110 111 112 114 115 116 117 118 119 120 121 122 123 124 125 127 128 130 131 132 134 136 138 139 140 142
104 103 102 101 101 101 102 102 103 104 104 105 106 107 108 109 110 111 112 113 114 115 116 116 117 118 119 120 121 121 123 124 125 126 127 129 130 132 134 135 137 138
104 103 103 103 103 104 104 104 105 105 106 106 107 108 108 109 110 111 112 113 113 114 114 114 115 115 116 117 118 118 119 120 121 122 123 124 125 127 129 131 132 134
104 105 105 105 106 106 106 107 107 107 107 107 108 108 108 108 108 109 109 110 110 110 111 111 111 112 112 113 113 114 115 116 117 117 118 119 120 122 123 125 127 128
105 105 105 106 106 106 106 106 106 106 106 106 106 105 105 105 104 104 104 105 105 105 106 106 107 107 107 108 109 109 110 111 112 113 114 115 116 117 119 120 122 123
107 106 105 105 104 104 103 102 102 101 101 101 101 101 100 100 100 100 100 100 101 101 102 103 103 104 104 105 105 106 106 107 108 109 110 111 112 113 115 116 117 119
107 105 104 102 101 100 98 97 97 97 97 97 97 97 97 97 97 98 98 98 99 99 100 101 101 102 103 103 104 104 104 105 105 106 107 108 109 110 112 113 114 115
104 102 100 98 97 96 95 95 95 95 95 95 95 95 95 96 96 97 97 98 98 99 99 100 100 101 102 102 102 103 103 103 104 104 105 106 106 108 109 110 111 112
100 98 96 95 94 94 94 94 95 95 95 95 95 95 96 96 97 97 98 98 99 99 99 100 100 101 101 102 102 102 102 102 103 104 104 104 105 106 107 108 109 109
96 95 95 94 94 94 94 94 95 95 95 95 95 95 95 96 96 97 97 98 98 98 99 99 100 100 101 101 101 101 101 101 102 102 103 103 104 105 106 107 107 107
95 95 94 94 94 94 94 94 95 94 94 95 95 95 95 95 95 95 95 96 96 96 97 98 98 99 100 100 100 100 99 99 100 100 101 102 102 103 104 105 106 106
95 94 94 94 94 94 94 94 94 94 94 94 94 94 93 93 93 93 93 93 93 94 95 95 96 97 98 98 98 98 97 97 97 98 98 99 99 100 100 101 103 104
95 94 94 94 94 94 93 93 93 93 93 93 92 92 91 91 91 91 91 91 91 91 92 92 94 95 96 96 96 96 96 95 95 95 96 97 97 97 98 99 100 101
95 94 94 94 94 93 93 93 93 92 92 91 90 90 90 90 89 89 89 89 89 89 89 90 91 92 93 93 93 93 93 93 93 93 94 95 95 96 97 98 98 99
95 94 94 94 94 93 93 92 91 90 89 89 88 88 89 89 89 89 89 88 88 88 88 89 90 90 90 90 90 90 90 90 89 90 90 91 93 94 95 96 97 98
95 94 94 94 93 92 91 90 89 88 88 87 88 88 89 89 89 89 89 89 88 88 88 89 90 90 89 89 88 88 87 86 86 86 87 88 89 91 92 93 94 96
95 94 93 93 92 91 90 89 89 88 87 87 88 88 88 88 88 88 89 89 89 88 88 89 90 90 89 88 87 85 84 82 82 82 83 84 86 87 88 89 91 92
95 94 93 92 91 90 90 89 88 87 87 87 87 88 88 88 88 88 88 88 88 88 87 87 88 89 88 86 85 83 80 79 79 79 80 81 83 84 85 86 87 89
95 94 93 92 91 90 89 88 87 86 86 86 87 87 87 87 87 86 86 87 87 86 86 86 86 87 87 85 83 81 79 78 78 78 80 81 81 82 82 83 84 85
94 94 93 92 91 89 88 87 86 86 86 86 86 86 85 85 85 85 85 86 86 86 85 85 85 86 86 84 82 80 79 79 79 79 80 81 81 81 82 82 82 83
93 92 92 91 90 88 88 87 86 85 85 85 85 85 84 84 84 84 84 85 85 85 85 85 84 85 85 83 80 79 79 79 78 79 79 80 80 80 81 81 81 82

ECMWFNIL_250_spd_039.txt.gz
Wind_Speed
115 118 120 121 120 120 118 116 114 112 109 107 105 102 100 98 96 95 95 95 95 95 96 98 100 102 104 106 108 110 112 114 116 118 120 122 123 125 126 127 128 130
120 122 123 123 122 121 118 116 113 111 108 106 103 101 99 98 96 95 95 95 95 95 96 97 99 101 103 105 107 109 112 114 116 118 119 121 122 124 125 126 128 129
123 124 125 124 123 121 118 116 113 110 107 104 102 100 99 98 97 96 96 96 96 96 96 97 99 100 102 104 106 108 110 112 114 116 118 120 122 123 124 126 127 128
126 126 126 125 123 121 118 115 112 109 106 103 101 100 98 98 97 97 97 97 98 98 99 99 100 101 102 103 105 107 109 111 113 115 117 119 121 122 123 125 126 127
128 128 127 125 123 121 118 116 112 108 105 102 100 99 98 99 99 99 99 100 100 101 101 102 102 103 104 104 105 107 108 110 112 114 115 117 119 121 122 124 125 126
130 129 127 125 123 121 118 115 110 106 103 101 100 99 99 100 100 101 101 101 102 102 103 104 104 105 105 106 107 108 109 110 111 113 114 116 118 119 120 122 123 124
130 129 126 124 123 120 116 111 107 104 102 101 101 101 101 101 101 101 101 102 102 102 102 103 104 105 105 106 107 108 109 110 111 112 113 115 116 117 119 120 120 121
130 128 126 124 121 117 112 108 105 103 102 101 101 101 100 100 100 100 100 100 100 100 100 101 101 102 103 103 104 105 106 107 108 110 111 113 114 115 116 117 118 119
130 128 126 122 118 113 109 106 104 103 102 101 100 99 98 97 97 97 97 97 97 97 97 97 98 98 99 99 100 100 101 102 103 104 105 107 109 110 112 113 114 115
130 127 124 119 114 110 107 105 104 102 101 99 98 97 96 95 95 94 94 94 94 95 95 95 95 95 96 96 96 97 97 98 99 100 101 102 103 105 106 107 108 110
130 126 121 116 111 109 107 105 103 101 99 98 97 96 95 95 94 94 94 94 94 94 94 94 94 95 95 95 95 95 95 96 97 97 98 100 101 102 102 103 104 105
128 123 117 113 110 108 106 104 102 100 98 97 97 96 96 95 95 94 94 94 94 94 94 94 95 95 95 95 95 95 95 96 96 97 97 98 99 100 101 102 103 103
125 119 114 111 109 106 104 102 100 99 98 97 97 96 96 95 95 95 94 94 94 94 94 95 95 95 95 95 95 95 95 96 96 97 97 98 99 100 100 101 101 102
120 115 112 110 107 105 102 100 99 99 98 97 97 96 96 95 95 95 94 94 94 94 95 95 95 95 95 95 95 95 95 96 97 97 98 98 99 99 100 100 101 101
117 113 111 108 105 103 101 100 100 99 98 97 97 96 95 95 95 94 94 94 94 95 95 95 95 95 95 95 95 95 95 96 96 96 97 97 98 98 99 99 100 100
115 112 109 106 104 103 102 101 100 99 98 97 96 95 95 94 94 94 93 93 93 94 94 94 95 95 95 94 94 94 94 94 95 95 95 95 96 96 97 98 98 98
113 110 107 105 104 103 102 101 100 99 98 97 95 95 94 93 93 92 92 92 92 92 93 93 93 93 93 93 93 93 92 92 92 93 93 94 94 94 95 96 97 97
111 108 106 105 104 103 102 100 99 98 97 96 95 94 93 92 92 91 91 91 90 90 90 91 91 91 91 91 90 90 89 89 89 90 90 91 91 92 93 93 94 94
109 107 106 105 104 102 101 99 98 97 96 94 94 93 92 91 91 90 90 89 89 88 89 89 89 89 88 88 88 87 86 86 86 87 87 87 88 88 89 89 90 91
109 108 106 105 103 101 100 98 97 96 94 93 92 92 91 90 89 89 88 87 87 87 87 88 88 88 87 86 86 85 84 84 84 84 85 85 86 86 86 86 87 88
109 108 106 104 102 101 99 98 96 95 93 92 91 90 89 89 88 87 86 86 86 86 87 88 88 87 86 85 85 84 83 83 83 83 83 84 84 83 83 84 85 86
109 107 105 103 102 100 99 97 96 94 93 91 90 89 88 87 86 86 85 85 85 86 86 87 87 86 85 85 84 83 82 82 82 82 82 82 82 82 81 82 83 84
109 107 105 103 101 100 98 97 95 94 92 90 89 87 86 86 85 84 84 84 84 84 84 85 85 85 84 84 83 82 81 81 81 81 81 81 80 80 80 81 81 82
108 106 104 102 101 99 97 96 94 93 91 89 87 86 85 84 83 83 83 82 82 83 83 83 84 84 83 83 82 81 80 79 79 79 79 79 78 79 79 80 80 80
106 105 103 101 99 97 96 95 93 91 89 88 86 85 84 83 82 82 82 82 82 83 83 83 83 83 82 81 81 80 79 78 78 78 78 77 77 78 78 79 79 79
104 102 100 99 97 96 94 93 91 89 88 86 85 84 83 82 82 82 82 83 83 83 83 82 82 82 81 80 80 80 79 77 77 76 76 75 76 77 78 78 78 78

ECMWFNIL_250_spd_042.txt.gz
Wind_Speed
89 89 91 92 95 97 100 102 105 108 111 112 113 114 114 115 114 114 113 112 111 110 110 109 109 108 107 105 104 103 102 102 102 103 103 104 106 107 108 109 111 113
90 92 94 97 100 103 106 109 112 114 115 116 117 118 118 117 116 115 114 113 112 111 110 109 108 106 104 103 102 101 101 101 102 102 103 104 105 107 108 109 111 113
93 96 99 102 105 108 111 114 116 117 119 120 121 120 120 119 118 116 115 115 114 112 111 109 106 104 102 101 100 100 100 101 102 102 103 104 105 107 108 109 111 113
97 100 104 107 111 113 116 118 119 121 122 123 122 122 121 120 119 118 118 116 115 113 110 108 105 103 102 101 101 101 101 101 101 102 103 104 105 106 107 108 110 112
102 105 109 113 116 118 120 121 122 123 123 123 123 122 122 121 121 120 119 117 114 112 109 106 105 103 103 102 101 101 100 100 100 100 100 101 102 103 104 105 107 108
107 111 114 117 119 121 122 123 124 124 124 124 123 123 123 122 121 120 117 115 112 109 107 105 104 102 101 101 100 99 99 98 98 98 98 98 98 99 100 101 102 104
112 115 118 121 123 124 124 125 125 125 125 125 124 124 123 122 120 118 115 112 109 107 105 103 102 100 99 98 97 97 96 97 97 97 97 97 98 98 98 98 99 100
117 120 123 125 126 126 126 126 126 126 126 126 125 124 122 120 118 115 112 109 107 104 103 101 99 98 97 96 96 95 95 95 96 96 96 97 97 98 98 98 98 99
121 124 127 127 127 127 127 127 127 127 127 126 124 123 120 118 115 112 109 107 105 103 101 99 98 97 96 96 95 95 95 95 95 95 96 96 97 97 98 98 99 99
125 128 129 128 128 128 128 128 128 128 126 125 123 121 118 115 112 110 107 105 103 101 100 99 98 97 97 96 96 95 95 95 95 95 96 96 96 97 97 97 98 99
129 129 129 129 129 129 129 129 129 127 125 123 121 118 116 113 110 108 106 103 102 101 100 99 98 97 97 96 96 96 96 96 96 96 96 96 97 97 97 97 98 98
131 131 131 131 131 130 130 129 128 126 124 122 119 116 113 111 109 106 104 102 101 100 100 99 98 97 96 96 96 96 96 96 96 96 97 97 97 97 97 97 97 97
133 133 133 132 132 131 130 128 126 125 123 120 117 114 111 109 107 105 103 102 101 100 99 97 96 95 95 95 95 95 95 95 96 96 96 97 97 97 97 97 97 97
136 136 135 134 132 131 129 127 126 124 120 117 114 111 109 108 106 104 102 101 100 99 97 96 95 94 93 94 94 93 94 94 94 95 95 95 96 96 96 96 96 96
138 137 136 134 132 130 128 126 124 120 117 114 111 109 108 106 105 103 102 100 99 97 96 95 93 93 92 92 92 91 91 92 92 93 93 94 94 95 95 95 95 95
139 138 136 134 131 129 127 124 120 117 114 111 110 108 107 106 104 102 101 99 98 96 95 93 92 91 90 90 89 89 89 89 90 90 91 91 92 93 93 93 94 93
140 139 136 134 132 129 125 120 117 114 112 110 108 108 106 105 103 101 99 98 96 95 93 92 90 89 89 88 87 86 86 86 87 87 88 88 89 89 90 91 91 91
141 139 137 135 131 127 122 118 115 113 111 109 108 107 106 104 102 100 98 96 95 93 92 90 89 88 87 87 86 85 84 84 84 84 85 85 86 86 87 87 88 88
141 139 137 134 129 124 120 117 114 112 110 109 108 106 105 103 101 99 97 96 94 93 91 90 88 88 87 86 85 84 83 83 82 82 83 83 83 84 84 84 85 85
141 139 136 131 126 122 119 116 114 112 111 109 107 106 104 102 100 99 97 95 94 92 91 90 88 88 87 85 84 83 82 82 81 81 82 82 82 82 82 83 83 84
142 138 133 128 125 122 119 116 114 112 111 109 107 105 104 102 100 98 96 95 93 92 91 90 88 88 87 85 84 82 81 81 81 81 81 81 81 81 81 82 82 83
141 136 130 127 124 121 118 116 114 112 111 109 107 105 103 101 99 97 96 94 93 92 91 90 88 87 86 85 83 82 81 80 80 80 80 80 80 80 81 81 82 82
138 133 129 126 122 120 118 116 114 112 110 108 106 104 102 100 98 97 95 94 93 92 91 90 88 87 85 84 82 81 80 79 79 79 79 79 79 79 79 80 80 80
135 131 128 124 122 120 118 116 113 112 109 107 105 103 101 99 98 96 95 94 93 92 90 89 87 86 84 83 81 79 78 78 78 78 78 78 78 78 78 78 78 78
133 129 126 123 122 119 117 115 112 110 108 105 103 101 100 98 97 96 95 94 92 91 89 87 86 84 83 81 79 78 77 77 77 77 77 77 76 76 76 76 76 76
130 127 125 123 120 118 115 113 111 108 106 104 102 100 99 97 96 95 94 93 91 90 88 86 85 83 81 80 78 78 77 77 77 77 77 76 76 75 75 75 75 75

ECMWFNIL_250_spd_045.txt.gz
Wind_Speed
87 88 91 94 97 99 99 99 98 98 97 98 99 99 98 98 98 99 101 103 106 109 112 115 116 117 117 117 116 116 116 116 116 116 116 116 115 115 114 114 113 112
89 91 95 98 100 101 101 100 99 99 99 100 100 99 99 99 100 102 104 107 111 114 117 118 119 118 118 118 117 117 117 116 116 116 115 114 113 112 110 109 109 108
92 95 99 102 103 103 102 102 100 100 101 102 101 101 101 101 103 106 109 112 116 118 120 120 120 120 119 118 118 117 117 117 116 115 113 111 110 108 107 106 105 105
96 100 103 104 105 104 104 102 101 101 103 103 102 102 102 104 106 110 113 117 119 121 121 121 121 120 120 119 119 118 117 115 114 112 110 109 107 106 105 104 103 102
101 103 105 106 106 106 105 103 103 104 105 103 103 103 104 106 110 113 117 120 122 122 122 122 122 121 121 120 119 117 115 114 112 110 109 107 106 104 103 103 102 101
104 105 106 107 107 106 105 105 105 105 104 103 104 105 107 110 114 117 120 122 123 123 123 123 122 122 120 119 117 115 113 112 110 109 108 107 105 104 103 102 102 101
105 107 108 108 107 105 105 106 105 104 104 104 105 107 111 114 117 120 123 124 124 124 124 124 122 121 119 117 115 113 111 110 109 108 107 106 105 104 103 102 102 102
108 109 109 108 106 106 106 106 105 104 104 106 108 111 114 118 121 123 124 125 125 125 125 123 122 120 118 115 113 112 110 109 108 107 106 105 104 104 103 103 102 102
109 109 108 107 106 107 107 105 104 104 106 108 111 114 117 121 123 125 126 127 127 126 124 123 120 118 116 114 112 110 109 108 107 106 105 105 104 104 103 102 102 101
109 108 107 107 107 107 106 105 105 106 108 111 114 117 121 124 126 128 128 128 127 126 124 121 119 116 114 112 110 109 108 107 106 105 105 104 103 103 103 102 102 101
109 108 108 108 108 106 106 105 106 108 111 114 117 121 124 127 129 130 130 129 127 125 123 120 117 115 112 110 109 107 106 105 104 104 103 103 102 102 102 101 101 100
109 109 109 108 107 107 106 107 108 110 113 117 121 125 128 130 131 131 129 128 127 125 122 118 115 113 111 109 107 106 105 104 103 103 102 102 101 101 100 100 99 99
110 109 109 108 107 107 108 109 111 114 118 122 126 129 131 132 131 130 129 128 126 123 119 116 113 111 109 107 106 105 103 102 102 101 100 100 99 99 98 98 97 97
110 109 108 108 108 109 110 112 115 119 123 127 130 132 133 132 131 130 128 126 124 120 116 113 111 109 107 106 105 103 102 101 100 99 98 98 97 96 96 95 95 95
109 108 109 109 110 111 113 117 121 125 128 131 133 134 134 132 131 129 127 124 121 117 114 111 109 108 106 105 103 102 100 99 98 97 96 95 94 94 93 93 92 92
108 109 110 111 113 116 120 124 127 130 133 135 136 135 134 132 130 128 125 122 118 115 112 110 108 107 105 103 101 100 98 97 96 95 94 93 92 91 91 90 90 89
110 112 114 116 119 123 127 130 132 134 136 137 137 136 134 132 129 126 123 119 116 113 111 109 107 105 104 102 100 99 97 96 95 93 92 91 90 89 89 88 87 86
114 116 119 122 126 130 132 134 136 138 139 139 138 136 134 131 128 124 121 118 115 112 110 107 106 104 103 101 100 98 96 94 93 92 91 90 89 88 87 86 85 84
120 122 126 130 133 135 136 138 140 141 141 140 139 137 134 130 126 123 119 117 114 111 109 107 105 104 102 101 99 98 96 94 92 91 90 89 88 87 86 85 84 83
125 128 132 136 138 139 141 142 143 143 143 142 140 137 133 129 125 122 119 116 113 111 108 106 105 104 102 101 99 98 96 94 92 91 89 88 87 86 85 84 83 82
130 134 138 140 142 143 145 146 146 146 145 142 139 135 131 127 124 121 119 116 113 110 109 107 105 104 103 101 100 98 96 94 92 91 89 87 86 84 83 82 81 80
136 140 142 144 146 147 148 149 148 147 146 143 139 134 130 127 124 121 118 116 113 111 109 108 106 104 103 101 99 97 95 93 92 90 88 86 85 83 82 81 80 79
141 144 146 148 149 150 151 151 150 149 146 142 137 132 129 126 124 121 119 116 114 112 110 108 106 104 103 101 99 96 94 92 91 89 88 86 84 82 81 80 79 78
145 147 149 150 152 153 153 153 152 150 145 140 135 131 129 126 124 121 119 117 115 113 110 108 106 104 102 100 97 95 93 91 90 89 87 85 83 82 80 79 78 77
149 150 152 153 154 155 155 154 152 147 142 137 133 130 128 126 124 121 119 117 114 112 109 107 105 103 101 99 96 94 92 90 89 88 86 84 83 81 79 78 77 77
151 153 155 156 156 156 156 153 148 143 138 135 132 129 128 125 123 121 118 116 113 111 108 106 104 102 100 97 95 92 90 89 88 87 85 83 82 80 79 77 77 76

ECMWFNIL_250_spd_048.txt.gz
Wind_Speed
74 75 77 78 79 80 81 82 83 84 86 88 90 92 94 96 98 101 104 106 108 109 110 111 111 111 112 112 113 114 114 114 114 115 117 119 121 123 125 127 129 130
76 77 78 79 79 80 81 83 84 87 89 91 93 95 97 100 102 104 107 109 111 112 113 113 113 113 113 114 115 115 115 115 116 117 119 122 124 126 128 129 131 132
77 78 78 79 80 82 84 87 89 91 93 94 97 99 101 103 105 107 109 112 114 115 115 115 114 114 115 115 115 115 116 117 118 120 122 124 126 128 130 131 132 132
78 79 81 83 85 87 89 91 93 94 96 98 100 102 104 106 108 110 112 114 116 117 117 117 117 117 116 116 116 116 117 119 121 123 125 127 129 130 131 132 132 132
81 83 85 87 89 91 92 94 96 98 100 102 103 105 107 108 110 113 115 117 118 118 118 118 118 118 118 117 117 118 120 122 123 125 127 128 130 131 131 132 131 131
84 86 88 90 92 93 95 97 99 100 102 104 105 107 109 111 113 115 117 119 119 119 119 119 119 119 118 119 119 121 122 124 125 127 128 129 130 131 131 130 129 128
86 88 90 92 94 96 98 99 101 103 104 106 108 110 112 114 116 118 119 119 119 119 120 120 120 119 119 120 121 122 124 125 126 128 129 130 130 130 130 128 127 125
89 91 93 95 97 99 100 102 103 105 107 108 110 113 115 116 118 119 119 119 119 120 120 120 120 120 121 121 122 123 125 126 128 129 130 130 130 129 128 126 123 121
93 94 96 98 100 101 103 104 106 107 109 111 113 115 117 118 119 119 120 120 120 120 121 121 121 121 122 122 123 125 126 127 129 129 130 129 128 126 124 122 120 118
95 97 98 100 102 104 106 107 109 111 113 114 116 117 118 118 119 120 120 120 120 120 121 121 121 121 122 123 124 125 127 128 129 129 129 127 125 123 121 119 117 115
97 99 102 104 106 108 110 111 112 114 115 116 117 117 118 119 120 121 121 120 120 120 120 120 121 122 122 123 125 126 128 128 129 128 126 124 122 119 118 116 114 113
101 103 105 107 110 111 113 113 114 115 116 117 117 118 119 120 120 120 120 119 119 119 120 121 121 122 123 124 126 127 128 128 127 126 123 121 119 117 115 113 112 111
104 106 108 111 113 114 114 115 116 116 117 117 117 118 119 119 119 118 118 118 118 119 120 121 122 124 125 126 127 127 127 126 125 123 120 118 116 114 112 111 109 108
108 110 111 113 115 115 115 116 116 116 115 116 116 117 117 117 116 116 116 117 118 120 121 123 124 126 126 127 127 127 126 124 122 120 118 116 114 112 110 109 107 106
110 112 113 115 115 115 115 115 115 114 115 115 115 115 114 114 114 115 116 118 120 122 124 125 127 128 128 128 127 126 124 122 120 117 115 113 112 110 108 107 105 104
112 113 114 115 115 114 114 114 114 114 113 113 112 112 112 112 114 116 119 121 123 125 127 128 129 129 129 128 126 124 122 120 118 116 114 112 110 109 107 105 103 102
112 113 114 115 114 114 113 113 113 112 111 111 110 111 112 114 117 120 123 124 126 128 130 131 131 130 129 127 124 122 120 118 117 115 112 111 109 107 105 103 101 100
113 113 114 114 113 113 112 112 111 110 110 110 111 112 115 118 122 125 127 128 130 132 133 132 131 130 128 125 122 120 118 117 115 114 112 110 108 106 104 102 100 98
112 113 113 113 112 111 111 111 110 110 111 112 114 116 120 124 127 129 131 132 134 135 134 133 132 129 126 124 121 119 118 116 115 113 110 108 106 104 103 101 99 97
111 111 112 111 111 111 111 111 112 113 114 116 119 122 126 129 132 133 135 136 137 137 135 133 131 128 125 123 121 119 117 116 114 112 109 107 105 104 102 100 98 96
109 110 111 111 111 111 112 113 115 117 119 122 125 128 131 134 136 138 139 140 139 138 136 133 130 126 124 122 121 119 117 116 113 111 109 107 105 103 101 99 97 94
109 110 111 111 112 114 116 118 120 123 125 128 131 134 136 138 140 142 143 142 140 138 135 133 129 126 124 123 121 119 117 115 113 111 108 106 104 102 100 98 95 93
110 112 113 114 116 119 121 124 126 129 131 134 136 138 141 143 144 145 145 144 141 138 135 132 129 126 125 123 121 119 117 115 113 110 107 105 102 100 99 96 94 91
113 114 116 119 121 124 127 129 132 134 137 139 141 144 145 147 148 148 147 144 141 138 135 132 130 127 125 123 121 119 117 115 112 109 106 103 101 99 97 95 92 90
117 119 121 124 127 129 132 135 137 139 142 144 146 148 150 151 151 150 148 144 140 137 134 132 130 128 125 123 121 119 116 113 110 107 104 101 99 97 95 93 91 88
122 124 126 129 132 134 137 140 142 144 146 149 151 152 153 153 153 151 148 143 139 136 134 132 130 128 125 123 120 118 115 111 108 105 102 99 97 96 94 91 89 86

ECMWFNIL_250_spd_051.txt.gz
Wind_Speed
67 68 69 70 71 73 74 75 75 75 75 76 77 78 80 82 84 86 88 90 92 93 95 96 97 98 100 101 103 105 107 109 111 113 115 117 119 121 123 124 125 126
68 69 71 72 74 75 76 76 76 77 77 78 79 81 82 84 86 88 90 92 93 95 96 98 99 100 102 104 106 108 110 112 114 117 119 121 122 124 125 125 126 127
71 72 74 75 76 77 77 78 79 79 80 81 81 82 84 86 88 90 92 94 96 97 98 100 101 103 105 107 109 111 113 116 118 120 121 123 124 124 125 126 127 129
74 75 76 77 78 78 79 80 80 81 82 82 83 84 86 88 90 92 94 96 98 99 100 102 104 106 108 110 112 114 117 119 121 122 123 124 124 125 126 127 128 130
76 77 78 78 79 80 80 81 82 82 83 84 85 87 89 91 93 94 96 98 100 101 103 105 107 109 111 113 115 117 119 121 122 122 123 123 124 125 126 128 129 131
78 78 79 79 80 80 81 82 83 84 85 86 88 89 91 93 94 96 98 100 102 104 107 109 111 113 114 116 117 119 120 121 122 122 123 123 124 125 127 128 129 130
79 79 80 80 81 81 82 83 84 85 87 89 90 92 93 95 96 98 101 103 105 108 110 112 114 115 116 117 118 119 120 121 121 122 123 124 125 126 127 128 129 130
80 80 81 81 82 83 84 85 86 88 89 91 92 94 95 97 99 102 104 106 109 111 113 114 115 116 117 117 118 120 120 121 121 122 123 124 125 125 126 127 129 131
81 81 82 83 84 85 86 88 89 90 92 93 95 96 98 101 103 105 108 110 112 113 115 116 117 117 118 119 120 121 122 122 122 123 123 124 124 125 126 128 130 132
81 82 83 84 86 88 89 90 92 93 95 96 98 100 102 104 106 109 111 112 114 115 117 117 118 119 120 121 122 123 123 122 123 123 123 124 125 125 127 129 131 133
83 84 86 87 89 90 92 93 94 96 97 99 101 103 105 107 109 112 113 115 116 117 118 119 120 121 122 122 123 123 122 122 122 123 124 124 125 126 128 130 131 133
85 87 89 90 91 92 93 94 96 98 100 102 104 106 108 110 112 114 115 116 117 117 118 120 121 121 122 122 121 121 121 121 122 123 124 125 126 127 129 130 132 133
89 90 91 92 93 93 95 97 100 102 103 105 106 108 110 112 114 115 116 116 117 118 119 120 120 120 120 120 119 119 119 120 121 123 125 126 127 128 130 131 131 132
90 91 93 94 96 98 100 102 105 106 107 108 109 110 112 113 114 115 115 116 117 118 119 118 118 117 117 117 117 117 118 120 122 124 126 127 128 130 130 131 131 130
91 92 94 97 100 102 105 107 108 109 110 110 111 112 113 114 115 115 116 116 117 117 116 115 115 114 114 115 116 117 119 121 123 126 128 129 130 131 131 130 130 128
93 95 98 100 103 105 107 108 110 110 111 112 112 113 114 114 115 115 115 115 114 114 113 112 112 113 113 115 117 119 121 123 126 128 130 131 131 131 131 129 127 125
96 98 100 103 105 107 108 109 110 111 111 112 113 114 114 114 114 113 113 112 112 112 111 111 112 113 115 117 119 121 124 126 130 131 132 133 132 131 130 128 125 122
98 99 102 104 106 107 108 109 110 111 111 112 112 113 113 112 111 111 110 110 111 111 111 112 114 115 117 120 122 125 128 131 133 135 135 134 132 130 128 125 123 120
100 101 103 104 105 107 108 109 110 110 110 111 111 111 110 109 109 109 109 110 111 112 113 115 117 119 121 124 127 129 132 135 138 138 136 134 131 128 126 123 121 119
101 102 103 104 105 107 107 108 108 108 108 109 108 108 108 108 109 109 110 112 113 115 117 119 121 123 126 129 132 134 137 140 140 139 136 132 130 127 124 122 120 119
102 102 103 104 105 106 106 107 107 106 106 106 106 107 108 109 110 111 113 115 117 120 122 125 127 129 132 134 137 140 142 143 141 137 133 131 128 125 123 121 120 118
102 103 103 104 104 105 105 106 105 105 105 106 108 109 110 112 113 115 117 119 122 125 128 131 133 135 137 140 142 144 145 143 139 135 131 129 126 124 122 121 120 118
103 104 105 105 105 105 105 106 106 106 108 110 112 113 114 116 118 120 123 126 129 131 134 136 139 140 143 145 147 147 144 140 136 132 130 127 125 123 122 121 120 117
106 106 106 106 106 106 107 108 110 112 114 115 116 118 120 122 124 127 130 132 135 137 139 141 144 146 148 149 148 145 141 137 134 131 128 126 124 123 122 121 119 116
108 108 108 108 109 110 112 114 116 118 119 121 122 124 126 128 131 133 136 138 140 142 143 146 149 150 150 150 147 142 138 135 132 129 127 125 123 123 122 120 117 115
110 111 111 112 114 116 118 120 121 123 124 126 128 130 131 134 136 139 141 143 144 146 148 150 152 153 151 148 143 139 136 133 131 128 126 124 123 122 120 118 116 113

ECMWFNIL_250_spd_057.txt.gz
Wind_Speed
61 62 62 63 63 64 64 64 65 66 67 68 68 69 69 70 71 71 72 73 73 75 76 77 79 80 80 81 82 82 83 83 84 86 87 89 90 92 94 96 98 99
60 61 61 61 62 62 63 64 66 67 68 69 69 70 70 71 72 72 73 74 76 77 78 79 80 81 81 82 83 83 84 84 86 88 90 91 93 94 95 97 98 100
60 60 61 62 63 64 65 67 68 68 69 70 70 70 71 72 73 74 76 77 78 78 79 80 80 81 82 83 83 84 85 86 87 90 93 94 95 95 97 98 99 101
61 62 63 64 65 66 67 68 69 69 70 70 71 72 72 73 74 75 76 77 78 79 80 81 81 82 82 83 84 85 86 88 90 93 95 96 97 98 99 100 101 102
62 63 64 65 66 67 68 69 69 70 71 72 72 73 73 74 75 76 77 79 80 80 81 81 82 82 83 84 85 87 88 89 91 94 97 98 99 99 100 102 103 104
63 64 65 66 66 67 68 70 71 72 73 73 74 75 75 76 78 79 80 81 82 81 81 82 82 83 84 85 87 88 89 90 92 96 98 100 101 101 102 103 105 106
64 64 65 66 68 69 71 72 73 74 75 75 76 77 78 79 81 82 82 82 82 82 81 82 83 84 85 87 88 89 91 92 95 97 100 102 103 103 104 105 106 108
65 66 67 68 70 72 73 74 75 76 77 77 78 79 80 81 82 83 83 82 82 81 82 83 84 85 87 88 90 92 93 95 97 99 101 103 104 104 105 106 108 111
68 69 70 72 73 74 75 76 77 78 79 79 80 81 82 82 83 83 83 82 82 82 83 85 86 88 89 91 92 94 95 97 98 100 103 104 105 106 107 109 110 112
71 73 74 75 76 77 78 79 79 80 80 81 81 82 82 83 83 83 83 83 83 84 86 87 89 91 92 93 94 96 97 98 99 101 103 105 106 108 109 110 112 114
75 76 77 78 78 79 80 80 81 81 82 82 82 82 83 83 83 84 84 85 86 87 89 90 92 93 94 95 96 98 99 99 99 102 105 107 108 110 111 112 113 115
78 78 79 79 80 80 81 81 81 82 82 82 83 83 83 84 85 86 87 88 89 90 91 93 94 95 96 97 99 100 100 100 101 104 106 108 110 112 113 114 114 115
80 80 80 80 80 80 80 80 81 81 82 83 84 84 85 86 87 89 90 91 92 93 94 95 96 97 98 100 101 102 102 103 104 106 108 110 112 113 114 114 115 114
79 78 78 78 78 79 79 80 81 82 84 85 86 87 88 89 90 91 92 94 95 96 96 97 99 100 101 102 103 104 105 105 106 108 110 112 113 114 114 114 114 115
77 77 77 78 79 80 81 82 84 85 87 88 89 90 91 92 93 94 95 96 97 98 99 100 101 102 103 104 105 106 107 108 109 110 112 113 114 114 114 114 115 115
77 78 79 80 81 83 84 85 86 88 89 90 90 91 92 93 94 96 97 98 99 100 101 102 103 104 105 106 107 108 109 110 112 112 113 114 114 114 114 115 116 117
80 80 81 82 83 84 85 85 87 88 88 89 90 92 93 95 96 98 99 101 101 102 103 104 105 106 107 108 109 110 112 113 114 114 114 115 115 115 116 117 118 118
80 80 81 82 83 84 85 86 87 88 89 91 92 94 96 97 99 100 101 102 103 103 104 105 106 107 108 109 111 112 114 114 115 115 116 116 117 117 117 119 120 121
80 80 82 83 85 86 87 88 89 89 91 93 95 97 98 99 101 102 103 104 104 104 105 106 107 108 110 111 113 114 115 115 116 116 117 118 119 119 120 122 123 125
81 82 84 85 87 88 89 90 91 92 94 96 97 99 100 101 102 103 104 105 106 106 106 107 108 110 112 113 114 115 116 117 118 119 120 121 122 123 124 126 128 130
83 84 86 87 89 91 92 93 94 95 96 98 99 100 101 102 103 104 106 106 107 107 107 108 110 112 113 114 115 117 118 119 121 122 123 124 125 127 129 131 134 136
85 87 88 90 91 93 94 96 97 98 99 99 100 101 102 103 104 105 106 107 108 108 109 110 112 114 116 117 118 120 121 122 124 126 127 128 130 132 135 137 140 141
88 89 91 92 94 96 97 99 100 100 101 101 101 102 103 104 106 107 108 109 110 111 112 113 115 117 119 120 121 123 125 126 127 129 130 132 135 139 141 143 144 144
91 92 93 95 96 98 99 100 102 102 103 103 104 104 105 107 108 109 110 111 113 114 115 116 118 120 123 124 125 127 128 129 131 133 135 138 141 144 146 146 145 145
94 94 95 96 98 99 100 101 102 103 104 105 106 107 109 110 111 112 113 115 116 117 118 120 122 124 127 128 130 131 133 134 136 138 140 142 145 147 147 146 145 145
96 97 98 99 99 100 101 102 103 105 106 107 109 111 112 113 115 116 117 118 119 121 122 123 125 128 131 133 135 136 138 139 140 142 143 145 146 146 146 145 145 144

ECMWFNIL_250_spd_060.txt.gz
Wind_Speed
57 58 58 59 59 59 60 60 61 61 62 62 63 63 64 65 66 67 68 68 69 70 70 71 72 73 74 75 76 77 78 79 80 81 82 83 84 86 87 88 88 88
57 57 58 58 58 59 60 60 61 61 62 63 63 64 65 66 67 67 68 68 69 70 71 72 74 75 76 77 78 78 79 81 82 83 84 84 85 86 87 88 88 88
57 57 57 58 59 59 60 61 62 62 63 64 64 65 66 67 67 68 68 69 70 71 73 75 76 78 78 78 79 80 81 82 83 84 84 85 84 85 86 88 89 90
58 58 59 60 60 61 62 63 63 64 64 65 65 66 67 67 68 68 69 71 72 74 76 77 78 79 79 80 81 82 83 83 84 84 84 84 84 84 86 88 91 93
60 61 61 62 63 63 64 65 65 66 66 67 67 68 68 69 70 71 72 74 76 77 78 79 80 80 81 81 82 83 83 83 83 84 84 85 85 86 87 90 93 96
63 64 64 65 65 66 66 67 68 68 68 69 69 70 70 71 73 74 76 77 78 79 80 81 81 82 82 82 82 82 82 82 83 84 85 86 87 88 89 91 94 97
65 65 66 66 66 67 68 69 70 70 71 71 71 72 73 74 76 77 78 79 80 81 82 82 82 82 81 81 82 82 82 83 84 85 87 88 90 91 92 93 95 98
65 65 66 67 67 68 69 70 71 71 72 73 74 75 76 77 78 79 80 80 81 81 81 81 81 81 81 82 82 83 84 85 87 88 89 91 92 93 94 95 96 99
64 65 66 66 67 68 69 71 72 73 74 75 76 77 78 78 79 79 80 80 80 81 81 81 82 82 83 84 85 87 87 88 89 90 91 93 94 95 96 97 99 101
65 65 65 66 67 68 69 70 71 73 74 75 76 76 77 77 78 78 79 79 80 81 82 83 84 84 85 86 87 87 87 88 89 91 93 94 96 97 98 100 101 103
65 65 65 66 67 68 69 70 71 72 73 74 75 75 76 77 78 79 80 82 83 84 84 84 84 85 86 86 87 88 88 90 91 93 95 97 98 100 101 102 104 106
66 67 67 68 69 69 70 71 72 73 74 75 76 77 78 79 80 81 83 83 84 84 84 84 85 86 87 89 90 91 91 92 94 96 98 100 101 103 104 105 107 109
68 69 70 70 71 72 73 74 75 76 77 77 78 79 79 80 81 82 82 83 84 84 85 86 87 89 90 92 93 93 94 95 96 99 101 103 104 105 107 109 110 110
69 70 71 72 72 74 75 76 76 76 77 78 78 78 79 79 81 82 83 85 86 87 88 89 90 92 94 95 95 95 96 97 99 102 104 106 107 108 109 110 110 110
70 71 71 72 72 73 73 73 73 73 74 75 76 77 79 81 82 84 85 86 88 89 90 92 93 95 96 97 97 98 99 101 104 106 108 109 109 110 110 110 110 110
71 72 72 71 71 70 70 69 70 71 72 74 76 79 81 82 84 85 87 89 90 91 93 94 95 97 98 99 100 102 103 105 108 110 111 111 111 111 112 112 112 113
72 72 71 70 68 68 68 69 71 72 74 76 78 80 82 84 86 88 90 91 92 94 95 96 98 100 102 103 104 105 106 108 110 111 111 112 112 113 114 114 115 116
71 70 68 67 66 68 70 72 74 76 78 80 82 84 86 87 89 91 92 94 95 96 98 99 101 103 104 105 106 107 107 108 109 110 111 111 112 113 115 116 118 119
69 67 65 66 68 72 74 77 79 80 82 84 86 88 89 90 92 93 94 95 97 98 100 101 102 104 106 107 107 107 108 108 109 110 111 112 113 115 117 119 120 121
68 67 68 71 74 76 78 80 82 84 86 88 90 92 93 93 94 95 96 97 98 99 100 102 103 105 107 108 108 108 108 109 110 111 112 113 115 117 119 121 122 124
70 71 74 77 79 80 82 84 86 88 90 92 93 95 96 96 97 98 98 99 100 100 101 102 104 107 108 109 109 110 111 111 112 113 114 116 117 120 122 123 125 127
73 76 79 81 82 84 85 87 89 91 93 95 96 98 98 99 99 100 101 101 101 102 103 104 106 108 109 110 111 112 113 114 115 116 117 118 120 123 125 126 128 130
78 80 82 84 86 88 89 91 92 94 96 97 99 100 101 101 101 101 102 102 102 103 104 106 107 109 111 112 114 115 116 117 117 119 120 121 124 126 128 130 132 134
83 85 86 88 90 91 93 95 96 98 99 100 101 102 102 103 103 103 103 103 104 105 106 107 109 111 113 115 116 118 119 120 120 122 123 125 127 130 131 133 136 139
88 90 91 93 94 95 97 98 100 101 102 103 103 103 103 103 103 103 103 104 105 107 108 109 111 113 115 117 119 121 122 123 124 125 126 128 131 133 135 137 140 143
91 93 95 96 98 99 100 102 103 104 105 104 104 104 103 103 103 104 104 105 107 108 110 111 113 115 117 120 122 123 125 126 127 128 129 132 134 136 139 141 142 142

ECMWFNIL_250_spd_063.txt.gz
Wind_Speed
52 52 53 54 55 55 55 55 56 56 56 57 58 58 59 59 60 61 62 62 63 64 64 65 66 67 68 69 70 71 72 73 74 75 76 78 79 80 82 83 84 84
53 54 54 55 56 57 57 57 58 58 59 60 60 61 61 62 62 63 64 64 65 66 66 67 68 69 70 71 72 73 74 75 76 78 79 80 82 83 84 84 84 84
54 54 54 54 55 56 57 57 58 59 60 61 62 62 63 64 64 65 65 66 67 68 68 69 71 72 73 73 75 76 77 78 79 80 82 82 83 83 83 83 83 83
53 53 54 55 55 56 57 58 59 59 60 61 62 63 63 64 65 65 66 67 68 69 70 71 72 73 74 76 77 78 79 80 81 81 81 81 81 81 82 82 83 84
55 55 56 57 57 58 59 60 61 61 62 62 63 63 64 65 65 66 67 67 68 69 71 72 73 74 75 77 78 78 79 79 79 79 79 80 81 82 82 83 84 84
57 57 58 60 61 61 62 63 63 63 63 63 64 65 65 66 66 67 67 68 69 69 70 72 73 74 75 76 76 77 78 78 78 79 80 81 81 82 82 83 84 85
60 61 62 63 64 64 65 65 66 66 66 66 66 66 67 67 67 68 68 68 69 70 71 72 73 75 76 77 77 78 78 79 79 80 80 81 81 82 83 85 86 87
64 64 65 66 67 67 68 68 69 69 69 68 68 68 68 69 69 70 70 70 71 72 74 75 76 77 78 78 78 78 78 78 79 79 80 81 82 84 86 87 89 90
67 67 68 70 71 71 71 71 71 71 71 70 69 69 69 70 70 71 71 72 73 75 76 77 77 77 76 76 76 76 77 78 79 80 81 83 84 85 87 88 90 91
67 69 70 72 74 74 74 74 74 73 73 72 70 70 70 71 71 72 72 73 74 75 75 75 73 73 73 74 75 76 78 79 81 82 83 84 86 87 88 90 91 93
68 70 71 73 75 76 76 76 76 76 75 74 72 72 72 73 73 73 73 74 74 74 73 71 71 72 74 76 77 79 80 82 84 85 86 87 88 89 90 92 93 95
70 72 73 74 76 77 78 78 78 77 77 76 74 73 74 74 74 74 74 74 74 72 71 71 73 75 78 80 82 83 85 86 88 89 90 90 91 91 93 95 96 98
72 73 74 75 77 78 80 80 79 78 78 77 75 75 75 75 75 74 74 74 72 71 72 74 77 80 82 84 86 88 89 90 91 92 93 94 94 94 96 98 100 100
73 74 75 77 79 81 82 81 80 79 78 77 76 76 76 75 74 74 73 72 71 72 75 78 81 83 85 87 89 91 92 93 94 96 96 96 96 97 99 101 103 103
76 77 78 80 82 84 84 82 80 79 77 76 75 75 73 72 72 73 72 71 73 76 80 82 84 86 88 90 92 93 94 96 98 99 98 98 98 100 102 104 106 106
78 79 81 83 85 86 85 81 78 75 73 73 73 72 70 70 71 72 72 74 77 81 84 85 87 89 91 93 94 95 96 98 101 102 101 100 101 102 105 106 106 106
80 82 84 86 88 88 84 78 74 71 70 70 70 70 70 71 72 72 74 77 81 83 85 87 89 91 93 95 96 97 98 101 104 104 103 102 102 103 105 106 105 104
83 85 87 89 90 87 81 75 73 70 68 68 68 69 70 71 73 74 77 80 82 84 87 89 91 93 95 97 98 99 101 104 106 106 104 103 103 103 105 105 105 104
87 89 90 91 89 84 78 75 73 71 69 69 69 70 71 73 75 77 80 82 84 87 89 91 93 95 97 99 100 101 103 106 107 107 106 105 105 105 106 107 106 106
90 91 92 90 86 81 77 76 75 75 75 75 75 75 76 77 78 80 82 85 87 90 92 94 96 98 100 101 102 103 105 108 108 108 107 107 106 106 108 108 109 109
93 92 90 86 81 78 78 79 80 80 80 80 80 80 80 80 81 83 85 88 91 93 95 97 99 101 103 104 104 105 107 109 109 108 108 107 107 108 109 110 111 112
91 88 84 80 78 77 78 80 82 83 83 84 84 84 83 84 85 86 88 91 94 97 99 100 102 104 105 106 106 107 109 110 109 109 108 107 108 109 111 112 114 115
85 82 79 77 77 77 78 80 81 83 85 85 85 85 86 87 88 90 92 94 97 100 102 103 105 106 107 108 108 109 110 110 109 109 108 108 109 111 113 114 116 119
79 78 78 79 79 79 79 81 82 84 86 87 87 88 89 91 93 95 97 99 101 103 105 106 107 108 109 110 110 111 110 110 109 109 109 110 112 114 115 117 120 123
77 78 80 81 81 81 82 83 84 86 88 89 91 92 93 96 98 100 102 104 105 107 108 108 109 110 111 111 111 112 111 111 111 111 112 113 115 116 118 121 124 127
78 80 81 82 82 83 84 86 87 89 90 92 94 96 98 100 102 104 106 107 109 110 110 110 111 111 112 112 113 113 113 114 114 114 115 117 118 119 121 124 127 131

ECMWFNIL_250_spd_069.txt.gz
Wind_Speed
47 47 47 46 45 46 46 47 47 49 50 51 51 52 52 52 53 54 56 57 57 58 59 60 60 61 62 63 63 64 65 67 67 68 69 70 70 71 71 72 73 75
48 49 49 48 48 47 48 49 50 51 52 52 52 52 52 53 55 55 56 57 58 59 60 61 62 63 64 65 66 67 68 69 70 71 72 73 74 74 75 76 76 77
49 49 50 50 50 50 51 52 52 53 54 54 55 55 56 57 58 58 59 59 60 61 62 63 64 66 66 68 69 70 71 72 73 75 76 76 77 78 78 79 80 80
51 51 52 52 53 53 54 56 56 56 57 57 57 58 59 61 61 62 62 63 63 63 64 65 66 67 68 70 71 72 73 75 76 77 78 79 80 81 82 82 83 83
54 55 55 55 55 56 57 59 59 60 60 60 60 61 62 63 64 65 65 66 66 67 67 68 68 69 70 72 73 74 75 77 78 79 80 81 82 83 84 85 85 85
58 59 59 58 58 60 61 62 62 63 64 64 64 64 65 65 66 67 68 69 70 70 70 71 71 72 73 74 75 76 78 79 80 81 82 83 85 85 86 87 87 87
61 62 62 62 62 63 64 65 65 66 67 68 68 69 69 68 68 69 70 70 72 73 73 73 74 75 76 77 78 80 81 82 83 84 85 86 87 88 88 88 89 89
63 64 65 65 66 67 67 67 68 68 69 71 72 73 73 72 71 71 71 72 73 74 75 76 77 78 80 81 82 83 85 86 87 88 88 90 90 90 89 89 90 90
65 66 66 67 68 69 70 70 70 71 72 73 74 75 76 76 75 74 74 74 75 76 77 79 80 82 83 85 86 88 89 90 91 91 92 93 93 92 91 91 92 92
67 68 68 69 70 71 71 72 73 73 74 74 75 76 77 78 77 77 76 77 78 80 81 83 84 85 87 88 90 92 93 93 94 94 95 96 96 94 93 93 93 92
69 70 70 70 71 72 73 74 74 75 76 76 77 77 78 79 79 79 79 80 81 83 85 87 88 88 90 91 93 94 95 96 96 96 98 99 97 95 95 94 92 89
71 72 72 73 73 74 75 76 76 77 77 77 78 78 78 79 80 81 82 83 84 85 87 89 89 90 91 93 94 95 97 97 98 99 100 99 98 96 95 93 89 86
73 74 75 75 76 77 77 78 78 79 79 79 79 79 79 80 81 82 84 85 86 88 89 90 91 91 92 94 96 97 98 99 100 101 100 99 98 97 94 90 87 86
75 76 77 78 78 79 79 79 79 80 80 80 79 79 80 81 82 84 86 88 89 90 90 90 91 93 95 96 98 99 100 101 101 100 99 99 97 95 92 90 88 88
77 78 79 79 80 80 80 80 80 80 81 81 81 81 82 83 85 87 88 90 91 91 91 91 92 94 96 98 100 100 101 101 100 99 99 98 96 95 93 92 92 93
81 81 81 81 81 80 80 80 81 81 82 83 83 84 85 87 88 89 90 90 91 92 93 94 95 96 98 99 100 101 101 100 100 99 98 97 96 95 95 94 94 95
84 84 83 83 83 82 82 82 82 83 84 85 87 88 89 90 90 91 91 92 94 95 96 96 97 98 99 100 100 100 100 100 100 99 98 97 97 96 96 95 95 96
87 86 86 86 86 85 85 85 85 86 87 88 89 90 91 92 93 94 95 96 96 97 97 98 98 98 99 99 99 100 100 100 99 98 97 97 97 96 96 96 96 97
88 88 87 87 87 88 88 88 89 89 90 91 92 93 94 95 96 97 98 98 98 98 98 98 98 98 98 98 99 99 99 98 97 97 97 97 97 97 97 97 97 98
90 89 89 89 89 90 90 91 92 92 93 94 95 96 96 97 98 98 99 99 98 98 97 96 97 97 96 96 97 97 97 97 97 97 98 98 98 98 97 97 98 99
91 90 90 90 91 91 91 92 94 95 95 96 97 97 98 98 98 98 97 97 97 96 95 95 95 95 94 95 96 97 97 98 98 98 99 99 99 98 98 98 99 101
91 91 91 92 92 92 93 94 95 96 97 97 98 98 98 97 97 96 95 95 95 94 94 94 94 94 94 95 96 96 97 98 98 98 99 99 99 99 99 100 101 103
91 92 92 93 93 94 94 95 96 97 97 97 97 97 96 96 95 95 94 94 94 94 94 94 94 94 94 94 95 95 96 97 97 98 98 99 99 100 100 102 104 105
92 92 93 93 94 94 94 95 95 95 95 95 95 95 95 95 95 95 94 94 95 95 95 95 94 93 94 94 94 95 96 97 97 98 99 99 100 101 103 104 106 108
91 91 91 92 92 92 92 92 93 93 93 94 94 94 94 95 95 94 94 94 94 95 95 94 94 93 94 94 95 95 96 97 98 99 100 101 102 103 105 107 109 111
89 90 90 90 91 90 91 91 91 92 92 93 93 93 93 94 94 94 94 94 94 94 94 94 94 94 94 95 95 96 97 98 99 100 102 103 105 106 108 111 112 114

ECMWFNIL_250_spd_072.txt.gz
Wind_Speed
50 50 51 52 52 52 52 53 53 52 52 52 53 54 54 54 54 55 56 57 58 59 61 62 63 64 64 65 66 67 68 68 69 70 72 73 72 72 73 73 73 74
52 53 53 54 55 55 54 55 56 55 55 56 56 57 57 56 56 57 58 59 60 62 63 65 67 68 68 69 71 72 72 72 73 73 74 75 75 75 75 75 76 77
55 56 55 56 56 56 56 57 57 58 58 58 59 59 60 60 60 61 61 62 63 65 66 68 69 70 72 72 74 75 76 76 77 77 77 77 77 77 77 78 79 80
58 58 58 58 58 58 58 59 59 59 60 61 61 61 62 62 63 64 64 65 66 67 68 70 71 73 74 75 76 77 79 80 80 81 81 80 80 80 81 82 84 85
62 61 60 60 60 60 60 60 60 61 62 63 63 63 64 65 65 66 67 68 68 70 71 72 74 75 77 78 78 79 80 82 82 83 83 83 83 84 86 87 88 88
65 64 63 63 63 62 62 62 62 63 63 64 65 65 66 67 67 68 69 70 71 72 73 74 76 77 79 80 80 81 82 83 84 85 84 85 86 87 89 89 90 91
68 67 66 66 66 65 65 65 66 66 66 67 67 67 68 68 69 70 71 72 73 74 75 77 78 79 81 82 82 82 83 84 85 85 85 86 87 89 90 91 92 94
69 70 70 69 69 69 69 69 69 69 69 69 69 69 70 70 71 71 72 73 75 76 77 79 80 81 82 83 83 84 84 85 85 86 86 87 89 90 92 93 95 95
71 72 72 72 72 72 72 72 72 72 72 71 70 71 71 72 72 73 74 75 77 78 79 80 82 83 84 84 85 85 86 86 86 87 88 89 91 93 94 95 96 97
72 72 73 73 73 73 73 73 73 73 72 72 72 72 73 74 75 75 76 77 78 80 81 82 83 84 85 86 86 87 87 87 88 89 90 92 93 95 96 97 98 98
73 73 74 74 74 73 73 73 73 73 73 73 74 75 76 77 77 78 79 80 81 82 82 83 84 85 86 87 88 88 88 89 89 91 92 94 95 97 98 99 99 100
75 75 75 75 75 75 74 74 75 75 75 76 76 77 78 79 80 80 81 82 83 84 84 85 86 86 87 88 89 90 90 91 91 93 94 96 97 98 99 100 101 103
78 78 78 78 77 77 76 77 77 78 78 79 79 80 81 82 82 83 84 84 85 85 86 86 87 87 88 89 90 91 93 94 94 95 97 98 100 100 101 102 104 104
81 81 82 82 82 81 80 80 80 81 81 82 82 83 84 85 85 85 86 86 86 87 87 88 88 89 90 91 92 93 95 96 97 98 99 100 102 103 104 104 105 105
83 83 84 85 85 84 83 82 82 83 84 84 85 85 86 87 87 87 87 88 88 88 89 89 90 91 92 93 94 95 97 98 99 100 101 103 104 105 105 105 105 104
84 85 85 86 86 85 84 84 84 85 86 86 87 87 88 88 88 89 89 89 90 90 91 91 92 92 93 94 96 97 98 100 101 103 104 105 106 106 106 105 104 103
86 86 86 86 86 86 86 86 87 88 88 89 90 90 90 90 91 91 91 91 91 92 93 93 94 95 96 97 98 99 100 101 103 104 105 106 106 106 105 104 103 102
89 89 88 88 88 89 89 90 90 91 92 93 93 94 94 94 93 93 93 93 93 93 94 95 96 97 98 99 100 101 102 103 104 105 106 106 106 105 104 103 103 103
91 91 92 92 92 93 93 93 93 94 94 95 95 96 96 96 96 95 95 95 95 95 96 97 98 98 99 100 101 102 103 104 104 105 105 104 104 104 103 103 103 104
94 94 95 95 95 95 95 95 94 95 95 96 96 97 97 97 97 97 97 97 97 97 97 98 99 100 100 101 102 102 103 103 103 103 103 103 103 103 103 103 104 104
94 95 95 95 95 95 95 95 95 95 96 96 96 97 97 97 97 97 97 97 97 98 98 99 100 101 101 100 101 101 101 101 102 102 103 103 103 103 103 103 104 104
94 94 94 94 95 95 95 95 95 96 96 96 97 97 97 97 97 97 97 98 98 99 99 99 100 100 100 100 99 99 100 100 101 102 103 103 103 103 103 103 104 103
93 93 94 94 95 95 95 96 96 96 96 97 97 97 97 97 97 97 98 98 98 99 99 98 98 98 98 98 99 99 99 99 100 101 102 102 102 102 102 102 102 102
93 94 94 94 94 95 95 95 95 95 95 96 96 96 97 97 97 97 97 98 98 98 97 97 97 97 97 98 98 99 99 99 100 100 100 101 100 100 100 101 101 102
92 92 93 93 93 93 93 93 93 94 94 95 96 96 97 97 97 97 97 97 97 97 97 97 97 97 98 98 99 99 99 99 99 99 99 100 100 101 101 102 103 104
90 90 91 91 92 92 93 93 93 94 95 95 96 97 97 97 97 97 97 97 97 97 97 97 98 99 99 99 99 99 99 99 99 99 100 101 102 102 103 105 106 107

ECMWFNIL_250_spd_075.txt.gz
Wind_Speed
49 49 50 51 54 56 56 56 57 58 59 59 60 60 61 61 61 61 61 61 61 62 62 64 65 66 67 67 68 69 70 70 71 72 72 72 74 75 76 77 79 80
54 53 53 54 55 57 59 60 61 62 62 63 63 63 63 63 63 63 63 63 63 64 64 65 67 68 69 70 70 71 72 72 73 73 74 74 75 76 77 78 80 81
59 58 58 58 58 59 61 63 65 65 65 65 65 65 65 65 65 65 65 65 65 65 66 67 68 70 71 71 72 72 73 73 74 74 75 76 78 78 79 80 81 82
64 63 62 62 62 62 63 64 66 67 67 67 67 67 67 66 66 66 66 66 66 67 67 68 69 70 71 72 72 72 73 74 75 75 76 78 79 80 81 82 82 83
67 67 66 66 66 66 66 65 66 67 69 69 69 69 69 68 67 67 67 67 68 68 69 69 70 70 71 71 72 72 73 75 76 77 78 79 80 82 82 83 83 84
71 71 71 71 70 68 68 68 67 68 69 71 72 72 71 69 68 68 68 69 70 70 71 71 72 72 72 72 73 74 75 77 78 79 80 81 82 83 84 84 84 85
73 74 75 75 74 71 69 69 70 70 70 71 72 72 71 70 70 70 70 71 72 72 73 74 74 74 74 74 75 76 77 79 80 81 82 83 83 84 85 86 86 87
75 77 78 78 77 75 72 72 73 73 72 71 71 71 71 72 72 73 74 74 74 74 75 76 76 76 76 76 77 78 80 81 82 83 84 85 86 86 87 88 89 89
77 79 81 81 81 79 77 75 76 76 75 73 73 73 73 73 74 75 76 76 76 76 77 77 78 78 78 78 80 81 82 83 83 84 85 86 87 88 89 90 90 91
80 82 84 84 83 82 80 79 78 78 77 76 75 75 75 75 76 77 77 77 78 79 79 79 80 80 80 81 82 83 84 85 85 86 87 89 90 90 91 91 92 93
83 86 87 87 86 84 83 81 80 79 79 78 77 77 77 78 78 78 79 79 80 80 81 81 81 82 82 84 85 86 87 87 88 89 90 91 92 92 92 93 93 94
87 89 89 89 87 85 84 83 82 81 80 79 79 78 79 80 80 81 81 82 82 82 83 83 83 84 85 86 87 88 89 90 90 91 92 93 94 94 95 95 95 96
89 91 90 89 88 87 86 85 84 82 81 81 80 80 81 81 82 83 84 84 84 84 85 85 85 86 87 88 89 90 91 92 93 94 94 95 96 96 96 96 96 97
90 91 91 90 89 89 88 87 86 86 85 84 84 84 84 84 85 85 85 86 86 86 86 87 87 88 89 90 91 92 93 94 95 96 96 97 97 97 98 97 97 98
91 92 92 91 90 90 91 91 90 90 89 88 88 87 88 88 88 88 87 87 87 87 87 88 89 90 91 92 92 94 95 96 97 98 98 98 98 98 99 99 98 99
92 93 92 92 92 93 94 94 93 92 91 90 90 90 90 90 90 90 89 89 89 89 89 89 90 91 92 93 94 95 96 97 98 98 98 99 99 99 100 100 100 100
91 93 94 95 96 96 96 95 94 93 92 91 91 92 92 92 91 91 91 91 91 91 91 92 93 93 94 95 96 96 97 98 98 98 99 99 99 99 100 101 101 101
93 95 97 98 98 98 96 95 94 94 93 92 92 93 94 94 93 93 93 93 93 93 94 95 95 95 96 96 97 97 98 98 98 98 99 99 100 100 100 100 101 102
99 99 99 99 99 98 97 97 96 95 94 94 94 94 94 95 95 95 95 95 95 96 96 97 97 97 97 97 98 98 98 98 98 99 99 99 100 100 100 101 102 103
103 102 102 101 100 99 99 98 97 97 96 95 95 95 95 95 95 95 96 96 96 96 96 97 97 97 98 98 98 98 98 99 99 99 100 100 101 101 102 102 103 103
106 105 104 103 102 101 100 99 98 97 97 96 95 95 95 95 96 96 96 96 96 97 97 97 97 98 98 98 98 98 98 99 99 100 101 102 103 103 104 104 104 104
107 106 105 104 103 101 100 99 98 97 96 95 95 95 95 96 96 96 97 97 97 97 97 97 97 97 97 97 97 98 99 100 101 101 102 103 104 104 104 104 104 103
106 105 103 102 100 98 97 96 95 94 94 93 93 94 94 95 95 96 96 96 96 96 96 96 96 97 97 97 98 99 100 101 102 102 102 103 103 104 104 103 103 104
101 100 98 96 94 92 91 90 90 90 90 90 90 91 91 92 93 93 93 94 94 94 95 96 97 98 98 98 99 100 100 101 101 102 102 103 103 103 103 104 104 105
94 92 90 88 86 85 84 84 84 85 85 86 87 87 88 89 90 91 92 92 93 94 95 96 98 99 100 100 101 102 102 102 102 103 103 104 104 104 104 105 105 106
88 86 85 84 83 82 82 83 84 85 86 86 87 88 89 90 91 92 93 94 94 95 96 98 99 101 102 103 103 104 104 104 104 104 104 105 105 105 105 106 106 107

ECMWFNIL_250_spd_078.txt.gz
Wind_Speed
59 59 59 59 59 58 57 57 57 56 56 56 57 57 58 59 60 61 63 64 64 65 66 66 67 67 68 68 67 67 67 67 68 69 69 68 69 70 71 72 73 73
61 61 61 61 61 61 61 61 60 60 60 60 60 60 60 61 62 63 64 66 67 68 69 69 70 70 70 69 69 68 68 68 69 71 71 71 71 72 73 74 74 74
64 64 64 64 64 64 64 64 64 64 63 64 64 63 63 63 64 65 66 68 69 70 71 71 72 72 72 71 71 70 70 70 71 72 72 73 73 74 75 76 76 76
67 68 68 68 67 67 68 68 68 68 67 67 67 66 66 66 66 67 68 70 71 72 72 72 73 73 74 73 72 71 71 72 73 74 74 74 75 76 78 78 78 78
71 71 72 72 72 72 72 73 73 72 72 71 70 69 68 68 69 70 71 72 73 73 73 73 73 74 75 74 74 73 73 73 74 75 76 76 77 78 79 80 80 80
74 74 75 75 75 76 77 77 77 77 76 76 75 73 72 72 72 73 74 75 75 75 75 75 75 75 75 75 75 75 75 75 76 77 78 79 79 80 80 81 82 82
77 77 77 78 78 80 81 81 81 80 80 80 79 78 77 77 77 77 76 77 77 77 77 77 77 77 76 77 77 77 78 78 78 79 80 80 81 82 82 83 83 84
79 80 80 80 81 83 84 84 84 84 83 82 82 81 81 81 81 81 80 79 80 80 80 79 78 78 79 80 80 80 80 80 80 81 82 82 83 83 84 84 85 85
82 82 82 83 85 86 86 87 87 87 86 85 85 85 85 85 85 84 83 82 82 83 83 82 81 82 83 84 83 82 81 81 82 82 83 84 85 85 85 86 86 87
85 85 85 86 88 89 89 89 90 89 88 88 88 88 88 88 87 86 86 85 85 85 85 85 86 87 86 85 84 82 82 82 83 84 84 85 86 86 87 87 88 88
88 88 88 89 90 91 92 92 91 91 91 91 91 91 91 90 90 90 89 88 87 87 87 89 90 90 88 86 84 83 83 84 85 86 86 87 87 88 89 89 89 90
90 90 90 90 91 93 94 93 93 93 93 93 93 93 93 93 93 93 92 90 90 90 91 92 92 91 89 87 86 85 85 85 87 88 88 89 90 90 91 91 92 92
93 93 92 91 92 94 95 95 95 95 95 96 96 96 96 96 96 95 94 93 94 95 95 94 93 92 90 89 88 87 87 87 88 89 90 91 92 92 93 93 94 94
95 95 93 92 93 95 97 98 98 97 97 98 98 97 97 97 97 97 97 98 98 98 97 95 94 93 92 90 89 88 88 89 90 91 92 93 94 95 95 95 96 96
96 96 96 95 95 97 99 100 100 99 99 99 99 98 98 98 99 100 101 101 100 98 97 96 94 94 93 92 91 90 90 90 91 93 94 95 96 96 97 97 98 98
98 98 98 98 97 98 100 101 101 101 100 100 100 100 100 101 101 101 101 100 99 98 97 96 95 95 94 93 93 92 92 92 93 94 95 96 97 97 98 98 98 98
100 100 100 100 100 100 100 101 102 102 102 102 103 103 103 102 102 101 100 100 99 98 97 96 96 95 95 94 94 93 94 94 95 95 96 97 97 98 98 98 98 98
103 102 102 102 103 102 102 102 103 104 104 104 104 104 104 103 102 101 100 100 99 98 97 96 96 95 95 94 94 94 94 95 95 96 96 97 97 98 98 97 97 97
106 106 105 105 106 106 105 105 105 105 105 105 104 104 103 103 103 102 101 100 99 98 97 96 95 94 94 93 93 93 94 94 95 95 96 96 97 97 97 97 97 97
109 109 109 109 109 108 108 107 107 107 107 106 105 105 104 103 102 101 100 99 98 96 94 93 92 91 91 90 90 90 91 91 92 93 94 94 95 96 96 97 98 99
110 110 110 110 110 110 109 109 109 108 108 107 106 105 104 103 101 99 98 97 95 93 91 90 89 88 87 87 87 87 88 89 90 91 93 93 95 96 97 98 99 100
110 110 110 110 110 110 110 110 109 108 107 106 104 103 101 99 97 96 94 93 92 90 89 88 87 87 87 86 87 88 89 90 91 93 94 95 97 98 100 100 101 102
110 110 110 109 109 109 108 107 106 104 103 101 99 98 97 96 95 93 92 90 89 89 88 87 88 88 88 89 90 91 92 94 95 96 98 99 100 101 102 102 103 103
109 108 107 107 106 105 104 103 101 100 98 97 96 95 95 94 93 92 91 90 90 90 90 90 90 90 91 92 93 94 95 96 98 99 100 100 101 102 102 103 103 103
104 103 103 101 100 100 99 98 97 97 96 95 95 94 94 94 94 93 93 93 94 94 94 93 93 94 94 95 95 96 97 98 99 100 100 101 102 103 103 103 104 104
98 98 97 97 97 96 96 96 96 96 96 96 96 96 96 96 96 97 97 97 98 98 98 97 97 97 97 98 99 100 100 101 102 102 103 104 104 105 105 105 105 105

ECMWFNIL_250_spd_084.txt.gz
Wind_Speed
66 66 67 68 70 71 72 73 74 74 75 76 76 76 76 76 75 75 75 75 75 75 75 75 75 75 75 74 74 74 75 76 78 80 81 81 82 82 82 82 82 83
68 68 70 71 72 73 74 75 76 76 77 77 77 77 77 78 78 78 78 77 78 78 78 79 79 79 79 79 79 78 79 80 81 83 84 85 86 87 87 87 86 86
70 71 73 74 74 75 76 77 78 79 79 79 79 79 80 80 80 80 80 80 80 81 82 82 83 83 83 83 83 83 84 84 84 86 88 88 89 90 91 91 91 91
73 74 75 76 76 77 78 79 80 81 81 81 81 81 81 81 82 82 82 82 83 84 85 85 86 86 86 86 86 87 88 88 88 89 90 92 93 93 94 94 95 95
75 76 77 78 79 80 81 81 83 83 84 83 83 83 83 83 83 84 84 85 86 86 87 88 89 89 89 90 90 91 91 91 91 92 93 94 96 96 97 97 97 98
78 79 79 80 81 82 83 84 86 86 86 85 84 84 84 84 85 86 87 88 88 89 90 91 92 92 93 93 93 94 94 94 94 94 95 96 98 99 100 100 100 100
81 81 82 83 84 85 86 87 88 88 87 86 86 86 86 86 87 88 89 90 91 92 93 94 95 95 95 95 96 97 97 97 97 98 98 99 100 101 101 102 102 101
82 84 85 86 87 88 88 89 89 89 89 88 88 88 88 89 90 91 92 92 93 95 96 97 97 98 98 98 99 100 100 100 101 101 101 102 102 103 103 103 103 103
85 87 88 89 89 90 90 91 91 91 91 90 90 91 91 91 92 93 94 95 96 97 98 99 100 100 101 101 102 103 104 104 104 104 104 104 104 104 104 105 104 104
88 90 91 92 92 92 93 93 94 93 93 93 93 93 93 94 95 95 97 98 99 100 101 101 102 103 104 105 106 107 107 107 106 106 105 105 105 105 105 105 105 104
91 92 93 94 94 95 95 95 95 95 96 96 96 96 96 97 97 98 99 100 101 102 103 104 105 106 107 109 109 110 109 109 108 108 107 107 107 106 106 105 105 105
95 95 95 96 96 96 97 97 97 97 98 98 99 99 99 99 100 101 102 103 104 106 107 108 109 110 110 111 111 112 111 111 110 109 109 108 107 107 107 106 105 105
97 97 97 98 98 98 98 98 99 99 100 101 101 101 101 102 103 104 105 107 108 109 110 111 111 111 112 113 113 114 113 112 112 111 110 109 108 108 107 107 106 105
99 99 99 99 99 99 100 100 101 102 102 103 104 104 105 106 107 108 109 110 111 111 112 113 113 113 114 115 115 115 114 113 113 112 111 110 109 108 108 107 106 104
100 100 101 101 101 102 102 103 103 104 105 107 108 109 110 110 111 111 111 112 113 114 114 115 115 115 116 116 116 115 114 114 113 112 112 111 110 109 107 106 104 102
102 102 102 103 103 104 105 105 107 108 109 110 111 112 113 113 114 114 114 115 116 116 116 116 116 116 117 116 116 115 115 114 113 113 112 111 110 107 105 103 102 100
103 103 104 105 106 107 107 108 110 111 112 113 114 115 115 116 116 117 118 118 118 118 118 117 117 117 117 117 116 115 115 114 113 112 111 109 107 105 102 101 100 99
104 105 106 108 109 110 111 111 112 113 114 115 116 117 118 119 119 120 120 120 120 119 118 118 117 117 117 117 116 116 114 113 111 109 107 106 104 102 100 99 98 97
107 109 110 111 112 113 114 115 116 117 117 118 119 120 120 120 121 121 121 120 120 119 118 118 117 117 117 116 116 114 113 111 108 106 104 102 101 100 99 98 98 98
111 112 113 114 116 117 118 119 119 120 121 121 121 121 121 121 121 120 120 120 119 119 118 117 116 116 115 114 113 111 110 108 106 104 102 101 100 99 99 99 99 99
115 115 116 118 119 120 121 122 122 122 123 123 122 122 121 121 120 120 119 119 118 117 116 114 113 112 111 110 109 107 106 105 103 102 101 100 100 100 101 101 101 101
119 119 120 121 121 122 123 123 123 123 123 122 121 120 120 119 118 117 116 115 113 112 110 108 107 107 106 105 104 104 103 103 102 102 102 102 102 103 103 104 104 104
122 122 123 123 123 123 123 122 122 121 120 119 118 117 115 114 113 112 110 109 108 107 105 104 103 103 103 103 103 103 103 103 103 103 103 104 104 106 107 107 108 108
125 125 124 123 123 122 121 120 118 117 116 115 113 111 110 109 109 108 107 106 106 105 105 104 103 103 104 104 105 105 105 105 105 105 105 106 107 109 110 111 111 112
126 125 124 122 121 119 118 116 114 113 112 110 109 108 107 107 107 106 106 106 106 106 106 106 105 106 106 107 107 108 108 108 108 108 108 109 111 112 113 114 114 116
123 122 121 119 117 115 113 112 111 110 109 109 109 108 108 107 107 107 107 107 107 107 107 107 107 108 109 109 110 111 111 111 111 112 112 113 114 115 116 117 118 119

ECMWFNIL_250_spd_090.txt.gz
Wind_Speed
70 69 68 68 68 68 69 70 71 71 72 74 77 79 79 80 80 80 80 80 80 79 79 79 78 78 78 78 78 79 80 82 83 85 85 86 88 89 90 91 91 91
71 71 70 70 70 70 71 72 73 74 75 77 80 81 81 82 82 82 81 81 82 82 82 81 81 81 80 80 81 81 82 84 86 87 87 88 90 91 92 93 93 93
73 73 73 73 72 73 74 75 75 76 78 80 82 83 83 84 84 83 83 83 83 84 84 84 83 83 83 83 83 84 85 86 88 89 90 90 92 93 94 95 95 95
76 75 75 74 74 75 76 77 78 79 81 83 84 85 85 86 86 86 86 85 85 86 86 86 86 85 85 85 85 86 87 89 90 91 92 93 94 95 96 96 96 97
78 77 76 76 76 77 78 80 81 82 84 86 87 88 88 88 88 88 88 87 87 87 88 88 88 88 87 87 87 88 90 91 92 94 94 95 97 97 97 98 98 99
79 78 78 78 79 80 82 83 85 86 88 89 90 91 91 91 91 90 90 90 90 90 90 90 90 90 90 89 90 91 92 93 94 96 96 97 98 99 99 100 100 101
80 80 80 80 82 84 86 87 88 89 91 92 93 93 93 93 93 92 92 92 92 92 92 92 92 92 92 92 92 93 95 95 96 97 98 99 100 100 101 102 102 103
81 82 82 84 86 88 89 90 91 91 92 94 95 95 95 95 95 95 94 94 94 94 94 94 94 94 94 94 95 96 97 98 99 99 100 101 101 101 102 103 104 106
84 85 86 88 90 91 91 92 92 93 94 95 96 97 97 97 97 97 96 96 96 96 96 96 96 96 97 97 98 99 100 100 101 101 101 102 102 103 104 105 107 109
87 88 90 91 92 93 93 94 94 95 96 97 98 99 99 99 99 99 99 98 98 98 98 98 99 99 100 101 102 102 102 102 102 103 103 103 103 104 106 109 111 113
90 91 93 94 95 95 95 96 96 97 98 100 101 101 102 102 101 101 100 100 100 100 100 101 101 102 103 104 104 104 104 104 104 104 104 105 106 108 110 113 115 116
93 94 95 96 96 97 97 97 98 100 101 102 103 103 103 103 102 102 101 101 101 101 102 103 103 104 105 106 106 106 106 105 105 105 106 107 109 112 114 116 118 119
96 97 97 98 98 99 99 100 101 102 103 103 104 104 104 104 104 103 103 103 103 103 104 104 105 107 108 108 108 107 107 107 107 108 109 111 113 115 117 119 121 123
98 99 100 100 100 101 101 102 103 104 104 105 105 105 105 105 105 105 105 105 104 105 105 107 108 109 110 109 109 108 108 108 109 111 113 115 117 119 121 122 124 125
101 101 101 102 102 102 103 104 105 106 106 106 106 107 107 106 106 106 106 106 106 107 108 109 110 111 111 110 110 110 110 111 112 115 117 119 121 123 124 126 127 128
102 103 103 103 104 105 106 106 107 108 108 108 108 108 108 107 107 107 107 107 108 110 111 112 113 112 112 112 112 112 113 114 117 119 121 123 125 126 127 128 129 129
104 105 105 106 107 108 108 109 109 109 109 109 109 109 108 108 108 108 109 109 111 112 113 114 114 114 113 114 114 116 117 119 121 123 125 127 128 129 129 129 129 128
107 107 108 109 110 111 111 111 111 111 110 110 110 110 109 109 110 110 111 112 113 114 114 114 115 115 115 116 118 120 122 124 125 127 128 129 130 130 130 129 127 125
109 110 111 112 112 112 113 113 112 112 112 111 111 111 111 111 112 113 114 115 115 115 115 116 117 118 119 120 122 125 127 128 129 130 131 131 131 131 129 127 125 123
111 112 113 113 114 114 114 114 114 113 113 112 112 112 113 113 114 115 116 117 117 117 117 118 119 121 122 124 127 129 131 132 133 133 133 132 131 129 127 125 123 121
113 114 115 116 116 116 116 115 115 115 114 114 114 114 115 116 117 117 118 118 119 119 119 120 122 124 127 129 131 133 134 135 135 134 133 131 129 127 125 123 121 120
117 117 118 118 118 118 117 117 117 117 117 116 117 117 118 119 119 119 119 120 120 121 122 123 126 129 132 134 135 136 136 136 135 133 131 128 126 124 123 122 121 120
120 120 120 120 119 119 118 118 119 119 119 119 120 120 120 121 121 121 122 122 123 124 126 128 130 133 135 137 138 138 137 136 134 131 129 126 124 123 122 121 121 120
122 121 121 120 120 120 120 120 121 122 122 122 122 122 122 122 123 123 124 126 127 129 131 133 134 136 138 138 138 138 136 134 132 130 128 126 124 123 122 122 122 123
122 121 121 121 121 121 122 123 123 124 124 124 124 124 124 125 125 126 127 129 132 134 136 137 137 138 138 137 136 135 134 132 131 128 126 125 124 123 124 124 125 127
123 123 123 123 123 124 124 125 125 125 126 126 126 127 127 128 129 131 132 134 136 138 139 139 139 138 137 135 133 132 131 130 129 127 126 126 125 125 126 127 128 130

ECMWFNIL_250_spd_093.txt.gz
Wind_Speed
74 75 75 75 75 76 76 77 78 78 78 78 78 77 76 76 76 76 76 76 76 77 79 81 82 84 85 86 87 88 90 90 91 91 91 90 90 89 89 89 89 89
77 78 78 78 78 78 79 79 80 81 80 80 79 79 78 78 78 78 78 78 79 80 81 83 84 86 86 88 89 91 92 92 93 93 92 92 92 91 91 91 91 91
80 81 81 81 81 81 81 81 82 83 82 81 81 81 80 80 80 80 80 81 81 82 84 85 87 88 89 90 91 92 93 94 95 95 94 94 94 93 93 92 92 93
83 83 83 83 83 83 83 84 85 85 84 83 83 83 83 83 83 83 83 83 84 85 87 89 90 91 92 93 93 94 95 96 97 97 97 96 96 95 95 94 94 95
86 86 86 85 85 85 86 86 87 87 86 86 86 86 86 86 86 86 86 86 87 89 90 92 93 94 94 95 96 96 97 98 98 99 99 99 99 98 97 97 97 97
88 88 88 88 88 88 88 89 89 89 89 89 90 90 89 89 89 89 90 90 91 92 93 95 96 96 97 97 98 98 99 100 101 101 101 101 101 101 100 100 100 100
91 90 90 90 90 91 91 91 92 92 92 92 92 92 92 92 92 93 93 93 94 95 96 97 98 99 99 99 100 101 101 102 103 104 104 103 103 103 103 103 103 103
92 92 92 92 93 93 93 94 94 95 95 95 95 95 95 95 95 95 96 96 97 98 99 100 100 101 101 102 102 103 104 106 106 106 105 105 105 105 105 105 105 105
94 94 94 95 95 96 96 97 97 98 98 98 98 98 97 98 98 98 99 99 100 100 101 102 103 103 104 105 105 106 107 108 108 108 107 107 107 107 108 107 107 107
96 97 97 98 98 99 99 100 100 101 101 101 100 100 100 100 101 101 101 102 102 103 103 104 105 106 107 107 107 108 109 109 110 110 110 110 110 110 110 110 109 110
99 99 100 100 101 102 102 103 103 103 103 103 103 103 103 103 103 103 104 104 104 105 105 107 108 109 109 109 109 110 110 111 111 112 112 112 112 112 112 112 112 113
101 101 102 103 104 104 105 105 105 105 105 105 105 105 105 105 105 105 106 106 106 107 108 109 110 110 110 110 111 111 112 113 113 114 114 114 114 114 114 114 115 116
103 104 104 105 106 107 107 107 108 108 108 108 108 108 107 108 108 108 108 108 108 109 110 111 112 112 112 112 113 114 114 115 116 116 116 116 116 116 116 117 117 118
106 106 107 108 108 109 109 110 110 110 110 110 110 110 110 110 110 110 110 110 110 111 112 113 114 114 114 115 115 117 117 118 118 118 118 118 118 118 119 119 120 121
108 109 109 110 111 111 111 112 112 112 112 112 112 112 112 112 111 111 111 111 112 112 113 115 116 116 117 118 119 120 120 120 120 120 120 119 120 120 121 122 122 123
110 111 112 112 112 113 113 113 113 113 113 113 113 113 113 113 113 113 113 113 113 114 116 117 118 119 120 121 122 122 122 122 121 121 121 121 122 122 123 123 124 124
112 113 113 114 114 114 114 114 114 114 115 115 115 115 115 115 115 115 114 115 115 116 118 119 121 122 123 123 124 124 124 123 122 122 122 123 123 124 124 125 125 125
113 114 114 115 115 115 115 116 116 116 116 117 117 117 117 116 116 116 116 117 118 119 121 122 123 124 125 126 126 126 126 125 124 124 124 125 125 126 126 126 126 127
114 115 115 116 116 117 117 118 118 118 119 118 118 118 118 118 118 118 119 120 122 123 123 124 125 127 128 128 128 128 128 128 127 127 127 127 127 128 128 128 128 129
116 117 117 118 119 119 120 120 121 121 120 120 119 119 119 120 120 121 122 124 125 125 125 126 127 129 130 130 130 130 130 130 130 130 129 129 129 130 130 131 132 132
119 119 120 120 121 122 122 122 122 122 121 121 121 121 122 122 123 124 125 126 127 127 127 128 129 130 131 131 132 132 133 132 132 132 131 131 131 132 134 135 136 137
121 121 122 123 124 124 124 124 123 123 123 123 123 123 124 125 126 126 127 128 129 129 129 129 129 131 132 133 133 134 134 134 134 134 133 133 134 136 138 139 141 142
123 124 124 125 125 125 125 125 125 125 125 125 125 126 126 127 128 128 129 129 130 130 130 130 130 131 133 134 134 135 135 136 136 136 137 138 139 140 142 143 144 146
125 126 126 126 126 126 126 127 127 127 127 127 127 128 128 128 129 129 130 130 131 131 131 131 131 132 133 134 135 136 137 138 140 141 142 143 144 145 146 146 147 148
127 127 127 127 127 128 128 128 128 128 128 129 129 129 129 129 130 130 130 131 131 132 132 132 132 132 134 135 137 139 141 143 145 147 148 149 149 149 148 148 148 148
128 128 128 128 128 128 128 128 129 129 129 129 130 130 130 130 131 131 131 131 131 132 133 134 134 135 136 138 140 143 146 148 150 151 152 153 153 152 150 149 148 147

ECMWFNIL_250_spd_096.txt.gz
Wind_Speed
76 77 78 79 80 80 80 79 78 79 80 80 81 82 82 83 83 84 84 84 85 85 86 87 88 88 89 89 90 90 91 92 92 92 92 93 94 95 96 98 99 100
80 81 82 82 83 83 83 83 82 82 82 83 84 84 85 86 86 87 87 87 87 88 89 89 90 91 92 92 93 94 95 95 95 96 96 96 97 98 99 100 101 102
84 84 85 85 86 86 86 86 86 86 86 87 87 87 88 88 89 90 90 90 90 90 91 92 93 94 94 95 96 97 98 98 99 99 99 100 100 100 101 101 102 103
87 88 88 88 88 89 89 89 89 89 90 91 91 91 91 91 92 93 94 94 94 94 94 94 95 96 97 98 98 99 100 101 101 101 102 103 103 103 104 104 104 105
90 91 90 90 90 91 91 91 92 93 94 95 95 95 94 95 95 96 97 97 97 97 97 97 98 98 99 100 101 101 102 103 103 103 104 105 105 106 106 106 106 107
93 93 93 93 93 93 93 94 94 95 96 98 99 99 98 98 98 99 99 99 99 100 99 100 100 101 102 103 103 104 104 105 105 105 106 106 107 108 108 108 108 108
96 96 96 95 95 95 96 96 97 98 99 101 102 102 101 100 101 101 101 101 102 102 102 102 103 103 104 105 105 106 107 107 107 108 108 109 110 110 111 110 110 110
99 99 98 98 98 98 98 99 99 101 102 104 105 104 103 103 103 103 103 103 103 104 104 104 105 106 106 107 107 108 108 109 110 110 111 111 112 112 112 112 112 111
101 101 101 101 101 101 101 101 102 103 105 106 107 106 105 104 104 105 105 105 105 105 106 106 107 108 109 109 109 110 110 111 111 112 113 113 113 114 114 113 113 113
104 104 104 104 104 104 104 105 106 106 107 109 109 108 106 106 106 106 107 107 107 107 108 108 109 110 110 111 111 112 112 113 113 114 114 115 115 115 114 114 114 114
107 107 107 107 107 107 107 108 109 109 110 111 110 109 108 108 108 108 109 109 109 109 109 110 111 112 113 113 114 114 114 115 115 116 116 116 116 116 115 115 115 116
109 109 109 109 109 109 110 111 111 112 113 113 111 110 110 110 110 111 111 111 111 111 111 112 114 115 116 116 116 116 116 117 117 117 118 118 117 117 117 117 118 118
111 112 112 112 112 112 113 113 113 114 114 114 113 112 112 112 112 113 113 113 113 113 114 116 117 118 119 119 118 118 118 118 119 119 119 119 119 119 119 120 120 121
114 114 114 114 114 115 115 115 115 116 116 115 114 114 114 114 115 115 115 116 116 117 118 119 120 120 120 120 120 119 119 120 120 121 120 120 120 120 121 122 122 123
116 117 117 117 117 117 116 116 117 117 117 116 116 116 116 116 117 117 118 118 119 119 120 121 122 122 121 121 121 121 121 122 122 121 121 121 121 122 122 123 124 125
118 118 118 118 118 118 118 118 119 118 118 118 118 118 118 119 119 120 120 120 120 121 122 123 123 123 123 122 123 123 123 122 122 122 122 122 123 123 124 125 126 127
119 119 119 119 118 118 119 120 120 120 120 120 120 121 121 121 121 121 122 122 122 122 123 123 124 124 125 125 125 125 124 123 123 123 123 124 124 125 125 126 127 128
119 119 119 119 119 120 121 121 121 122 122 122 122 122 122 123 123 123 123 123 123 123 124 124 125 126 127 127 127 126 126 126 126 126 126 126 127 127 127 128 128 128
120 120 120 121 122 122 123 123 123 123 123 124 124 124 124 124 124 124 124 125 125 125 125 126 127 128 128 128 128 128 128 128 129 129 129 129 129 130 130 130 130 131
122 122 122 123 124 124 125 125 125 125 125 125 125 125 125 125 125 126 126 126 127 127 127 128 128 128 129 129 130 130 131 131 131 131 131 131 131 132 132 133 133 134
124 124 125 125 126 126 126 126 126 126 126 126 126 126 126 127 127 127 128 128 129 129 128 128 129 129 130 131 132 132 133 133 133 133 133 133 134 134 135 136 136 137
125 126 127 127 127 127 127 127 127 127 127 127 127 128 128 128 129 129 129 129 130 129 129 128 129 131 132 133 134 135 135 135 135 136 136 136 136 136 137 138 138 139
127 128 128 128 128 128 128 128 128 129 129 129 129 129 130 130 130 130 130 130 130 130 130 130 131 132 134 135 136 137 137 138 138 138 138 138 138 138 138 139 140 142
129 130 130 130 130 130 130 130 131 131 131 131 130 130 130 130 130 130 130 130 131 131 132 132 132 133 135 137 138 139 140 140 140 140 140 140 140 140 141 141 143 145
131 131 131 131 131 132 132 132 132 131 131 131 131 130 130 130 130 130 131 131 132 133 133 134 134 135 136 138 140 141 142 142 143 143 143 144 144 144 144 145 147 150
132 132 132 132 132 132 132 132 131 131 131 131 131 131 131 131 131 131 131 132 133 134 135 136 137 137 138 139 141 142 143 144 145 147 147 148 149 149 149 150 152 153

ECMWFNIL_250_spd_102.txt.gz
Wind_Speed
75 74 74 74 75 76 77 79 80 80 80 80 81 82 84 85 86 87 88 88 87 86 85 86 86 88 89 91 92 94 96 99 100 102 103 105 106 108 110 111 112 114
77 77 77 77 77 78 80 82 83 83 83 83 84 85 87 88 90 90 91 90 89 88 88 89 90 91 92 94 95 97 100 102 103 104 106 107 109 111 113 114 115 116
79 80 80 80 80 82 83 85 85 86 86 87 88 90 91 93 93 93 92 91 90 90 91 92 93 95 96 97 99 102 103 105 106 107 108 110 112 114 115 116 118 119
81 82 83 84 84 85 86 87 88 89 91 92 93 94 95 96 96 95 94 93 93 93 94 96 97 98 100 101 103 105 106 107 108 110 111 113 114 116 118 119 120 121
83 85 86 87 87 88 89 91 92 94 95 96 97 98 98 98 97 96 96 95 96 97 98 99 101 102 104 105 106 108 109 110 111 113 114 116 117 119 121 122 123 124
85 87 88 89 90 91 92 94 96 98 99 100 101 101 100 99 99 98 98 98 99 100 101 102 104 105 106 108 109 110 111 112 114 115 117 118 120 122 124 125 126 126
87 89 90 91 92 93 95 98 100 101 103 103 103 102 102 102 101 101 101 101 102 103 104 105 107 108 109 110 111 112 114 115 117 118 119 121 123 125 126 127 128 128
90 91 92 93 95 96 99 101 103 105 106 106 105 104 104 104 104 104 104 104 105 106 107 108 110 111 112 113 114 115 116 118 119 120 122 124 126 128 129 129 130 130
92 93 95 96 97 99 101 103 105 107 107 107 107 107 107 107 107 107 108 108 108 109 110 112 113 114 115 116 117 118 119 120 121 123 125 127 129 130 131 131 131 131
94 96 97 98 100 102 103 105 107 108 109 109 109 109 109 110 110 111 111 111 112 112 113 115 116 117 118 119 119 120 121 123 124 126 128 129 131 132 132 132 132 132
98 99 100 101 103 104 105 107 109 110 110 111 111 111 112 112 113 114 114 115 115 116 117 118 119 120 120 121 122 123 124 125 127 129 130 132 133 133 134 133 133 133
101 102 103 104 105 106 108 109 110 111 112 113 114 114 114 115 116 117 118 118 119 119 120 121 121 122 123 123 124 125 126 128 129 131 132 134 135 135 135 134 134 133
105 106 106 107 108 109 110 111 112 114 115 115 116 117 117 118 119 120 120 121 122 122 122 123 124 124 125 125 126 127 129 130 132 133 134 135 135 135 135 134 133 132
108 109 109 110 111 112 112 113 114 116 116 117 118 119 120 121 121 122 123 123 124 124 124 125 126 126 127 127 128 129 131 132 133 135 135 136 136 135 134 133 133 133
111 112 112 113 114 114 115 115 116 117 118 119 120 121 122 123 124 125 125 125 125 126 126 127 127 128 129 129 130 132 133 134 135 136 136 135 135 134 133 133 133 134
114 115 115 116 116 117 117 118 119 119 120 121 122 123 124 125 126 126 126 126 127 127 128 128 129 130 131 131 132 133 134 135 136 136 136 135 133 132 132 133 134 135
116 117 117 118 118 119 119 120 121 122 122 123 124 125 126 127 127 127 128 128 128 129 130 130 131 132 133 133 134 135 136 136 136 136 135 134 133 133 133 134 135 136
118 119 119 120 120 121 121 122 123 123 124 125 126 127 127 127 128 128 129 130 130 131 132 132 133 134 134 135 136 137 137 137 136 134 133 133 134 134 135 136 137 138
120 120 121 122 122 123 124 124 125 126 126 127 127 128 128 128 128 129 130 131 132 133 133 134 134 135 136 137 138 138 137 136 134 134 134 135 136 137 138 139 139 139
122 122 123 124 125 125 126 127 127 128 128 128 128 129 129 129 130 130 131 132 133 134 134 135 135 137 138 139 138 137 135 134 134 135 136 137 139 140 140 140 140 140
124 125 125 126 127 127 128 129 129 129 129 129 130 130 131 131 132 132 133 134 134 135 136 137 138 139 139 138 137 135 135 135 136 137 138 139 140 140 141 141 143 144
126 127 127 128 129 129 130 130 130 130 130 131 131 132 132 133 133 134 134 135 136 137 139 140 140 140 138 137 136 135 136 137 138 139 139 139 140 141 143 145 147 148
128 129 129 130 130 131 131 131 131 131 131 132 132 132 133 134 134 135 136 137 139 140 141 140 139 138 137 136 137 137 138 139 139 139 139 140 142 144 146 147 148 149
130 131 131 131 131 132 132 132 132 132 132 132 133 133 134 135 136 137 139 140 141 140 140 138 137 137 137 138 139 139 139 139 140 140 142 143 145 146 147 147 147 147
132 132 132 132 132 132 132 132 132 132 133 133 134 134 135 136 138 139 140 140 140 138 138 137 137 138 138 139 140 140 141 142 143 144 145 146 146 145 145 145 145 146
133 133 132 132 132 132 132 132 132 133 133 134 135 136 137 138 139 139 139 138 138 138 138 138 138 139 140 141 142 143 145 146 147 147 146 145 145 144 143 143 144 145

ECMWFNIL_250_spd_105.txt.gz
Wind_Speed
67 68 70 72 73 74 76 77 79 80 80 81 81 81 81 83 84 85 86 87 88 89 90 92 93 94 96 97 98 100 101 102 103 103 104 105 105 106 108 109 110 111
73 74 75 76 77 78 79 81 81 82 82 83 83 83 85 86 88 89 90 90 91 92 93 94 95 97 98 99 100 102 103 104 105 106 107 108 109 110 111 112 113 114
76 77 78 79 79 80 81 82 83 84 85 85 85 86 88 89 91 92 93 93 94 95 96 97 98 99 100 101 103 104 106 107 108 109 110 111 112 113 114 115 116 117
78 79 79 80 80 81 82 84 86 87 87 88 88 90 91 93 94 95 96 96 97 98 99 100 101 102 103 104 106 107 109 110 111 112 113 114 115 116 117 118 119 121
80 80 81 81 82 84 85 86 88 89 90 91 92 93 94 96 97 98 98 99 100 101 102 103 104 105 106 108 109 110 111 112 113 114 115 116 118 119 120 121 122 123
82 82 83 84 86 87 88 89 91 92 92 93 95 96 97 99 100 101 101 102 103 104 104 105 107 108 109 111 112 113 114 115 116 117 118 119 120 121 123 124 125 126
84 85 86 88 89 90 90 92 94 94 95 96 97 99 100 101 102 103 104 105 106 106 107 108 109 111 112 113 114 115 116 117 118 119 120 121 123 124 126 127 127 128
88 89 90 91 92 92 93 95 96 97 97 98 99 101 102 104 105 106 107 108 108 109 110 111 112 114 115 116 117 117 118 120 121 122 123 124 126 127 128 129 130 130
90 91 92 93 94 95 96 98 99 100 100 101 102 103 105 106 107 108 109 110 111 112 113 113 115 116 117 118 119 120 121 122 123 125 126 127 129 130 131 131 132 133
92 93 94 96 97 98 100 101 102 102 103 103 104 105 107 108 109 110 111 112 114 115 115 116 117 119 120 121 122 123 124 125 126 128 129 130 132 132 133 134 134 135
94 96 97 98 100 102 103 104 104 105 105 106 107 108 109 110 111 112 114 115 116 117 118 118 120 121 123 124 125 126 127 128 129 130 132 133 134 134 135 136 136 137
97 98 100 101 103 104 105 106 107 107 108 109 109 110 111 112 113 115 116 118 119 119 120 121 123 124 126 127 128 129 130 131 132 133 134 135 136 136 137 137 138 138
100 101 102 104 105 106 107 108 109 110 110 111 112 112 113 114 115 117 118 120 121 122 123 124 126 127 129 130 131 132 133 134 135 136 136 137 137 138 138 138 139 139
103 105 106 107 108 108 109 110 111 112 113 113 114 114 115 116 117 119 121 122 124 125 126 127 128 130 132 133 134 135 135 136 137 138 138 139 139 139 139 140 140 140
107 108 109 110 110 111 112 113 114 114 115 115 116 117 117 118 119 121 123 125 126 128 129 130 131 133 134 135 136 136 137 138 139 139 139 139 139 140 140 140 141 141
110 111 112 112 113 114 114 115 116 117 117 118 118 119 120 121 122 124 126 128 129 131 132 133 134 135 135 136 137 137 138 139 140 140 140 139 140 140 140 141 141 142
113 113 114 115 116 116 117 118 118 119 120 120 121 121 122 124 126 128 130 131 133 134 134 135 135 136 136 137 138 139 140 140 140 140 140 140 140 140 140 141 141 142
114 115 116 117 118 118 119 120 121 121 122 123 124 125 126 128 130 131 133 134 135 136 136 136 137 137 137 138 139 140 140 140 140 140 140 140 140 140 140 141 141 142
116 117 118 119 119 119 120 121 122 123 124 125 127 128 130 131 133 134 136 137 137 137 138 138 138 138 139 140 141 141 141 140 140 140 140 140 140 140 141 141 142 142
118 119 120 120 120 121 122 123 124 125 127 128 130 131 133 134 135 137 138 139 139 139 139 139 139 139 140 141 141 141 141 141 141 141 141 141 141 141 142 142 143 143
121 122 122 121 122 123 123 125 126 128 129 131 132 133 135 136 138 139 139 140 139 139 139 139 140 140 141 141 141 141 141 141 141 141 141 141 142 143 143 143 144 145
123 123 123 123 124 125 126 128 129 131 132 133 134 135 136 138 139 140 140 140 140 139 139 140 140 141 141 141 141 141 141 141 141 141 142 142 143 144 144 145 146 147
125 125 126 126 127 128 130 131 132 133 134 135 136 137 138 139 140 140 140 140 139 140 140 140 141 142 142 141 141 141 141 141 142 142 143 143 144 144 145 146 147 148
127 128 129 129 130 131 132 132 133 134 135 136 137 138 139 139 139 139 139 139 139 140 141 141 142 142 142 142 142 142 142 142 142 143 143 143 144 145 146 147 149 149
130 130 131 131 132 132 133 134 134 135 136 137 138 138 139 139 139 139 139 140 140 141 142 142 142 142 142 142 142 142 142 142 142 142 143 143 144 145 147 148 149 149
131 131 131 132 133 133 134 134 135 136 137 137 138 138 138 138 139 139 140 141 141 142 142 142 143 143 143 143 143 143 143 142 142 143 143 144 145 146 147 147 147 147

ECMWFNIL_250_spd_108.txt.gz
Wind_Speed
70 71 70 70 69 69 69 70 71 72 73 74 76 77 78 79 81 83 84 85 87 89 90 92 93 94 95 97 98 99 99 100 101 102 104 105 107 108 109 110 112 114
73 73 72 71 70 70 71 72 73 75 76 77 78 80 81 82 84 85 86 88 89 91 93 94 95 96 98 99 100 101 102 103 105 106 107 108 109 110 112 113 115 117
75 76 74 73 73 73 74 75 76 77 78 79 81 82 83 84 86 88 89 91 92 94 95 96 97 98 100 101 103 104 105 106 108 109 110 111 112 113 115 117 118 120
78 77 77 76 76 76 76 77 78 79 80 81 83 84 85 87 89 90 92 93 95 96 98 99 100 101 102 104 105 107 108 109 111 112 113 114 115 116 118 120 121 123
79 79 78 79 79 79 79 80 80 81 82 83 84 85 87 89 91 92 94 96 98 99 100 102 102 103 105 106 107 109 111 113 114 115 116 117 118 119 121 122 124 126
81 81 81 81 81 81 82 83 84 84 85 85 86 88 90 92 94 96 97 99 100 102 103 104 105 106 107 108 109 111 113 114 116 117 118 119 121 122 124 125 127 128
84 84 84 84 84 85 85 86 86 86 86 87 88 91 93 95 97 99 100 102 103 105 106 107 108 108 109 110 111 114 116 116 117 118 120 122 123 125 126 128 129 131
87 87 87 87 87 88 88 88 87 87 88 89 92 94 96 98 99 101 103 104 106 107 109 110 110 110 111 112 114 117 118 119 120 121 123 124 126 127 129 131 132 134
89 89 89 89 88 88 88 88 88 89 91 93 96 98 99 100 102 103 105 107 108 110 111 111 112 112 113 114 117 119 121 122 123 124 126 127 129 130 132 133 135 136
91 91 91 90 90 89 90 90 91 93 95 98 100 101 102 103 105 106 108 109 111 112 113 113 113 114 115 117 120 122 124 125 126 127 129 130 132 133 135 136 138 139
93 93 92 92 92 92 93 94 95 97 99 102 103 104 105 106 107 108 110 112 113 114 114 115 115 116 117 120 123 125 127 128 129 130 132 133 135 136 137 138 140 141
94 94 94 94 94 94 95 97 99 101 104 105 106 107 108 108 109 110 112 114 115 115 116 117 117 118 120 123 126 128 129 131 132 133 135 136 137 138 139 140 141 142
95 95 94 95 95 97 99 101 104 106 107 108 108 109 110 110 111 112 115 116 116 117 118 118 119 120 123 126 128 130 132 133 134 136 137 138 139 140 141 142 143 144
96 95 95 96 98 101 104 106 107 108 109 110 110 111 111 112 112 115 117 117 117 118 119 120 121 123 126 128 131 133 134 135 137 138 139 140 141 142 142 143 144 145
97 98 99 101 104 107 108 109 110 110 111 112 112 112 113 113 115 117 118 118 118 119 120 122 124 126 129 131 133 135 136 138 139 140 141 142 143 143 144 144 145 145
100 102 104 107 109 110 111 111 112 113 113 113 113 113 114 115 117 118 118 118 119 121 123 125 127 129 131 133 135 137 138 140 141 142 143 143 144 144 144 145 145 145
104 107 109 111 111 112 113 114 114 114 114 114 114 115 116 118 118 118 119 120 122 124 126 128 130 132 133 135 137 139 140 142 143 143 143 144 144 144 144 145 145 146
108 110 112 112 113 114 115 115 116 116 115 115 116 117 119 119 119 120 121 123 125 127 129 130 132 134 135 137 139 141 142 143 143 143 143 143 143 143 144 145 146 147
111 112 113 113 114 115 116 116 117 117 117 117 118 120 121 121 121 123 125 126 128 130 131 132 134 135 137 139 141 143 143 143 143 143 143 143 143 143 144 146 147 148
112 113 114 114 115 116 117 117 117 118 118 119 121 122 123 124 125 126 128 130 131 132 133 135 136 137 139 141 142 143 143 142 142 142 142 142 143 144 146 147 148 148
113 114 115 116 117 117 118 118 119 120 121 123 124 126 127 128 129 130 131 132 133 134 135 137 138 139 141 142 142 142 141 141 141 141 142 143 144 146 147 148 148 149
115 116 116 117 118 118 119 121 122 123 125 127 129 130 131 131 131 132 133 133 134 136 137 138 139 141 141 141 141 140 140 140 140 141 143 145 146 148 148 149 149 149
117 117 118 118 120 121 122 124 125 127 129 130 132 132 132 132 133 134 134 135 136 137 138 140 141 141 140 139 139 139 139 140 141 143 145 146 148 149 149 149 149 149
119 119 120 121 123 124 125 126 128 130 131 132 133 133 133 134 135 135 136 136 137 138 140 140 140 139 138 138 138 138 140 142 143 145 146 147 148 149 149 149 149 149
122 123 124 125 126 127 128 130 131 132 133 133 134 134 135 135 135 136 136 137 138 139 139 139 138 137 137 137 138 140 141 143 145 146 147 148 148 148 148 148 148 148
125 126 127 128 129 130 131 132 133 133 134 134 135 135 136 136 135 136 137 138 138 138 137 136 136 137 138 139 140 141 143 144 145 146 146 147 147 147 147 146 147 147

ECMWFNIL_250_spd_111.txt.gz
Wind_Speed
63 64 65 65 66 67 69 70 71 72 73 74 75 75 76 77 77 77 77 78 79 81 82 83 85 88 89 90 91 92 92 93 95 97 99 99 100 101 102 104 107 108
67 68 68 68 70 71 72 72 72 73 75 76 77 78 79 80 80 79 79 80 82 84 86 87 89 90 91 92 93 93 94 96 98 100 101 101 103 105 106 107 110 112
69 70 71 71 71 72 72 72 73 75 78 79 79 80 81 82 82 81 81 82 85 88 89 91 92 92 93 93 94 95 96 98 100 102 103 105 107 108 109 110 112 114
70 71 72 71 71 71 72 74 76 78 79 80 80 82 84 84 84 83 83 85 88 90 92 93 94 94 95 95 96 97 99 100 102 104 106 108 109 110 111 113 115 117
71 72 73 73 74 75 76 77 79 80 81 82 83 85 86 86 86 85 86 88 91 93 95 95 96 96 96 97 98 99 101 102 105 107 109 110 111 112 114 115 118 120
74 75 76 77 78 79 80 81 83 84 84 85 87 88 88 88 88 88 89 91 94 96 98 98 98 98 99 100 101 102 103 105 108 110 111 112 113 114 116 118 120 122
79 80 80 81 81 82 84 85 86 87 87 88 89 90 90 90 90 91 93 95 97 99 101 101 100 100 101 102 103 104 106 109 111 112 113 114 115 117 119 121 123 124
82 83 84 84 84 84 85 86 87 88 89 91 92 92 93 93 93 95 97 99 100 102 104 104 103 103 104 104 105 107 110 111 113 114 115 116 117 119 122 123 125 127
84 86 86 85 85 86 87 88 90 91 92 93 94 94 95 96 97 99 101 103 104 105 106 106 106 106 106 107 108 110 112 113 115 116 117 118 120 122 124 126 127 129
87 88 88 88 89 89 90 91 92 93 94 95 96 96 97 98 100 102 104 106 106 107 107 107 108 107 108 109 111 113 114 115 116 117 118 120 122 124 126 128 130 131
90 90 91 92 93 93 93 94 95 96 96 97 97 98 99 101 103 105 106 107 107 108 108 109 109 109 109 111 113 114 115 116 117 118 120 122 125 126 128 130 132 134
93 93 94 95 95 95 96 97 97 98 98 99 100 101 102 104 105 106 107 108 109 109 110 110 110 110 111 114 115 115 116 117 118 120 122 125 127 129 130 132 134 136
95 95 96 97 97 98 99 100 100 101 101 102 103 104 105 106 107 108 109 110 110 111 111 112 112 112 113 115 116 116 117 118 120 122 125 127 129 131 132 134 136 138
96 97 98 99 100 101 102 102 103 103 104 105 105 105 106 107 108 110 111 111 112 112 112 112 112 113 115 116 116 117 119 121 123 125 127 129 131 132 134 136 138 140
98 98 99 100 101 102 103 104 104 105 106 106 106 107 107 108 110 111 112 112 112 112 112 113 113 114 116 117 118 119 121 123 126 127 129 131 133 134 136 138 140 141
100 100 101 102 103 103 104 105 106 107 108 108 109 109 109 110 111 112 113 112 112 112 112 113 115 116 117 119 120 122 124 126 128 129 131 133 135 137 139 140 141 141
102 103 103 103 104 105 106 108 109 110 110 111 111 110 111 111 112 113 113 112 112 113 114 116 117 118 120 122 124 126 127 129 130 132 134 136 137 139 141 141 142 142
104 105 105 106 106 107 109 110 110 111 111 111 111 111 112 112 113 113 113 113 114 116 117 118 120 122 124 125 127 129 130 132 133 135 136 138 140 141 142 142 142 142
106 106 107 107 108 109 110 110 111 111 112 112 112 111 111 112 112 113 114 115 117 119 120 122 124 126 128 129 130 131 133 134 135 137 138 140 141 142 142 142 142 143
107 107 108 108 109 110 110 111 112 112 112 112 111 111 111 112 113 115 117 118 120 122 124 126 128 129 131 132 133 134 135 136 137 138 139 140 141 142 142 142 142 143
108 108 108 109 110 110 111 112 113 113 113 112 111 112 113 114 116 118 120 122 124 126 128 129 131 132 134 135 136 136 136 137 138 139 140 141 141 141 141 141 142 143
109 109 109 110 110 111 112 114 114 114 114 114 114 115 116 118 121 123 125 127 128 130 131 132 134 135 136 136 136 136 137 137 138 139 140 141 141 141 141 141 142 143
112 112 112 112 113 114 115 116 116 116 117 117 118 120 122 124 126 127 129 130 131 133 134 135 135 136 137 136 136 136 137 138 139 140 141 140 140 140 141 142 143 144
115 115 116 116 117 118 119 119 120 120 121 122 123 124 126 127 129 130 131 132 133 134 134 135 135 136 136 135 135 136 137 138 139 140 140 140 140 140 141 143 144 145
118 119 120 121 122 122 123 123 124 124 125 126 126 127 128 129 130 131 132 132 133 133 134 134 134 134 135 135 136 137 138 138 139 139 139 139 140 141 143 144 145 145
122 123 123 124 125 125 126 126 126 127 127 127 128 128 129 130 130 131 132 132 133 133 133 133 133 134 134 135 136 137 137 138 138 138 139 140 141 142 143 144 145 145

ECMWFNIL_250_spd_114.txt.gz
Wind_Speed
71 70 70 70 70 70 71 72 73 73 72 72 72 72 73 72 72 73 74 74 73 74 75 78 82 84 87 89 90 90 90 90 91 92 93 95 96 97 99 100 101 102
72 72 72 72 72 73 73 73 74 74 74 74 74 74 75 74 73 74 74 74 74 76 80 83 86 87 89 90 90 90 91 92 93 95 96 97 98 99 100 101 103 104
74 74 74 75 75 75 75 75 76 76 77 77 77 77 77 75 74 76 77 78 80 83 86 88 89 90 91 90 90 91 93 95 96 97 98 100 100 101 102 104 105 106
78 78 78 78 77 77 77 77 78 79 80 80 81 81 80 78 78 79 81 83 85 87 89 90 90 91 92 91 92 93 96 97 99 100 101 102 103 104 105 106 107 107
82 82 81 81 80 80 80 80 80 81 82 83 83 83 82 82 82 83 84 86 88 88 89 90 92 93 93 94 95 96 98 100 101 102 103 104 106 106 107 108 108 109
85 85 84 83 83 83 82 82 82 83 84 84 84 84 84 84 85 85 87 88 89 89 90 92 94 95 96 97 98 99 101 102 104 105 106 107 108 109 109 109 110 110
87 87 87 86 85 85 84 84 84 85 86 87 87 86 86 86 87 88 88 89 90 91 93 95 97 98 99 100 101 102 103 105 106 108 109 109 110 111 111 111 111 111
89 89 88 88 87 86 86 86 87 87 88 89 89 88 88 89 90 91 91 92 93 94 96 98 99 101 102 103 104 104 106 107 108 110 111 111 112 112 112 111 111 112
91 91 91 90 89 88 88 88 88 89 90 91 91 91 92 93 94 95 96 97 97 98 99 101 102 103 104 105 106 107 108 109 110 111 112 112 113 113 112 112 112 114
93 93 93 92 91 91 91 91 91 91 91 92 93 94 95 96 97 99 100 100 101 101 103 104 104 105 105 106 108 109 110 111 112 112 113 113 113 113 113 113 114 116
95 95 95 95 95 95 94 94 93 93 93 94 95 97 98 99 100 101 102 102 103 104 105 105 106 106 107 108 109 110 111 112 113 113 113 113 113 114 114 115 117 119
98 98 98 98 97 97 96 96 95 95 96 97 99 100 101 102 103 104 104 105 106 106 106 107 107 108 109 110 111 112 112 112 112 112 113 114 115 115 116 117 119 122
100 100 99 98 98 97 97 98 98 98 99 100 102 103 104 105 105 106 107 107 107 108 108 109 110 110 111 112 112 112 112 112 112 113 115 115 116 116 118 120 122 124
101 101 100 100 99 100 100 100 101 102 102 103 104 105 106 107 107 108 108 109 109 110 110 111 112 112 112 112 112 111 111 112 113 114 115 115 117 119 121 123 125 126
103 102 102 102 102 102 102 103 104 105 105 105 106 107 108 108 109 109 110 110 111 111 112 112 112 112 112 111 111 111 112 113 114 115 116 117 119 121 124 126 127 128
104 104 104 104 104 104 105 105 106 106 107 107 108 108 109 109 110 110 110 111 111 111 111 111 111 111 111 111 112 112 113 114 115 116 118 120 122 124 126 127 128 129
107 107 106 106 106 106 107 107 107 108 108 108 108 109 109 110 110 110 111 111 111 111 111 110 111 111 111 112 113 114 115 116 118 120 122 123 125 126 127 128 129 131
111 110 110 109 109 109 109 109 109 109 109 109 109 109 110 110 110 111 111 111 111 111 110 111 111 112 112 114 115 117 119 120 122 123 124 125 126 126 127 129 131 133
114 113 112 112 112 111 111 111 111 110 110 110 110 110 110 111 111 111 110 110 110 111 111 111 112 113 115 117 119 121 122 124 125 125 126 126 127 128 129 131 134 136
116 115 115 114 114 114 114 113 113 112 112 112 112 112 112 112 112 111 111 111 111 112 112 113 115 117 119 121 122 124 125 126 126 127 127 127 128 129 131 134 137 140
117 117 117 117 116 116 116 115 115 114 114 114 114 114 114 114 114 114 114 114 114 114 115 116 118 120 121 123 124 125 126 127 127 127 127 128 130 132 135 138 140 142
118 119 119 119 118 118 117 117 116 116 116 116 116 116 116 116 116 116 116 116 116 117 118 119 120 122 123 125 126 126 127 127 127 128 129 131 134 137 139 141 141 142
119 119 119 119 118 118 118 117 117 117 117 117 117 117 117 117 117 117 117 118 119 120 121 122 123 124 125 126 127 127 128 128 129 131 133 135 137 139 140 141 141 141
118 119 119 118 118 117 117 117 117 117 117 118 118 118 119 119 120 120 121 121 122 123 124 125 125 126 127 127 128 129 130 131 133 134 136 137 138 139 140 141 141 140
118 119 120 120 120 119 119 119 119 119 120 120 121 121 122 122 123 123 123 124 125 125 126 127 127 128 129 129 130 131 132 133 134 136 137 138 138 139 139 139 139 138
119 120 121 122 122 122 122 122 122 122 122 123 123 123 124 124 124 125 125 126 127 127 128 129 129 130 131 132 132 133 134 134 135 136 137 137 137 137 137 137 136 135

ECMWFNIL_250_spd_117.txt.gz
Wind_Speed
73 73 74 75 75 75 77 77 78 78 77 77 78 79 80 80 81 82 81 81 81 82 83 84 84 84 85 86 87 87 87 87 87 88 88 89 91 93 93 93 94 96
76 76 76 76 76 77 78 78 78 79 79 79 80 81 80 81 82 83 83 83 84 85 86 87 87 87 87 88 88 88 88 88 88 89 89 90 92 92 93 95 97 100
79 79 78 78 78 78 79 79 79 80 80 81 82 82 82 83 84 85 87 88 89 89 90 91 91 90 90 90 90 89 89 90 90 90 90 91 92 93 96 98 101 103
82 82 81 81 80 80 81 81 82 82 82 83 85 85 85 86 88 89 91 92 93 92 93 93 93 92 91 91 91 90 91 90 90 90 91 93 95 97 100 102 103 105
84 84 84 84 84 83 83 84 84 85 85 86 87 88 88 90 91 92 93 95 95 94 94 94 94 93 93 93 92 91 91 90 91 92 94 96 99 101 103 104 106 108
87 87 87 87 86 86 86 86 87 88 88 89 90 90 91 92 93 94 95 96 96 96 96 96 95 95 95 95 93 92 92 93 94 96 98 100 102 104 106 108 110 111
90 90 89 89 89 89 88 89 90 91 91 92 92 93 93 94 95 96 97 98 98 97 98 98 98 97 97 96 95 95 96 98 99 101 102 103 105 107 109 110 111 112
94 93 92 92 92 91 91 92 93 94 94 94 95 95 96 97 97 98 99 100 100 100 100 101 101 100 99 99 99 100 101 102 102 103 105 106 108 109 111 112 113 113
97 96 96 95 95 94 94 94 95 96 96 96 97 97 98 99 100 101 102 102 103 103 103 103 103 102 102 103 103 103 103 104 104 106 107 108 110 111 112 113 113 113
99 99 99 99 98 98 97 97 97 98 98 98 99 100 101 102 102 103 103 104 105 105 105 105 105 106 105 105 104 104 105 106 107 108 109 110 112 113 113 113 113 112
100 101 102 102 102 101 100 100 101 101 101 101 102 103 103 104 104 105 105 106 107 107 108 107 107 107 107 106 106 107 108 108 109 110 111 112 113 113 113 113 113 113
100 102 103 104 104 104 104 103 104 104 104 105 105 106 107 107 107 107 108 109 109 110 110 109 109 109 109 108 109 110 110 111 111 112 112 113 113 113 113 114 115 116
99 101 103 104 105 106 106 106 106 107 107 107 108 108 109 110 110 110 111 111 112 112 112 112 111 111 111 111 112 112 112 113 113 113 113 113 113 114 115 116 118 119
99 100 102 104 105 107 108 108 109 109 110 110 110 111 111 112 112 112 113 114 114 113 114 114 114 114 114 114 114 114 114 114 114 114 114 114 115 116 118 119 120 120
100 101 101 103 104 106 108 109 111 112 112 113 113 114 114 114 115 115 115 116 116 115 116 116 116 115 115 115 115 115 115 115 115 115 115 116 118 119 120 120 121 121
102 102 103 103 104 105 107 108 110 112 114 115 116 116 117 117 117 117 117 117 117 117 117 117 117 117 117 117 117 116 116 116 116 117 118 119 120 120 121 121 121 122
105 104 104 104 105 105 106 107 108 110 113 115 116 118 119 119 119 120 119 119 119 118 118 118 118 118 118 117 117 116 116 117 118 119 120 120 120 121 121 122 122 122
107 106 106 106 106 106 106 106 107 109 111 113 115 117 119 120 121 122 122 122 121 121 120 120 119 118 117 117 117 118 118 119 120 120 120 120 121 121 122 122 122 122
110 109 108 108 107 107 107 107 107 108 110 111 113 115 117 119 121 122 123 123 123 122 122 121 120 119 119 119 119 120 120 121 121 120 120 120 120 121 122 122 122 122
113 112 111 111 110 110 109 109 109 109 110 111 112 114 115 117 118 120 121 122 122 122 121 120 120 120 120 120 120 120 120 120 120 119 119 120 120 121 121 121 121 121
116 115 114 113 112 112 111 110 110 110 110 111 112 113 114 115 117 118 118 119 119 119 119 119 119 119 119 119 119 119 119 118 119 119 119 120 120 120 120 120 120 121
118 117 116 115 114 113 112 111 111 111 111 111 111 113 114 115 116 117 117 117 117 117 117 117 117 117 117 117 117 117 118 118 119 119 119 119 119 119 119 120 121 122
119 118 118 117 115 114 113 112 111 111 111 111 112 113 114 115 116 117 117 117 117 117 117 117 117 117 116 117 117 117 118 118 118 118 118 118 119 119 120 121 123 124
118 118 117 116 115 114 113 112 111 111 111 111 112 113 114 115 116 117 117 117 117 117 117 117 116 117 117 117 117 117 117 117 118 118 118 118 119 120 121 123 124 125
115 115 115 114 113 112 111 111 110 110 111 111 112 113 114 115 116 117 117 117 117 117 117 117 117 117 117 117 118 118 118 118 118 119 119 119 120 122 123 124 125 126
110 110 110 110 110 109 108 108 109 110 111 112 113 113 114 115 116 117 117 117 118 118 118 118 118 118 119 119 119 119 119 119 119 119 120 120 121 122 123 125 126 127

ECMWFNIL_250_spd_120.txt.gz
Wind_Speed
79 79 78 78 79 80 81 82 82 82 82 82 82 82 82 83 83 82 83 85 87 88 89 89 89 89 89 89 89 90 90 92 94 95 95 96 97 98 98 99 100 100
81 81 81 81 81 81 82 84 84 84 85 85 85 86 86 87 87 86 85 87 89 91 91 92 93 93 92 92 92 93 94 95 96 97 97 98 99 100 101 101 102 102
83 83 83 83 83 83 84 84 85 86 88 88 88 89 89 90 91 90 88 89 91 93 94 94 95 96 96 96 96 96 97 97 98 99 99 100 101 102 103 103 103 104
82 83 84 85 85 85 85 86 87 88 89 90 91 91 92 93 94 93 91 91 93 96 96 96 97 98 99 99 99 100 100 100 101 102 102 102 103 104 104 104 105 105
82 82 83 84 85 86 87 88 89 90 91 92 93 94 94 95 96 95 94 94 95 97 98 98 99 100 101 102 102 103 103 103 103 105 105 105 105 106 106 106 107 107
83 84 84 84 85 86 86 87 89 90 92 93 94 95 96 97 98 97 96 96 98 99 100 101 101 102 103 104 105 105 105 105 106 107 107 107 108 108 108 109 109 109
83 84 85 86 87 87 87 88 88 89 91 92 93 95 97 98 99 98 98 98 99 100 101 102 103 104 105 106 107 108 108 108 108 109 109 110 110 111 111 111 111 110
85 85 86 86 87 88 88 89 89 90 90 91 92 93 95 97 98 99 99 99 101 102 102 103 103 104 106 107 108 109 109 109 110 110 111 112 112 113 113 113 112 112
87 87 88 88 89 89 89 90 90 90 91 91 92 93 94 96 97 98 99 100 101 102 103 104 104 105 107 108 109 110 110 111 111 112 113 113 114 114 115 115 114 114
90 90 90 90 90 91 91 92 92 92 92 93 93 94 94 95 96 97 98 100 101 102 103 104 105 106 108 109 111 111 112 112 113 114 114 115 116 116 116 116 116 115
94 94 93 93 93 93 93 93 93 94 94 95 96 97 97 97 97 98 99 100 101 102 103 104 105 106 108 109 111 113 113 114 115 116 117 117 118 118 117 117 116 115
95 95 95 96 96 96 96 96 96 96 96 97 98 99 99 99 99 100 101 102 103 103 104 105 106 107 108 109 111 113 114 114 115 117 118 118 118 118 118 117 116 116
97 97 97 98 98 99 99 99 99 99 100 100 100 101 101 101 101 102 102 103 104 105 105 106 107 108 109 110 112 113 114 114 115 116 117 117 118 118 118 117 116 116
98 99 99 100 100 101 101 101 102 102 102 103 103 104 104 104 104 104 104 105 105 105 106 107 108 109 110 111 112 113 114 115 116 116 116 117 117 117 117 116 116 117
100 100 101 101 101 102 102 103 104 104 105 105 106 106 107 107 107 107 107 108 108 108 108 108 109 109 110 111 112 113 114 115 116 117 117 117 117 116 116 116 116 117
103 103 103 103 104 104 104 105 105 106 106 107 107 108 109 109 109 109 110 110 110 110 110 110 110 110 110 110 111 112 112 114 115 116 117 117 117 117 116 117 117 118
106 106 107 107 107 107 107 107 107 108 108 109 109 110 110 111 111 111 112 112 112 112 112 112 112 112 111 111 111 111 112 113 114 115 117 117 117 117 117 117 117 117
109 110 110 110 110 110 110 110 110 110 111 111 112 112 113 113 113 114 114 114 114 114 114 114 113 113 113 112 111 111 111 112 113 115 116 116 117 117 117 116 116 116
112 112 112 113 113 113 113 113 114 114 114 114 115 115 115 116 116 116 116 117 117 116 116 116 115 115 114 113 112 112 112 113 113 114 115 116 116 116 116 116 116 116
113 114 114 115 116 116 117 117 117 117 117 117 117 118 118 118 118 118 118 118 118 118 117 116 116 115 114 114 113 113 113 113 113 114 114 114 115 115 115 116 116 116
115 116 117 117 118 119 119 119 119 119 119 119 119 118 118 118 118 118 118 118 118 117 117 116 115 114 114 113 113 112 113 113 113 113 114 114 115 115 115 115 114 113
117 118 119 119 120 120 120 121 120 120 119 118 118 117 116 116 116 116 117 117 116 116 115 114 114 113 112 112 112 112 112 113 113 113 114 114 114 114 113 112 111 110
119 119 119 119 119 119 119 118 117 116 116 115 114 114 113 113 113 113 113 113 113 113 113 112 111 110 109 109 109 109 109 110 110 110 110 110 110 110 109 109 108 108
118 118 117 117 116 114 113 111 110 110 110 110 110 110 110 109 108 108 108 108 108 107 107 106 105 105 104 103 102 102 102 103 103 103 103 104 104 104 104 104 104 105
114 113 112 111 109 107 106 105 104 103 103 103 104 104 104 103 102 101 100 99 99 99 98 98 97 96 96 95 94 94 94 94 95 95 96 97 97 98 99 99 100 101
105 104 103 102 101 100 100 99 98 97 97 96 95 95 95 94 93 93 91 90 90 89 89 89 89 88 88 88 87 87 87 88 89 90 91 92 93 95 96 97 98 99

ECMWFNIL_250_spd_123.txt.gz
Wind_Speed
67 68 69 70 71 73 74 76 77 77 78 80 81 83 84 85 85 85 85 85 86 86 87 89 91 93 94 95 95 96 96 96 97 98 99 98 98 98 98 100 101 102
65 66 67 68 70 72 73 74 75 76 77 78 79 80 82 83 84 84 84 84 84 85 86 87 89 91 93 94 95 95 95 96 96 98 98 98 98 97 98 99 101 101
66 66 67 68 69 70 72 72 74 75 77 78 79 80 82 83 84 85 85 85 85 85 85 86 88 90 92 93 94 94 95 95 96 97 98 98 98 98 99 100 101 102
69 69 69 70 70 71 72 72 74 75 76 78 79 80 82 84 85 86 86 86 86 86 86 87 88 90 92 94 94 94 95 95 96 96 97 97 98 99 99 100 101 102
72 73 73 74 74 74 75 75 76 77 77 78 79 80 82 83 85 86 86 86 86 86 86 86 88 90 92 93 94 94 94 95 96 97 97 98 99 99 100 101 102 103
76 76 77 77 78 78 78 78 79 80 80 80 81 81 82 84 85 86 87 88 88 88 88 88 90 91 93 95 95 95 96 97 98 99 99 100 100 101 102 103 103 104
78 78 79 80 80 81 81 81 82 82 83 83 83 83 84 85 86 87 88 89 89 89 89 90 91 93 95 96 97 98 98 99 100 101 102 102 102 103 104 105 105 106
79 80 80 81 82 82 83 84 84 85 85 86 86 86 87 87 88 89 90 90 90 90 91 91 92 94 95 97 98 99 99 100 101 102 103 104 104 104 105 106 107 108
82 82 83 83 84 85 85 86 86 87 88 88 88 89 89 90 91 92 92 93 93 93 94 94 94 95 96 98 99 100 101 102 103 104 104 105 106 106 107 107 108 109
85 85 86 86 87 88 88 89 89 89 90 90 90 91 91 92 93 94 95 96 96 96 96 97 97 97 98 99 100 102 103 104 105 106 107 107 108 108 108 109 109 110
88 89 89 90 91 91 92 92 92 92 92 92 93 93 94 94 95 95 96 97 98 98 99 100 100 101 102 103 104 105 105 106 107 108 109 110 110 110 110 111 111 111
91 92 93 93 94 94 94 95 95 95 95 95 95 95 95 96 96 97 98 99 100 101 102 103 104 105 106 107 108 108 109 109 110 111 112 112 112 112 113 113 113 114
94 95 95 96 96 96 97 97 97 97 97 98 98 98 98 99 99 100 101 102 103 104 105 106 107 108 109 110 111 112 112 112 113 114 114 115 115 115 115 115 116 116
95 96 96 97 98 98 99 99 99 100 100 100 100 100 101 101 102 103 104 105 106 107 108 110 111 112 113 114 114 115 115 116 116 116 117 117 117 117 117 117 118 118
97 98 98 99 100 101 101 102 102 102 102 102 103 103 103 103 104 106 107 108 109 110 112 113 114 115 117 118 118 118 118 119 119 119 119 119 119 119 118 119 119 118
99 100 101 102 102 103 104 104 104 104 104 104 105 105 106 106 107 108 110 111 112 114 115 116 118 119 120 121 121 121 121 121 120 120 120 119 120 119 119 119 118 118
102 103 103 104 104 105 105 106 106 106 106 107 107 108 109 110 111 112 113 114 116 117 119 120 121 122 122 122 122 122 122 122 121 120 119 118 118 118 118 117 117 116
104 104 105 106 106 107 108 108 108 109 109 110 111 111 112 113 114 115 117 119 120 121 122 122 122 123 123 123 122 121 120 120 119 118 117 116 116 115 114 114 112 111
105 106 107 107 108 109 110 110 111 111 112 113 113 114 115 117 118 119 121 121 122 122 122 122 122 121 121 121 120 119 117 117 117 116 114 113 112 110 109 107 106 104
107 108 109 110 111 111 112 113 113 114 115 115 116 117 119 120 121 121 121 121 121 121 120 119 119 118 117 116 116 115 114 113 113 112 110 108 106 104 102 100 98 97
109 110 111 112 113 114 115 115 116 116 117 118 118 119 119 120 120 120 119 118 117 116 114 113 113 112 111 111 111 110 109 108 107 106 104 102 100 98 96 93 91 89
110 112 113 114 116 116 117 117 117 117 117 117 117 117 117 116 116 115 114 112 111 109 107 107 106 106 105 105 104 104 103 102 101 99 97 96 94 91 89 87 84 83
112 113 115 116 117 117 117 117 116 115 114 114 113 112 111 110 109 107 105 104 103 102 101 101 101 100 99 99 98 97 95 94 92 90 88 87 85 83 81 80 78 77
112 114 115 115 115 115 115 114 113 111 110 108 107 105 103 102 100 99 97 97 97 97 96 96 95 94 93 92 91 89 88 87 85 83 81 79 77 76 75 73 72 72
110 111 112 112 111 111 110 108 106 104 102 99 97 96 95 93 92 91 91 91 92 92 91 91 90 89 88 87 86 84 83 81 79 77 76 74 73 72 71 70 69 69
107 108 108 108 107 105 102 99 96 94 91 89 88 87 87 86 86 85 86 86 86 86 86 85 84 84 83 82 82 81 79 78 76 75 73 73 72 72 71 70 70 70

ECMWFNIL_250_spd_129.txt.gz
Wind_Speed
57 57 57 57 58 58 59 59 59 59 60 61 62 64 65 66 68 68 69 70 71 73 74 75 77 78 79 80 81 82 83 83 85 86 87 88 89 91 92 94 95 96
59 59 60 60 60 61 62 62 62 62 63 64 65 66 67 68 70 70 72 73 74 75 77 78 79 80 81 83 83 84 84 85 86 88 89 90 91 93 95 96 98 98
61 61 61 62 63 64 64 64 64 64 65 66 67 68 70 70 71 72 74 75 76 77 78 80 81 82 84 84 85 85 86 87 88 89 91 92 93 95 97 99 100 101
63 63 63 64 65 66 66 66 66 67 67 68 69 70 71 72 73 74 76 77 77 79 80 81 83 84 85 86 87 88 88 89 91 92 93 94 96 97 99 101 102 103
64 65 66 67 67 67 67 67 68 69 69 70 71 72 73 73 75 76 77 78 79 80 82 83 84 85 87 88 89 90 91 92 93 94 95 96 98 100 102 104 105 106
66 67 68 69 69 69 69 69 70 71 71 72 73 73 74 75 76 77 78 79 80 82 83 85 86 87 88 90 91 92 93 94 95 96 98 99 100 102 104 106 108 109
68 69 70 70 70 71 71 72 73 73 74 74 75 76 77 78 78 79 81 82 83 84 85 86 87 89 90 92 93 94 95 96 98 99 101 102 104 105 107 108 110 111
70 71 72 72 72 72 73 74 74 75 76 76 77 78 79 80 81 82 83 84 85 86 87 88 90 91 93 94 94 96 97 99 101 102 104 105 106 108 109 111 112 113
72 73 73 73 73 74 74 75 75 76 77 78 79 80 81 82 83 84 85 86 87 88 89 91 92 94 95 95 97 98 100 102 103 104 106 107 109 110 111 113 114 114
74 75 75 74 75 75 76 76 77 78 79 80 80 81 82 83 85 86 87 88 89 90 92 93 94 95 96 98 100 102 103 104 105 106 107 109 111 112 113 114 115 115
76 76 76 76 76 77 78 79 79 80 81 81 82 83 84 85 86 88 89 90 91 93 93 94 95 97 99 101 103 104 105 106 107 108 110 111 112 114 114 115 115 115
78 78 78 79 79 80 80 81 81 82 83 83 84 85 86 87 88 90 91 92 93 94 95 97 98 100 102 103 104 105 106 107 108 110 111 112 113 114 115 115 115 113
80 81 81 81 81 82 82 83 84 84 85 86 86 87 88 89 91 92 94 94 95 97 98 99 101 102 103 104 105 106 107 108 110 111 112 113 114 114 114 114 112 109
83 83 83 83 83 83 84 85 86 86 87 88 88 89 91 93 94 95 96 97 98 99 100 101 102 103 104 105 105 107 108 110 112 113 114 114 114 114 113 111 108 104
84 85 85 85 85 86 86 87 87 88 89 89 90 92 94 95 96 97 98 98 99 100 101 102 103 104 105 106 107 108 110 112 113 114 114 113 113 112 110 106 102 97
86 87 87 87 87 87 87 88 89 90 90 91 92 94 96 97 98 98 99 99 100 100 101 102 103 104 106 107 109 110 111 113 114 114 113 112 110 107 104 99 94 91
89 89 89 88 88 88 89 89 90 91 92 93 94 96 97 98 99 99 99 100 100 101 101 102 104 105 107 108 110 111 112 113 113 112 110 107 104 100 96 92 88 85
91 90 90 90 90 90 90 91 92 93 93 94 96 97 99 100 100 100 99 100 100 101 102 103 104 105 107 108 110 111 112 112 111 108 104 100 96 92 88 84 81 80
91 91 91 91 91 92 92 93 93 94 95 96 97 98 100 100 100 100 100 100 100 101 102 102 103 105 106 108 109 110 110 109 106 102 98 93 88 84 80 77 76 76
91 91 92 92 92 93 93 94 94 95 96 97 98 99 99 100 100 99 99 100 101 101 101 101 102 104 106 107 107 108 107 104 100 96 91 86 81 76 73 72 72 73
93 93 93 93 93 94 94 95 95 96 96 97 98 98 99 99 98 98 99 100 100 100 100 101 103 105 105 105 106 105 102 98 93 88 82 77 74 71 69 68 69 69
94 94 94 94 95 95 95 95 95 96 97 97 97 97 97 96 96 97 99 99 100 100 101 103 104 104 104 104 104 101 97 92 87 81 76 72 69 67 67 66 65 64
95 95 95 95 95 95 95 96 96 96 97 97 96 95 95 94 95 97 98 98 99 101 102 102 102 102 103 103 100 96 92 88 83 78 73 69 67 65 64 63 62 61
97 96 96 96 96 96 97 97 97 97 96 95 94 93 93 94 95 96 97 98 99 100 100 101 102 102 102 99 95 92 90 87 83 78 72 67 64 63 61 60 59 58
96 96 96 96 96 97 97 96 96 95 94 93 92 92 93 94 95 95 95 97 98 98 98 100 101 100 98 95 93 91 89 87 83 77 71 66 62 60 59 58 57 55
97 96 96 96 96 96 95 95 94 94 93 93 93 93 94 94 94 93 93 94 94 95 98 99 98 95 94 93 91 89 87 84 79 74 70 65 61 58 57 56 55 54

ECMWFNIL_250_spd_132.txt.gz
Wind_Speed
57 57 57 57 57 58 58 58 58 59 60 62 63 64 65 65 65 65 66 67 67 68 69 69 70 71 72 73 74 76 77 79 80 82 83 85 86 88 89 91 92 94
60 59 59 59 60 60 60 60 60 61 62 64 65 66 66 66 67 67 68 69 69 70 70 71 72 72 73 75 76 77 79 80 82 84 85 86 88 89 91 93 94 95
61 61 61 61 62 62 62 62 62 63 65 66 66 67 68 68 69 70 71 71 71 72 72 72 73 74 76 77 78 79 80 82 84 86 87 88 90 91 93 94 95 97
63 63 63 63 63 64 64 64 64 66 66 67 68 69 69 70 71 71 72 72 73 73 74 74 75 76 78 79 79 81 83 85 86 88 89 90 92 94 95 96 98 99
65 64 64 65 65 65 65 65 66 67 68 69 69 70 70 71 72 72 73 73 74 75 76 76 77 78 79 80 81 83 85 86 88 90 91 93 95 96 97 99 100 102
66 66 66 66 66 66 66 67 68 69 69 70 70 71 72 72 73 73 74 75 76 76 77 78 79 80 81 82 84 85 87 88 90 92 94 95 97 98 99 101 102 104
68 68 67 67 67 68 68 69 70 70 71 71 71 72 73 73 74 75 76 76 77 78 78 79 80 82 83 85 86 87 89 91 93 94 95 97 98 99 101 102 103 105
70 69 69 69 69 69 69 70 71 72 72 72 73 74 74 75 76 76 77 77 78 79 80 81 82 84 86 87 88 89 91 93 94 95 96 98 99 100 102 103 104 105
72 71 71 70 70 71 71 72 73 73 73 73 74 75 75 76 77 77 78 78 79 80 81 83 85 87 88 89 90 91 93 95 96 96 97 98 100 101 102 104 105 106
73 73 72 72 72 73 73 74 74 74 74 75 75 76 76 77 77 78 79 79 80 81 83 85 87 88 89 90 91 93 94 96 96 97 98 99 100 101 102 103 105 106
75 75 74 74 75 75 75 75 75 75 76 76 76 77 77 78 78 79 80 81 82 83 85 86 88 89 90 91 93 94 95 96 96 97 98 99 100 101 102 103 105 107
78 77 77 76 76 76 76 77 77 77 77 77 77 78 78 79 80 81 82 82 83 85 86 87 89 90 91 92 94 95 95 96 97 98 99 100 101 102 102 104 106 108
80 79 78 78 78 78 78 78 78 78 79 79 79 79 80 81 81 82 83 84 84 85 86 88 90 91 92 93 94 95 96 97 98 98 99 101 101 102 103 106 108 109
83 82 81 80 80 80 80 80 80 80 80 80 80 81 81 82 83 84 84 84 85 86 88 90 91 92 94 94 95 96 96 98 99 99 100 102 102 102 104 106 108 109
86 84 84 84 83 83 83 83 83 83 83 83 83 83 83 84 85 85 85 86 87 88 90 92 93 94 95 95 96 96 97 98 99 100 101 102 102 103 105 107 108 108
88 87 87 86 86 86 86 86 86 86 86 86 86 86 86 86 86 86 86 87 88 89 91 93 94 95 96 97 97 98 98 99 100 101 102 102 103 104 105 106 106 105
91 91 90 89 89 89 89 89 89 88 88 88 88 88 87 87 88 88 88 88 89 91 92 94 95 96 97 98 98 99 99 100 101 101 101 102 103 104 105 104 103 102
95 94 93 92 92 91 91 91 90 90 90 90 90 89 89 89 89 89 89 90 91 92 93 95 96 97 98 99 99 100 100 100 101 101 101 101 102 103 103 102 101 100
97 96 95 94 94 93 93 92 91 91 91 91 91 90 90 90 91 91 91 91 92 93 94 95 97 98 98 99 100 100 100 100 101 100 100 101 102 102 101 99 99 98
99 98 97 96 95 95 94 94 93 93 93 92 92 91 91 92 92 92 92 92 93 93 94 96 97 98 99 100 100 100 100 99 99 99 100 101 101 100 98 98 97 96
100 99 98 98 97 97 96 96 95 95 94 94 94 93 93 93 94 94 94 93 93 94 94 96 97 98 99 100 100 99 99 98 98 98 99 99 99 97 96 96 95 92
102 101 101 100 100 99 99 98 98 98 97 97 96 95 95 95 95 95 94 94 94 94 95 96 97 98 98 98 99 99 98 97 97 97 97 97 96 94 94 94 91 88
103 103 103 103 102 102 101 101 101 100 99 98 97 96 96 96 96 95 95 95 94 94 95 96 97 98 97 96 97 98 98 97 96 96 96 94 92 92 92 90 87 85
105 105 105 105 104 103 103 102 101 100 99 98 98 97 96 96 96 96 95 95 95 95 95 96 97 97 96 95 95 96 97 97 96 95 93 91 90 91 91 88 86 85
108 108 107 106 105 104 103 102 101 100 99 98 98 97 96 96 96 96 96 96 95 95 95 96 96 95 95 94 94 95 95 95 94 93 90 89 90 90 89 87 86 84
110 109 108 107 106 104 103 102 101 100 100 99 99 98 97 97 97 97 96 96 95 94 95 95 95 94 94 94 94 94 94 93 91 89 88 88 89 87 86 86 86 85

ECMWFNIL_250_spd_135.txt.gz
Wind_Speed
61 61 60 60 60 61 61 61 60 60 61 62 62 63 63 62 62 63 63 64 65 66 67 67 68 69 70 70 71 71 72 73 74 75 76 77 79 79 81 82 84 86
63 62 62 62 62 63 63 63 63 63 64 64 64 65 65 64 65 65 66 66 66 67 68 68 69 70 71 72 72 72 73 74 76 77 77 78 80 80 82 84 86 88
65 65 64 64 64 65 65 64 64 65 66 66 66 67 67 66 67 67 68 68 68 69 69 70 70 71 72 73 73 73 74 76 77 78 78 79 81 82 84 86 88 89
68 68 67 66 66 67 66 66 66 67 68 68 69 69 68 68 69 69 69 70 70 70 71 71 72 73 73 74 74 74 76 77 78 79 79 80 82 83 85 87 89 90
71 70 70 69 69 68 68 68 69 70 69 70 70 70 70 70 70 70 71 71 71 72 73 73 74 74 75 74 75 76 77 78 80 80 80 81 83 84 86 88 89 90
73 73 72 71 71 70 70 70 71 71 71 72 72 71 72 72 72 72 72 73 73 73 74 75 75 76 76 76 76 77 78 79 80 81 81 82 84 85 87 89 90 90
75 75 74 74 73 73 72 72 73 73 73 73 73 73 74 73 73 74 74 74 74 75 76 76 76 77 77 77 78 78 79 80 81 82 83 83 84 85 87 89 90 91
78 77 77 76 76 75 75 75 75 75 75 74 74 75 75 75 75 76 76 76 76 77 77 77 77 77 78 79 79 79 80 81 82 84 84 84 84 86 88 90 91 91
81 81 80 80 79 79 79 78 78 77 77 76 76 77 77 77 77 78 77 77 78 78 78 78 78 79 80 80 80 81 81 83 84 85 85 85 85 87 89 91 92 93
84 83 83 83 83 83 82 82 81 80 80 79 79 80 80 80 80 79 79 79 79 79 80 80 80 81 82 82 82 83 84 85 86 86 85 86 87 89 91 92 93 94
87 86 85 85 85 85 85 85 84 83 83 83 82 83 82 82 82 81 81 80 81 81 82 82 83 83 83 84 84 85 86 87 87 87 87 87 89 90 92 93 94 95
90 89 89 88 88 88 87 87 86 86 86 86 85 85 85 84 84 83 84 83 84 84 84 84 85 84 85 86 86 87 88 89 89 89 89 89 90 91 93 94 95 95
92 92 92 91 91 90 90 89 89 89 89 89 88 88 87 87 87 87 87 87 87 87 87 87 86 86 87 87 88 89 89 90 91 90 90 91 91 93 94 95 95 96
94 94 94 93 93 92 92 91 91 92 92 92 91 90 90 90 90 90 90 90 90 89 89 89 89 89 89 89 90 90 91 91 92 92 91 92 93 94 95 96 96 97
96 96 95 94 94 94 93 93 93 94 94 94 93 93 92 92 92 92 92 92 91 91 92 92 91 91 91 91 91 91 91 92 92 93 93 94 95 95 96 96 96 97
99 98 98 97 96 96 95 95 95 95 95 95 95 94 94 94 94 93 93 93 93 92 93 92 92 92 92 92 92 92 92 92 93 94 95 96 96 96 96 97 97 98
102 102 101 100 99 99 98 97 97 97 96 96 95 95 95 94 94 93 93 93 93 93 93 93 93 93 93 93 93 93 93 93 95 96 97 98 98 97 97 97 97 98
106 104 103 103 102 101 100 99 99 98 97 97 96 96 96 95 95 94 94 94 94 94 94 94 94 93 94 94 94 94 94 95 97 98 99 100 99 98 97 97 97 98
109 108 106 105 105 104 103 102 101 100 100 99 98 98 98 97 97 97 96 96 96 96 95 95 95 95 95 95 96 96 96 97 98 100 101 101 100 99 97 97 97 98
113 112 110 109 108 107 106 105 104 103 102 102 101 101 100 100 100 99 99 99 98 98 97 97 97 97 97 97 98 99 99 98 99 101 102 102 101 99 98 97 97 98
115 115 114 113 112 110 109 108 107 106 105 104 104 103 103 102 102 101 101 101 100 99 99 99 99 100 99 100 101 100 100 100 101 102 103 103 102 100 98 98 98 98
116 116 116 115 114 113 112 110 109 109 108 107 107 106 106 105 104 104 103 102 102 102 102 102 102 102 101 102 102 102 102 102 102 103 103 103 101 99 98 98 97 97
118 118 117 116 116 115 113 113 112 111 111 110 110 109 108 107 106 106 105 104 104 104 104 104 104 104 104 104 104 104 103 103 102 102 102 101 100 99 98 97 97 96
120 119 118 118 117 116 115 115 114 113 113 112 111 110 109 108 107 106 106 105 105 105 106 106 106 105 105 104 105 104 103 102 101 101 100 100 100 99 97 96 95 95
121 120 120 119 118 118 117 117 116 115 114 113 112 111 110 109 108 107 107 106 106 106 106 106 106 106 106 106 105 104 103 101 100 99 99 100 100 99 97 95 94 93
123 122 121 121 120 120 119 119 118 117 116 115 114 113 112 111 110 109 108 107 107 107 107 108 108 108 107 106 105 104 102 101 99 98 99 99 100 98 96 94 93 92

ECMWFNIL_250_spd_138.txt.gz
Wind_Speed
61 62 62 62 62 63 64 63 63 62 63 63 64 65 65 65 64 64 65 66 66 67 68 68 69 69 70 70 71 72 73 74 74 75 75 76 77 78 79 80 80 80
64 63 63 63 64 65 65 65 64 64 64 66 66 67 68 68 67 67 68 68 68 68 69 69 70 70 71 71 72 73 74 75 76 76 76 77 78 79 80 80 80 81
66 65 65 65 65 66 66 66 66 66 67 68 68 69 70 70 70 70 71 70 70 70 71 70 70 71 71 72 73 74 75 76 76 77 77 78 79 80 80 81 81 82
68 68 68 67 67 68 67 67 67 68 69 69 70 71 71 71 71 71 72 72 72 72 72 72 71 72 73 73 74 75 75 76 77 78 78 79 80 80 81 82 82 83
72 72 71 70 70 69 69 68 69 70 70 71 72 72 72 72 72 73 73 73 73 74 74 74 74 75 75 75 76 76 76 77 78 79 79 79 81 81 82 83 84 84
75 75 74 73 72 72 71 71 72 72 73 73 74 74 74 74 74 74 75 75 76 76 77 77 77 77 77 77 77 77 78 79 79 80 80 81 82 83 84 85 85 85
78 77 76 76 75 75 75 75 75 76 76 76 76 76 77 77 77 77 78 78 79 79 79 80 80 80 80 80 79 79 80 81 82 82 82 83 84 85 87 87 86 86
81 80 80 80 79 79 78 78 79 79 79 79 79 80 80 80 80 81 81 81 81 81 82 82 82 82 83 82 82 82 83 84 84 85 85 86 87 87 88 88 88 88
85 84 83 83 82 82 82 82 83 82 82 82 82 83 83 83 83 84 84 84 84 84 84 85 85 85 85 85 85 85 86 86 87 87 87 88 88 88 89 89 89 88
88 87 86 86 86 85 86 86 86 86 86 85 85 86 86 86 86 86 86 86 86 86 87 87 87 87 87 88 88 88 88 88 89 89 89 89 89 89 90 89 89 89
91 90 89 89 89 89 89 89 89 88 88 88 88 88 88 88 88 88 88 88 88 88 89 89 89 89 90 90 90 90 90 90 90 90 90 90 90 90 90 90 90 90
94 94 93 92 92 92 91 91 91 91 91 90 90 90 90 90 90 90 90 90 90 91 91 91 91 92 92 92 92 92 91 91 91 91 91 91 91 91 91 91 90 91
97 96 96 95 95 94 94 94 93 93 93 92 92 92 92 92 92 92 93 93 92 92 93 93 93 93 93 93 93 92 92 92 92 92 92 92 91 91 91 91 91 92
99 99 98 97 97 97 97 96 96 95 95 95 95 95 95 95 95 95 95 95 95 95 95 95 95 95 94 94 94 94 93 93 92 92 92 91 91 91 92 93 93 94
102 101 100 100 100 100 100 99 99 98 98 98 98 98 99 99 99 98 98 98 97 97 97 97 96 96 96 96 95 95 94 93 92 92 92 93 94 95 95 95 95 94
105 104 103 103 103 103 103 102 102 102 102 102 102 102 102 102 102 102 101 100 100 99 99 98 98 97 97 97 96 95 94 94 94 95 96 97 97 97 97 95 94 94
109 107 106 106 106 106 106 105 106 106 106 106 106 106 105 105 104 103 103 102 101 101 100 99 98 98 98 98 98 97 97 98 99 99 99 99 98 97 95 94 94 95
112 111 109 109 109 109 109 109 109 109 109 109 108 108 107 106 105 104 104 103 102 101 101 100 100 100 101 101 101 101 101 101 101 100 99 98 97 96 96 97 97 98
116 114 113 112 113 113 112 112 112 112 111 111 110 109 108 108 107 106 106 105 105 104 103 103 103 104 104 104 103 102 102 101 100 99 99 99 99 100 100 101 101 102
119 118 117 117 117 117 116 116 116 116 116 115 114 113 112 111 111 110 110 109 108 108 107 107 106 107 107 106 105 104 103 103 102 102 103 103 104 105 105 105 106 106
122 121 121 120 120 120 120 120 120 120 120 120 119 117 116 115 115 114 113 113 112 111 110 110 109 110 109 109 108 108 108 107 107 107 107 108 108 109 108 109 108 108
126 125 124 123 123 123 123 122 122 123 123 123 122 121 120 119 118 117 116 116 115 114 113 113 113 113 113 112 112 112 111 111 110 111 111 111 111 111 111 110 110 109
130 129 128 127 126 126 126 125 125 125 125 125 124 124 123 122 121 120 119 118 118 117 116 116 116 116 115 115 115 114 114 113 113 113 113 113 113 113 112 111 110 109
133 132 131 131 130 129 129 129 128 128 128 128 127 127 126 125 124 123 122 121 121 120 119 118 118 118 118 117 117 116 116 115 115 115 114 114 114 113 112 111 110 110
135 135 134 133 132 131 130 130 130 130 130 130 129 129 128 128 127 126 125 124 124 123 122 121 120 120 120 119 118 118 117 117 116 116 115 115 114 114 112 111 111 110
137 136 136 135 134 133 132 131 131 130 130 130 129 129 128 128 127 127 126 125 125 125 124 123 122 122 122 121 120 119 119 118 117 117 116 115 115 113 112 111 111 110